GEFSGL_500_meanwind_000.txt.gz
Wind_Speed
48 48 48 50 50 48 47 46 45 44 41 39 40 40 37 35 35 37 35 35 36 37 38 41 48 54 62 71 77 81 84 86 85 82 81 79 75 76 74 71 72 73 72
51 50 50 51 52 52 50 48 45 44 43 41 39 41 42 41 38 37 36 34 36 37 37 37 40 42 45 51 60 71 79 83 84 81 79 80 78 78 76 73 72 71 71
55 54 54 54 54 52 49 47 45 43 41 40 38 38 41 44 44 41 38 37 38 38 39 38 38 39 39 41 47 55 65 75 82 83 80 79 79 79 78 78 77 74 73
57 56 56 53 51 50 48 46 44 42 38 34 34 34 36 42 47 45 44 42 41 40 40 42 42 41 42 42 43 47 53 61 69 77 77 77 83 82 76 74 76 77 76
57 57 53 50 51 51 48 45 41 38 35 30 28 29 31 36 45 46 46 45 44 44 44 43 44 43 42 43 46 48 50 56 59 65 69 66 75 78 76 69 68 69 73
58 55 51 53 53 53 50 46 42 38 34 29 26 25 27 32 38 45 47 46 45 45 45 44 44 42 41 45 49 48 47 53 51 54 69 69 67 69 71 70 69 69 71
58 53 54 56 56 55 52 49 47 43 37 32 27 23 24 30 33 39 44 44 42 42 42 42 41 40 39 35 35 36 38 49 48 49 53 61 63 65 65 66 70 76 75
56 53 57 57 56 56 53 51 51 50 42 33 28 23 22 28 31 33 38 38 40 40 40 40 37 35 36 35 39 40 39 47 51 56 55 56 57 56 63 64 58 64 72
55 55 58 57 55 55 54 54 56 54 44 34 26 22 21 25 29 31 35 38 40 42 42 40 38 38 36 41 46 40 39 48 53 56 55 58 58 60 55 52 55 63 66
54 57 59 58 57 58 58 60 61 55 41 30 23 20 19 21 26 30 35 38 42 43 44 44 45 46 40 40 41 37 38 44 51 54 50 52 49 47 54 62 59 57 60
56 58 60 59 60 61 62 66 64 50 34 26 21 17 16 19 23 29 33 37 41 44 45 46 49 50 47 42 39 40 40 41 43 43 46 50 51 49 48 51 54 55 54
57 57 59 60 62 63 65 68 63 43 29 22 18 15 13 16 21 26 27 32 37 43 46 46 48 51 51 47 43 42 42 43 43 44 47 49 49 50 53 54 52 53 56
56 56 58 61 63 66 68 70 62 43 30 21 17 14 13 13 18 22 24 29 37 41 46 46 47 48 50 51 48 46 44 43 43 43 43 45 46 47 50 53 54 54 56
56 56 58 61 62 66 70 72 65 46 33 23 16 14 12 12 14 16 20 25 30 38 43 46 47 47 47 49 51 51 48 46 46 46 45 44 44 43 44 47 48 51 51
56 56 58 60 62 65 69 72 69 53 39 28 18 13 12 12 12 14 16 19 24 30 40 44 46 48 47 47 48 50 52 50 49 50 50 50 50 48 46 46 48 49 49
56 56 59 60 60 62 66 70 70 62 45 33 23 15 10 11 11 13 14 14 18 22 30 40 44 47 49 49 48 48 49 53 55 54 54 54 53 53 52 51 50 50 49
56 57 60 61 60 61 65 68 70 68 57 41 29 20 13 8 9 10 11 12 13 16 21 29 39 45 48 51 51 50 48 48 52 58 61 59 57 55 54 54 55 54 53
56 57 59 61 62 62 64 67 70 70 66 54 39 28 20 13 8 8 9 10 11 12 15 20 28 38 46 49 51 52 51 49 47 48 55 61 59 57 55 53 54 57 55
55 56 58 61 62 61 62 64 66 68 69 64 54 40 30 23 17 11 8 8 9 10 12 15 20 27 37 46 49 51 52 52 49 47 48 54 58 58 55 53 52 55 55
53 55 57 59 60 60 61 62 63 65 66 67 64 57 47 36 27 21 16 12 9 8 9 11 14 18 25 35 46 50 52 53 53 52 49 49 50 52 51 50 49 50 49
53 53 55 57 58 59 60 60 61 62 63 64 64 62 60 53 46 38 29 22 17 13 9 7 8 12 16 23 34 45 51 53 54 55 53 51 50 49 49 49 48 47 46
52 52 53 54 56 56 58 59 60 60 60 60 60 61 60 58 55 52 46 40 34 25 17 10 5 4 8 12 19 31 43 50 53 55 55 55 53 52 51 51 51 49 47
50 51 51 52 54 54 55 56 58 59 59 58 58 57 57 56 56 54 52 50 46 42 38 30 19 10 4 3 7 15 26 39 49 54 56 57 58 57 56 54 54 53 51
47 48 50 51 51 52 54 54 55 56 57 58 57 56 55 54 53 52 52 51 50 48 45 41 38 31 22 13 6 3 11 21 34 47 55 58 59 60 61 60 58 56 55
45 46 47 48 49 50 51 52 52 53 54 55 56 57 56 55 53 51 50 49 48 48 47 45 42 38 34 29 23 15 6 6 15 27 41 52 58 61 63 64 64 62 61
42 44 45 46 48 49 50 50 49 50 51 52 53 54 55 56 55 54 52 50 47 45 44 44 44 42 39 35 31 26 22 14 5 8 20 32 45 55 61 64 66 66 66

GEFSGL_500_meanwind_006.txt.gz
Wind_Speed
61 60 58 55 52 51 51 50 49 47 45 42 40 39 37 33 34 36 38 38 40 43 41 39 37 37 40 45 57 75 89 95 93 89 87 84 80 76 68 65 65 65 67
61 58 56 54 53 52 52 51 51 49 47 45 43 40 38 34 32 33 35 35 36 40 41 39 37 36 37 41 47 60 75 88 92 90 88 86 84 81 75 71 68 64 63
59 57 56 54 53 54 55 55 54 53 52 49 48 45 40 35 31 30 31 32 33 37 39 39 37 36 36 37 42 50 63 76 85 87 85 85 84 82 78 74 72 68 65
58 57 56 56 56 57 57 58 58 58 56 55 51 45 39 34 30 29 29 29 30 34 38 39 37 36 35 35 38 44 54 65 74 79 81 81 81 81 79 75 73 71 68
57 56 57 58 59 60 60 61 62 63 61 57 49 40 33 29 27 27 27 27 27 31 35 38 38 35 35 35 36 38 46 55 64 70 73 75 76 78 78 76 74 72 68
56 57 59 61 61 61 62 63 66 66 61 51 39 28 23 23 23 24 26 26 25 29 33 36 37 36 35 35 35 36 40 46 53 60 65 69 72 75 76 76 75 73 69
55 58 61 63 63 63 64 67 69 67 57 43 28 16 13 18 21 23 25 24 24 27 32 35 37 37 36 37 37 36 38 41 46 51 56 60 64 69 71 72 73 71 68
56 60 63 65 65 65 67 70 70 64 51 36 21 8 9 15 19 21 22 21 21 25 31 35 36 38 38 38 38 38 38 39 42 46 49 51 55 59 62 66 68 68 67
56 60 64 66 66 67 69 72 71 60 46 31 17 5 8 13 17 19 18 18 19 24 31 35 36 37 39 39 39 39 39 40 41 43 44 46 48 51 55 60 64 65 65
56 61 65 67 67 68 71 74 72 60 44 30 17 5 6 11 14 16 15 16 19 24 31 36 38 38 38 38 39 39 39 40 41 40 40 41 41 44 48 52 56 60 63
57 61 64 67 68 69 71 75 74 62 46 32 19 8 4 7 10 12 11 13 17 24 32 37 39 39 38 38 38 38 38 38 38 38 38 37 38 40 43 46 49 53 56
57 60 63 66 68 69 71 73 75 67 50 36 23 12 5 4 6 7 7 8 13 22 32 38 41 42 41 40 39 38 38 37 36 35 34 33 34 37 41 45 47 50 53
57 59 61 64 68 69 69 71 74 72 59 43 31 18 9 5 4 5 4 4 8 17 28 38 41 43 44 43 41 40 39 38 37 35 33 34 35 38 43 48 51 54 55
57 57 59 62 66 68 69 70 72 74 69 55 40 27 16 10 7 6 5 3 4 11 23 34 40 43 45 45 43 42 41 40 39 38 37 37 42 43 44 49 52 54 55
56 56 57 60 63 67 69 70 71 73 74 67 53 39 26 16 11 9 7 4 2 6 17 28 37 41 44 46 45 44 42 41 40 41 40 40 43 46 46 46 50 53 53
56 56 56 57 60 63 67 69 69 69 70 70 65 55 41 28 18 13 9 7 4 3 10 21 32 39 43 46 47 47 45 43 42 42 43 42 42 43 45 46 45 47 51
55 56 55 56 57 60 62 65 67 68 68 68 67 65 57 46 33 22 14 10 6 4 6 15 26 35 41 44 47 48 48 46 44 44 44 43 42 41 41 43 44 44 44
54 54 55 55 55 57 59 61 63 66 67 67 66 65 63 60 52 41 28 18 11 7 6 8 18 29 37 42 45 47 49 49 47 46 46 45 44 43 43 43 43 44 45
51 52 54 54 54 54 55 56 59 61 64 65 65 64 63 61 59 56 49 36 23 13 7 5 9 20 31 38 43 45 47 49 50 49 49 48 47 46 46 47 47 46 46
48 50 51 53 53 52 52 52 54 56 59 61 63 63 63 61 60 58 56 53 44 31 19 9 4 7 19 30 38 43 45 46 49 51 51 51 51 50 49 49 50 50 50
46 47 49 50 51 51 50 50 50 51 54 57 59 61 62 62 60 59 57 55 53 49 40 27 15 5 4 15 28 37 43 46 47 49 52 54 54 53 53 52 52 52 52
44 45 46 48 49 49 49 48 48 48 50 52 54 56 58 60 60 59 58 56 54 51 49 44 36 24 12 3 10 24 36 43 47 48 50 53 55 56 56 56 55 55 55
43 44 44 45 46 47 47 47 47 47 47 48 50 52 53 55 57 58 58 57 55 52 49 47 44 40 32 21 8 5 18 32 43 49 51 53 54 57 58 58 58 58 57
42 42 43 43 43 44 44 44 45 46 46 47 48 49 50 50 52 53 55 56 56 54 51 47 45 42 40 36 29 18 5 12 26 40 49 54 56 57 58 59 60 60 60
40 41 41 42 42 42 42 42 43 44 44 46 47 47 47 48 48 48 49 51 52 52 52 50 46 43 40 37 35 32 26 15 5 18 32 46 54 59 61 61 61 60 60
38 39 40 41 42 41 41 41 41 41 42 44 45 46 46 46 46 47 46 47 47 48 48 49 48 45 41 38 35 33 30 27 22 12 9 23 37 50 59 62 64 63 62

GEFSGL_500_meanwind_012.txt.gz
Wind_Speed
68 64 59 59 61 64 67 69 70 72 71 66 61 54 49 45 43 41 40 37 34 32 31 33 39 44 50 60 68 72 70 63 61 69 82 95 96 94 91 90 88 86 85
67 63 60 60 62 65 69 71 74 74 70 61 49 39 32 27 28 30 31 31 30 29 28 30 36 41 46 54 63 68 68 64 58 60 72 87 93 91 88 87 86 86 85
67 64 61 61 63 67 70 73 76 73 63 49 35 23 16 11 10 14 19 22 24 25 26 28 33 38 42 49 58 64 65 63 59 54 62 77 88 88 85 83 84 85 84
67 65 62 62 64 68 71 75 77 70 57 39 24 17 14 11 7 2 7 13 18 20 23 26 30 35 39 45 53 59 61 59 58 53 55 67 81 84 82 79 80 85 85
66 65 64 64 66 69 72 76 77 68 53 35 16 11 11 11 11 6 2 7 12 16 20 24 28 33 37 41 48 53 56 56 55 53 53 61 76 83 82 78 76 81 83
66 66 65 65 66 69 72 76 77 67 51 35 17 3 5 6 7 3 1 3 7 12 17 22 27 31 34 38 43 48 50 51 50 50 52 60 74 87 87 81 75 76 79
65 66 66 66 67 70 72 76 77 69 53 38 23 10 2 4 3 3 4 3 4 8 14 21 26 29 32 36 40 43 44 44 44 45 49 57 74 89 91 83 78 77 78
64 66 66 66 67 69 71 74 77 71 57 41 29 18 8 4 6 6 6 6 4 7 13 20 25 28 31 34 36 38 39 38 37 38 43 52 71 90 97 91 82 78 77
63 65 66 65 66 68 70 73 75 74 63 47 35 26 17 11 8 8 7 5 4 7 13 20 24 28 30 32 33 34 34 33 32 33 36 46 64 87 99 99 90 80 77
62 64 64 64 65 66 69 71 74 75 70 57 42 32 24 18 14 11 8 6 3 7 12 18 24 28 30 31 30 30 30 29 28 29 32 39 53 76 96 101 96 87 79
61 63 63 62 63 64 67 70 72 73 72 66 53 40 31 24 19 14 10 7 4 4 10 16 22 27 30 30 29 28 27 26 25 25 28 34 45 60 79 91 95 89 82
60 61 61 60 61 62 64 67 69 70 70 70 64 51 39 31 24 19 14 9 5 1 7 13 20 26 29 30 29 28 27 25 24 23 25 30 38 49 60 71 79 81 80
58 58 58 59 59 59 61 63 66 67 68 69 68 63 52 40 30 24 19 13 8 4 3 10 18 24 28 29 29 28 27 25 24 23 24 28 34 43 50 57 62 66 71
55 55 56 56 57 58 59 60 62 64 66 67 67 66 62 53 41 30 23 18 13 7 0 7 15 22 27 28 29 28 27 25 24 23 23 26 30 37 44 50 56 61 64
53 53 53 54 55 57 58 58 59 61 63 64 65 65 64 62 55 43 31 23 17 12 5 3 12 20 25 28 28 28 27 26 25 24 23 25 28 33 39 45 51 56 60
50 51 50 51 52 54 56 57 58 58 59 60 62 63 63 62 61 56 45 32 23 16 11 3 7 16 24 28 28 29 28 27 26 25 24 25 27 30 35 40 47 53 58
48 49 49 49 49 50 52 54 55 56 56 56 57 59 60 60 58 58 55 47 34 24 16 9 2 11 20 26 29 29 29 28 28 27 27 27 28 29 32 36 42 48 55
47 47 47 47 47 48 49 51 52 53 54 54 54 55 56 57 57 56 55 54 48 37 25 17 8 3 14 23 28 30 30 30 29 30 29 28 28 29 31 33 38 43 50
45 45 45 46 46 46 47 48 49 51 51 52 52 52 52 53 54 55 53 52 51 47 38 27 17 7 5 17 25 30 31 31 31 31 32 31 30 30 31 31 34 38 44
43 43 44 44 44 45 45 46 46 48 48 49 49 49 49 49 50 51 52 51 49 48 46 40 29 18 7 7 18 27 31 33 33 33 34 34 34 33 33 33 34 36 40
43 42 42 43 43 44 44 44 45 45 46 47 48 48 48 48 47 47 48 48 48 46 44 42 39 31 20 7 7 19 28 33 35 35 35 35 36 36 36 36 37 37 39
43 41 41 41 42 42 43 43 44 44 44 44 45 46 47 47 46 45 45 45 45 44 43 41 39 36 32 22 8 7 19 29 34 37 37 37 38 39 39 39 40 40 41
44 42 40 40 40 41 42 42 42 42 42 42 43 43 44 45 45 45 43 42 41 41 40 39 37 35 32 30 24 11 5 18 29 36 39 40 40 40 41 42 43 44 44
44 42 41 39 38 38 39 40 40 40 41 41 41 41 42 42 43 43 43 41 39 38 38 37 36 34 31 28 26 23 15 1 15 28 36 41 43 44 44 45 46 46 47
44 43 42 40 39 38 37 38 38 39 39 40 40 40 40 40 40 40 41 40 38 37 36 35 34 32 30 27 24 22 20 16 7 9 24 35 42 46 48 48 49 50 50
43 42 42 41 40 39 37 36 36 37 38 38 39 39 39 38 38 37 38 38 38 36 34 34 33 31 29 26 23 20 18 17 15 9 5 17 31 42 48 51 52 53 54

GEFSGL_500_meanwind_018.txt.gz
Wind_Speed
74 72 72 72 72 71 71 73 78 80 76 66 54 46 40 36 32 28 19 8 5 14 21 26 29 32 34 37 40 44 50 61 71 78 81 81 84 92 102 104 99 96 98
72 71 71 71 71 70 71 73 78 79 73 62 50 41 36 32 30 27 23 14 6 6 13 19 24 28 30 33 37 41 46 55 66 74 80 79 79 84 94 102 101 97 97
70 69 69 69 70 70 71 73 76 78 72 60 47 38 32 28 26 24 20 14 7 2 8 14 20 24 27 29 33 37 42 49 60 69 76 79 76 78 86 97 101 98 96
68 68 67 68 69 70 71 72 75 77 73 62 47 36 29 25 22 19 16 11 5 2 8 13 17 21 23 26 29 33 38 45 55 65 72 77 76 74 77 90 99 100 97
68 67 66 66 67 69 70 71 73 76 75 67 52 38 29 24 21 17 14 10 6 6 9 12 16 18 20 22 26 30 35 41 50 60 69 74 75 72 72 81 92 99 98
67 65 64 64 66 68 70 70 71 73 75 71 60 45 33 26 22 18 15 12 9 8 9 11 13 15 17 19 23 27 33 39 47 56 65 71 73 70 68 71 82 93 98
66 64 63 63 64 67 68 69 69 71 73 73 67 54 41 32 26 21 18 14 12 9 9 9 10 12 14 17 20 25 30 36 44 53 62 68 69 67 64 64 72 83 92
65 63 62 62 63 64 66 67 67 68 70 71 70 63 50 39 32 26 22 17 14 10 7 6 6 9 12 15 19 23 28 34 42 50 58 64 65 63 60 60 63 71 82
64 62 61 61 61 62 64 65 65 66 67 69 70 68 59 47 37 31 26 21 17 12 7 3 3 7 11 15 18 22 26 32 39 47 54 60 62 59 56 54 58 64 73
63 60 60 59 60 60 61 63 64 64 65 67 68 69 66 56 44 36 30 25 20 15 9 4 3 8 12 16 19 22 25 31 38 44 51 56 58 57 52 49 51 58 66
63 59 58 58 58 59 59 61 62 63 63 64 66 67 67 63 53 42 35 29 22 16 11 6 7 10 14 17 19 21 25 30 36 41 46 51 54 54 50 45 45 51 60
62 59 57 57 57 57 57 58 59 60 61 61 62 64 65 64 60 50 41 34 27 19 13 9 9 12 16 18 20 21 24 29 33 37 41 46 49 50 48 44 42 46 55
62 59 57 56 55 55 55 56 56 58 58 58 59 61 63 63 62 57 49 40 31 23 15 11 11 14 17 18 20 21 24 27 30 34 36 40 43 46 47 44 42 45 52
60 58 56 55 54 54 54 54 54 55 56 56 57 58 59 61 62 62 56 46 36 27 18 12 12 14 17 18 19 20 22 24 26 28 31 34 38 41 43 44 44 47 51
59 58 56 54 53 53 53 53 53 54 55 56 56 56 56 58 60 61 59 53 43 33 23 14 11 13 15 16 17 19 20 21 22 23 25 28 31 35 39 43 45 48 52
58 57 55 53 51 50 51 52 53 53 53 54 55 55 55 56 57 57 57 55 50 40 28 18 11 10 13 14 15 17 18 19 19 19 19 21 24 28 33 38 44 49 54
57 56 54 52 50 49 48 48 49 51 51 51 52 52 53 53 52 53 53 53 52 46 36 25 14 8 10 12 13 15 16 17 17 17 16 17 18 21 25 31 38 46 53
55 54 53 51 50 48 47 46 46 47 48 49 49 49 49 49 49 49 49 49 49 48 43 34 22 10 6 9 12 14 15 17 17 16 16 15 16 17 20 24 32 40 48
54 53 52 51 49 48 47 46 45 45 45 46 46 47 46 46 46 46 46 45 45 44 44 41 32 20 8 5 10 13 15 17 17 17 16 16 16 16 18 21 27 35 42
53 52 51 50 48 47 47 46 44 43 43 43 44 44 43 43 43 42 42 41 41 40 40 40 38 31 20 7 5 12 15 17 17 18 17 17 16 17 18 20 25 31 38
52 51 50 49 48 47 46 45 44 43 42 42 42 42 42 41 40 40 39 39 38 37 36 35 35 34 30 20 8 4 12 16 18 19 19 18 18 18 19 21 24 30 37
50 51 50 49 47 46 45 45 44 44 42 41 40 40 39 39 38 37 37 37 36 35 34 32 31 30 29 27 21 10 2 11 17 19 21 21 20 20 21 22 24 29 35
49 49 49 48 47 46 44 44 44 43 43 41 39 38 37 37 36 35 34 34 34 34 33 31 29 27 26 24 23 20 12 2 10 17 21 23 24 24 23 24 25 28 32
47 48 48 47 47 45 44 43 43 43 42 41 39 37 36 35 34 33 33 32 33 32 32 30 28 26 24 23 21 20 18 12 4 7 17 22 25 27 27 27 27 29 32
45 46 47 47 46 45 44 42 42 42 41 40 38 36 35 34 33 32 31 31 31 31 31 30 28 26 24 23 22 20 19 16 11 5 7 16 23 27 30 31 31 31 32
44 44 45 46 46 45 43 42 41 41 40 39 37 35 34 33 32 31 29 29 29 30 30 29 28 26 25 24 24 23 21 18 15 10 7 10 17 25 30 34 36 35 35

GEFSGL_500_meanwind_024.txt.gz
Wind_Speed
76 79 79 78 74 71 70 69 69 69 68 70 73 70 57 46 37 30 25 20 16 12 9 7 5 7 13 22 30 37 44 49 52 55 58 60 69 78 85 92 102 111 113
75 78 78 77 73 70 68 68 68 68 67 69 72 71 61 49 40 32 26 22 19 15 13 10 9 10 13 18 25 31 37 43 47 50 55 57 63 72 80 88 97 107 112
75 77 78 76 72 69 67 67 67 67 66 68 70 71 65 54 44 35 29 24 21 19 16 14 13 12 14 17 21 26 32 37 42 45 49 53 58 66 74 83 92 103 110
74 77 77 75 71 68 66 66 66 66 65 66 69 70 68 60 50 40 33 27 23 20 18 16 15 14 15 17 20 23 28 32 37 41 45 48 53 61 70 80 88 99 107
73 76 76 75 71 67 65 64 64 65 65 65 67 69 68 64 56 47 37 30 25 21 18 15 13 13 14 16 18 21 24 29 33 37 40 44 49 57 66 76 84 94 104
72 75 75 74 71 67 64 63 63 64 64 65 66 68 68 65 59 50 41 33 27 22 17 13 10 9 11 13 16 18 21 25 29 33 36 39 45 53 63 72 79 89 99
71 73 74 74 71 66 63 62 62 62 63 63 64 66 67 65 60 52 44 36 29 23 18 13 8 5 5 8 12 15 18 21 25 30 33 36 42 50 60 68 75 84 94
70 72 73 73 70 66 63 61 61 61 61 62 63 64 66 65 61 53 46 39 31 25 19 15 10 5 1 3 7 11 15 19 22 26 29 32 39 48 57 65 71 78 87
69 71 72 72 69 66 62 60 60 60 60 60 61 62 64 65 62 55 48 41 34 27 21 17 13 10 6 4 3 6 10 15 19 23 26 30 37 46 55 62 68 74 80
68 69 71 71 69 65 62 60 59 59 59 59 60 60 61 62 62 57 50 43 35 28 23 20 16 14 11 8 6 4 6 10 15 20 24 29 37 46 54 60 64 69 75
66 68 70 69 68 65 62 60 58 57 58 58 58 58 59 59 60 59 52 43 35 29 24 22 19 17 15 13 10 7 5 6 11 16 22 28 36 45 53 58 62 66 71
65 66 68 69 67 65 61 59 57 56 55 55 55 55 55 56 57 58 54 44 36 29 24 21 19 18 17 15 13 11 8 6 7 13 20 28 36 45 52 56 59 62 66
64 64 66 68 67 65 61 58 56 54 53 52 52 52 52 53 53 54 54 47 37 29 24 21 19 18 17 16 14 13 11 9 7 10 18 27 36 44 50 53 55 57 60
62 63 64 66 67 65 61 58 55 53 51 50 50 50 50 50 51 51 51 50 42 31 24 20 18 17 16 16 15 14 12 11 9 10 16 25 35 42 47 50 51 51 53
61 61 62 64 65 65 63 58 55 53 51 50 49 48 47 48 48 49 49 48 46 38 27 20 17 15 15 15 15 14 13 12 12 13 17 24 33 40 44 47 47 47 47
60 59 60 62 63 64 63 60 55 52 51 50 48 47 46 46 46 46 46 45 45 43 35 23 17 14 12 12 12 13 13 13 14 15 18 24 31 37 41 43 44 43 42
59 58 58 60 61 62 61 58 55 52 50 49 47 45 44 43 43 43 43 42 42 41 39 31 20 14 11 9 10 10 11 13 14 15 18 22 28 33 38 40 40 40 39
58 56 56 57 59 60 60 57 54 50 49 47 46 44 42 41 40 40 40 40 39 38 37 35 28 18 11 8 7 7 9 11 13 15 17 20 24 29 33 37 38 38 38
57 55 54 54 57 58 59 58 54 50 47 45 44 43 41 39 38 37 38 38 37 35 34 34 31 26 17 9 5 4 6 9 11 13 15 17 20 24 28 33 36 37 37
56 53 52 52 54 56 57 57 55 51 46 43 41 40 39 37 36 35 35 35 35 34 32 31 30 28 24 16 8 2 4 7 9 11 13 16 18 21 25 28 32 35 37
54 52 50 49 51 53 55 56 55 51 46 42 40 39 38 36 35 34 33 33 32 31 30 29 28 28 26 21 14 7 1 6 9 11 13 14 16 19 22 25 28 32 36
53 50 48 47 48 51 53 54 54 52 47 42 39 38 37 35 34 33 32 31 30 30 28 27 27 26 26 23 18 12 5 4 10 13 15 15 16 17 19 22 25 29 33
52 49 47 45 45 48 50 52 53 52 48 42 38 36 35 35 33 32 31 30 29 28 27 26 26 26 26 25 21 16 9 5 7 13 17 18 18 18 19 20 23 26 30
50 47 45 43 43 45 48 50 52 51 48 43 38 35 34 33 32 31 30 30 28 27 26 25 25 26 27 27 26 21 15 8 7 11 16 20 22 22 21 21 22 24 28
49 46 43 41 41 42 45 48 50 50 48 43 38 34 32 32 32 31 30 29 28 27 25 25 25 25 27 28 28 27 22 15 8 9 14 20 23 25 25 24 23 24 27
47 44 41 39 38 39 42 45 47 49 47 43 38 33 31 30 30 30 29 29 28 27 25 24 24 24 26 27 29 29 27 23 16 8 10 17 22 26 28 27 26 26 27

GEFSGL_500_meanwind_030.txt.gz
Wind_Speed
78 79 77 76 77 79 82 84 82 78 72 69 69 69 70 70 70 66 62 56 48 42 38 34 28 23 19 17 16 14 14 20 29 39 50 58 63 65 64 61 59 63 74
78 80 78 77 76 78 81 83 81 76 72 68 68 68 69 69 69 65 60 55 49 43 39 34 29 23 18 17 16 15 15 18 25 34 44 53 59 62 62 60 56 57 66
78 80 79 77 76 78 81 82 80 75 71 67 67 67 67 68 68 64 59 55 49 44 40 35 30 24 18 16 15 15 15 16 22 30 39 47 54 59 60 59 56 53 59
77 79 79 78 76 77 80 81 79 75 70 66 65 65 65 66 67 63 57 54 50 45 41 36 31 25 19 15 13 13 13 15 18 26 34 42 49 54 56 57 55 52 54
76 78 79 78 77 76 78 80 78 74 69 65 64 64 64 64 65 63 57 54 50 46 42 38 34 28 22 17 13 11 11 13 16 21 29 37 43 49 52 54 52 50 52
74 77 79 78 77 76 77 78 78 74 68 64 63 62 62 62 63 63 58 53 49 46 43 39 35 31 25 20 15 11 9 10 14 17 23 31 38 44 48 50 50 49 50
73 76 78 78 76 75 75 77 77 74 69 63 61 60 60 60 61 61 58 51 47 44 41 39 37 33 28 22 17 13 8 7 10 14 19 26 33 39 42 45 46 46 48
72 74 76 77 76 74 74 75 76 74 69 63 60 58 58 58 58 59 57 51 46 42 40 38 37 34 30 25 20 15 10 5 6 11 16 22 28 34 38 41 43 44 47
70 72 74 75 75 74 73 74 75 73 69 64 59 57 57 57 56 56 56 52 45 41 38 37 35 34 32 27 23 17 12 7 4 8 14 20 25 29 33 37 40 42 47
69 70 72 74 74 73 72 72 73 73 70 64 59 57 56 55 55 55 54 52 46 40 37 35 34 33 32 29 25 21 15 9 3 5 11 17 23 27 30 34 38 42 47
68 69 70 72 73 72 71 70 71 72 69 64 59 56 55 54 53 53 52 50 47 40 36 33 32 32 31 30 27 24 18 12 6 1 7 14 20 25 29 33 37 42 47
67 68 68 70 71 71 69 69 69 70 69 64 58 55 53 53 52 51 51 49 47 42 35 31 30 29 29 29 28 26 22 16 10 2 5 11 17 23 28 33 38 42 47
66 66 66 67 69 69 68 67 67 68 67 64 58 54 51 51 50 50 49 48 46 44 37 31 29 28 27 28 27 27 24 20 14 7 3 8 15 21 27 33 38 43 47
64 65 65 65 67 67 66 65 64 66 66 64 59 53 50 49 49 48 47 46 45 43 40 34 29 27 26 26 26 26 25 21 16 11 6 7 13 20 27 34 40 43 47
63 64 63 62 64 65 64 63 62 63 65 64 60 53 49 47 47 47 46 45 43 42 40 38 32 27 25 24 24 24 24 22 18 13 10 9 13 20 27 34 40 44 47
62 62 61 60 61 62 62 61 60 61 63 64 60 54 49 46 46 46 45 43 42 41 40 39 35 28 24 22 21 21 21 20 18 15 12 11 14 20 27 34 40 45 48
60 60 59 58 58 60 60 59 58 59 60 62 60 54 48 45 44 44 44 42 41 40 39 38 36 32 26 21 19 18 18 18 16 14 13 12 15 20 26 33 39 43 48
59 59 57 55 55 57 58 57 56 56 58 59 59 54 47 43 42 42 42 41 40 39 38 37 35 33 28 22 18 16 16 15 15 14 13 13 16 20 25 31 37 41 45
58 57 55 53 52 53 55 55 54 54 55 57 57 54 48 42 40 40 40 40 38 37 36 36 35 34 30 24 19 14 12 12 12 12 12 13 16 20 24 29 34 38 42
57 55 52 50 49 50 52 52 51 51 52 54 55 53 48 42 39 38 38 39 37 36 35 34 34 34 31 27 20 14 10 8 8 9 10 12 15 19 23 27 31 35 39
57 53 49 46 45 47 49 49 48 48 49 51 52 52 47 42 38 36 36 37 37 35 34 33 33 33 32 29 23 16 10 5 4 6 9 11 14 18 22 26 29 33 36
55 51 47 43 42 44 46 46 46 45 46 47 49 50 46 41 37 35 34 34 35 35 33 32 31 31 31 29 26 20 13 5 1 5 8 11 14 18 22 25 28 31 34
54 50 45 41 40 41 43 43 43 42 43 44 47 48 45 41 36 33 32 32 33 33 33 31 30 29 30 29 28 23 17 9 1 5 9 12 15 19 22 25 28 30 33
52 49 44 40 38 39 40 41 40 40 40 41 44 45 44 40 35 32 30 30 31 32 32 31 30 28 28 29 28 26 21 16 7 3 10 14 17 20 23 25 28 30 32
50 47 42 38 36 37 38 38 38 37 37 38 41 43 43 39 35 31 29 28 29 30 30 30 29 28 27 27 27 27 24 20 14 6 5 14 19 21 23 26 28 30 33
48 45 41 37 34 34 35 36 35 35 35 36 38 40 41 39 34 30 27 27 27 28 29 29 28 27 26 26 26 26 25 22 18 13 4 7 17 23 25 27 28 30 32

GEFSGL_500_meanwind_036.txt.gz
Wind_Speed
57 58 59 60 62 65 68 72 73 75 76 77 78 79 78 76 71 68 66 65 63 60 57 54 53 51 50 47 44 41 36 30 21 17 21 22 25 32 43 57 69 76 83
58 58 59 60 62 64 67 71 73 74 75 76 77 78 77 74 70 67 65 64 61 58 54 52 51 49 48 46 43 40 36 31 24 17 19 21 23 28 38 51 62 70 75
58 58 58 60 61 64 66 70 73 74 75 75 76 77 76 73 69 66 64 63 60 57 53 50 48 47 46 45 43 39 35 31 26 19 17 20 21 25 34 46 56 63 68
58 58 58 60 61 63 66 69 72 73 74 74 74 76 75 72 68 65 63 62 59 56 52 49 47 45 44 44 42 39 35 31 27 21 17 17 19 22 30 41 51 58 63
58 58 58 59 61 63 66 69 71 72 73 73 73 74 74 71 67 64 62 61 59 56 52 48 45 43 42 42 41 38 34 30 26 22 18 16 17 20 27 37 46 54 58
59 59 59 60 61 63 65 68 70 71 72 72 72 72 72 70 66 63 61 60 59 56 52 47 44 42 41 40 40 38 35 31 27 23 18 15 15 17 25 34 43 50 54
59 60 59 61 62 64 65 67 69 69 70 71 70 70 70 69 65 61 59 59 58 55 52 48 43 41 39 38 38 37 35 31 27 23 18 15 13 15 23 32 41 47 51
61 61 61 62 63 64 66 67 68 68 69 69 69 68 68 67 64 60 57 57 56 55 52 48 43 40 38 37 36 36 34 32 28 23 18 14 12 14 22 31 39 45 49
63 62 62 64 65 65 66 66 67 67 67 68 68 66 66 66 63 59 56 55 54 53 51 49 44 39 37 36 35 34 33 32 28 23 17 13 10 13 20 29 37 43 47
64 64 64 64 66 66 66 65 65 66 66 66 66 65 64 64 62 59 56 54 53 51 50 48 45 39 36 34 34 33 32 30 27 23 17 11 8 12 20 28 36 41 45
65 64 64 64 65 65 64 64 64 64 64 63 63 63 62 62 61 58 55 53 51 50 49 47 44 40 35 33 33 33 32 30 27 23 17 10 6 10 18 27 34 39 42
65 64 64 64 63 63 62 62 63 62 61 61 61 61 60 60 59 56 54 52 51 49 48 46 44 40 35 32 32 32 31 30 27 23 16 10 4 9 17 25 32 37 41
63 63 63 62 61 61 60 60 61 59 58 58 59 58 58 58 57 55 52 50 49 48 47 46 44 41 36 32 30 30 30 29 27 23 16 9 2 8 15 23 30 35 39
60 60 59 59 58 58 57 58 59 57 56 55 56 55 55 55 54 53 50 48 47 47 46 45 44 42 38 33 30 29 29 28 27 23 17 10 2 6 13 21 28 33 37
55 55 55 55 55 55 54 54 55 55 53 52 53 53 52 52 52 50 47 45 45 45 44 44 43 42 39 35 30 27 27 27 26 23 18 11 4 5 11 17 25 31 35
51 51 51 52 52 51 50 49 50 51 50 49 50 50 50 50 50 48 46 44 43 43 43 42 42 40 38 35 30 26 25 24 24 22 18 12 6 7 11 16 22 28 32
49 49 49 49 49 49 48 47 48 48 47 47 48 48 47 47 47 46 44 42 41 41 41 41 40 39 38 35 31 25 23 22 22 20 17 12 8 8 12 16 21 26 30
49 48 48 49 48 48 46 45 46 46 45 45 45 45 45 45 45 45 43 41 39 39 40 40 39 38 36 35 31 26 22 20 19 18 15 11 8 9 12 16 21 25 29
48 48 48 49 48 47 45 43 43 43 42 42 43 43 42 42 43 43 41 39 38 38 38 38 37 36 35 34 31 27 21 18 16 15 14 11 8 9 13 17 20 24 29
49 49 49 48 48 46 43 41 41 41 40 40 40 40 40 39 40 40 39 37 36 35 35 36 36 35 34 32 30 27 22 17 14 13 11 9 8 9 12 16 19 24 30
50 50 49 49 47 46 42 40 39 38 38 38 38 38 37 37 37 38 37 35 34 33 33 34 34 34 33 31 29 26 23 17 13 11 9 8 7 9 12 15 18 24 30
52 52 51 49 48 45 41 38 36 36 35 35 36 35 35 34 35 35 35 33 32 31 31 32 32 32 31 30 28 25 22 18 13 9 7 6 6 8 11 15 19 24 28
54 53 52 50 47 44 40 36 34 34 33 33 33 32 32 31 32 33 33 31 30 29 29 29 30 30 30 29 27 25 22 19 14 8 5 4 6 8 11 15 19 22 25
55 53 51 49 46 42 38 35 32 31 31 31 30 29 29 29 29 30 30 29 28 27 27 27 28 28 29 28 27 25 22 19 16 10 4 3 6 9 12 15 18 21 24
54 51 49 47 44 39 36 32 29 28 28 28 27 26 26 26 27 28 28 27 26 25 25 25 26 27 27 27 26 25 22 20 17 12 4 2 6 10 13 16 18 20 22
51 49 46 43 40 36 32 29 27 26 25 25 24 23 23 23 24 25 26 25 24 23 23 24 24 25 26 26 25 25 22 20 18 14 7 1 6 11 14 17 19 20 22

GEFSGL_500_meanwind_042.txt.gz
Wind_Speed
59 61 62 63 64 66 66 67 67 67 67 67 67 67 68 69 71 73 74 76 76 74 73 72 70 70 68 67 65 63 61 59 55 50 49 48 47 45 41 36 30 26 32
59 61 62 64 65 66 67 67 68 68 67 67 67 67 67 69 70 71 73 74 74 73 71 70 68 68 66 65 63 61 59 57 54 50 48 46 45 44 41 36 31 27 28
59 61 63 65 66 67 67 67 68 68 67 67 67 67 67 67 69 71 72 72 72 71 69 68 67 66 64 63 61 60 57 54 53 51 47 45 43 42 39 35 31 27 26
60 62 64 66 67 67 67 67 67 66 66 66 65 65 65 66 68 70 70 70 70 69 67 66 65 64 63 61 59 58 55 52 51 50 48 44 42 40 38 33 29 27 25
62 63 65 66 67 68 67 66 65 64 64 63 63 63 63 64 67 68 68 68 68 67 65 64 63 63 61 60 59 58 55 51 50 49 47 45 42 40 37 33 28 25 24
63 64 66 67 67 67 66 64 64 63 62 61 61 61 62 63 65 66 66 66 66 65 63 62 61 61 60 58 57 57 54 51 50 49 48 45 42 40 37 32 27 23 22
64 65 65 65 65 64 63 62 61 61 59 58 58 59 60 61 63 64 63 64 64 63 62 61 59 59 58 56 55 54 51 49 48 48 47 45 42 39 35 30 26 22 20
63 63 63 63 61 61 60 59 58 57 55 55 56 57 57 58 60 60 60 61 61 61 60 59 58 56 56 55 53 52 50 47 45 45 44 42 40 37 33 28 23 19 18
61 60 60 59 58 57 56 54 53 52 52 52 53 54 55 57 58 58 58 59 59 58 57 57 56 55 54 53 52 51 48 44 43 42 42 41 38 35 31 25 20 17 16
57 55 55 54 54 52 51 49 49 49 50 50 50 52 53 54 55 56 56 57 57 55 54 54 54 53 53 52 51 51 47 43 40 40 39 38 36 32 27 22 17 14 14
51 51 50 50 49 48 47 46 46 47 47 47 48 49 51 52 53 53 54 55 55 53 52 52 51 51 51 50 49 49 47 42 40 39 38 36 33 29 24 19 14 11 12
49 49 49 48 47 45 44 44 45 44 44 45 46 48 49 50 51 51 52 53 53 51 50 50 49 49 49 48 47 47 45 40 38 37 37 35 31 27 22 16 11 8 11
47 48 47 45 45 44 43 43 43 43 44 45 46 47 48 48 49 49 49 51 51 50 49 48 48 47 47 46 45 45 42 39 36 35 35 33 29 24 19 14 9 6 11
46 45 45 45 45 45 44 44 44 43 44 45 45 45 46 47 47 47 48 49 49 48 47 47 46 46 45 45 44 44 41 37 35 34 33 31 27 22 17 11 6 5 11
47 47 47 46 46 47 47 46 45 45 45 44 44 44 45 45 45 45 46 47 47 45 45 45 44 44 43 43 43 42 39 35 33 32 31 29 25 20 15 10 4 4 12
49 49 49 49 49 50 49 48 47 47 46 44 43 43 43 43 44 43 44 45 44 43 42 42 42 42 41 40 40 39 37 33 30 29 29 27 23 18 13 8 3 4 12
51 52 52 52 51 51 51 50 48 47 45 43 43 43 42 42 42 41 42 42 42 41 40 40 40 39 39 38 38 37 35 31 28 27 26 25 22 17 12 8 3 3 11
53 53 53 53 53 52 52 51 49 47 44 43 42 42 41 40 40 39 40 40 39 39 38 38 38 37 37 36 35 35 33 30 27 25 24 23 20 16 11 7 3 3 9
54 54 54 54 54 54 53 51 49 46 44 42 41 40 39 38 38 37 37 37 37 36 36 36 36 35 35 34 34 33 32 29 26 23 22 21 18 15 10 6 3 4 8
54 55 55 55 54 54 52 49 47 45 43 41 39 38 37 36 35 35 35 35 34 34 34 34 34 33 33 33 32 31 30 28 25 22 20 18 17 13 9 5 6 6 7
54 55 55 54 53 53 52 49 47 44 42 39 38 36 35 34 33 32 32 32 32 32 32 32 32 32 32 31 30 30 29 27 24 20 18 16 14 11 8 6 6 6 7
54 54 54 54 53 52 50 48 45 42 40 37 35 34 32 31 30 30 29 29 29 29 30 30 30 30 30 29 29 28 28 26 23 19 16 14 11 8 5 4 5 6 6
52 53 54 54 52 50 47 44 41 39 36 33 31 30 29 29 28 27 26 26 27 27 28 28 28 28 28 28 27 27 26 25 23 19 15 12 9 6 4 4 4 6 7
51 52 53 52 49 46 43 41 38 36 33 29 28 27 27 26 25 24 23 23 24 25 26 26 26 26 26 26 26 26 25 25 23 19 15 11 7 4 3 4 4 5 7
50 51 51 50 46 43 40 37 33 30 27 24 25 25 24 24 23 21 21 21 22 23 24 25 25 24 24 25 25 24 24 24 23 19 15 10 5 2 3 4 4 5 7
50 50 50 47 43 40 37 33 27 24 22 22 22 22 22 21 20 18 18 18 19 21 22 23 23 23 23 23 24 23 23 23 22 19 15 10 5 1 4 5 5 6 7

GEFSGL_500_meanwind_048.txt.gz
Wind_Speed
51 52 52 54 55 57 58 60 62 63 63 64 65 65 65 64 64 63 61 60 60 60 62 64 66 68 68 69 70 70 71 73 74 73 72 71 70 70 69 67 64 60 56
50 51 52 53 55 57 59 62 63 63 64 64 64 64 64 63 63 61 60 59 59 60 62 64 66 67 68 68 69 69 70 72 74 74 70 69 68 67 66 63 60 58 56
50 50 51 53 56 58 60 62 63 63 63 63 63 62 62 61 60 59 58 57 58 60 62 64 65 66 66 67 68 68 69 71 72 72 69 67 65 64 62 59 56 55 54
51 52 53 55 57 59 60 61 62 62 62 62 61 60 59 58 58 57 56 57 58 59 62 63 64 65 65 66 66 67 68 69 70 70 68 65 63 62 60 57 54 53 52
52 53 55 56 58 59 60 60 60 60 59 58 57 56 56 56 55 55 55 56 57 59 61 62 63 63 64 65 65 65 67 68 68 68 66 64 63 61 59 56 54 52 49
54 55 56 57 57 57 57 56 55 55 54 53 53 54 54 53 53 53 54 55 57 58 60 61 62 62 63 64 64 64 65 66 66 65 64 63 61 59 57 54 53 51 48
55 55 55 55 54 53 52 51 51 51 49 49 50 52 51 51 51 52 53 55 56 57 59 60 60 61 62 62 62 62 62 62 63 62 62 60 59 57 55 52 51 49 47
52 52 51 50 49 49 48 48 48 48 48 49 50 50 50 50 51 53 54 55 56 57 58 59 59 60 60 61 60 59 59 59 58 58 59 57 56 54 52 51 50 47 44
50 49 49 48 47 47 47 47 47 47 48 48 49 50 50 52 53 53 55 55 56 57 57 58 58 59 59 60 59 58 57 56 55 55 56 55 53 52 51 50 48 45 41
50 50 49 48 48 48 48 48 48 48 48 49 50 50 51 52 54 55 55 55 55 56 56 57 57 58 58 58 57 56 55 54 52 53 52 51 50 48 48 48 46 43 39
50 50 49 49 49 49 49 50 50 50 50 50 51 52 53 54 55 55 55 55 55 55 55 55 56 57 56 56 55 54 53 52 51 51 50 49 47 46 45 44 42 39 36
50 50 50 50 51 51 51 51 51 51 51 52 53 54 54 55 55 55 55 54 54 53 54 54 55 55 54 53 52 51 50 49 49 49 48 47 44 44 42 41 39 36 33
51 51 52 52 52 52 53 53 53 53 54 54 55 55 56 56 55 55 54 53 52 52 52 53 53 53 52 50 49 48 48 47 46 46 45 44 42 41 40 37 35 32 29
53 53 53 53 53 54 54 54 54 55 55 55 55 56 56 55 55 54 52 51 51 50 50 51 51 50 49 48 47 46 45 44 44 43 42 41 39 39 37 34 32 28 26
54 53 53 53 54 54 54 54 55 55 55 55 56 55 55 54 53 52 50 49 49 48 48 48 48 47 47 45 44 43 43 42 42 41 40 38 36 36 34 31 29 25 22
53 53 53 53 53 53 53 53 54 54 54 54 54 54 54 53 52 50 49 47 47 46 45 46 45 45 44 42 41 41 41 40 39 38 37 35 33 32 30 28 25 22 19
52 52 51 51 52 52 52 53 53 53 53 53 53 53 53 51 50 48 47 45 44 43 43 43 42 41 40 39 38 38 38 37 37 36 35 32 30 29 27 24 21 19 16
50 50 51 51 51 51 51 51 52 51 51 52 53 53 52 50 48 46 44 42 40 39 39 39 39 38 37 36 35 35 35 35 34 34 32 29 27 26 24 21 18 16 14
50 49 49 49 49 50 50 51 50 51 52 52 52 52 51 48 45 42 40 38 36 36 36 36 35 35 34 33 33 33 33 33 32 31 30 27 24 23 21 18 15 14 12
48 48 48 48 48 48 49 49 50 51 51 51 50 49 46 42 39 36 35 33 33 33 32 32 32 32 31 31 31 31 31 30 30 30 27 24 22 21 18 16 13 12 10
46 46 47 47 47 48 48 49 49 50 49 48 46 44 40 37 34 32 30 29 29 29 29 29 29 29 29 29 29 29 29 28 28 28 26 23 20 18 16 13 11 9 8
44 45 45 45 46 46 47 47 48 47 46 43 40 38 36 33 31 28 26 25 26 25 25 26 26 27 27 27 27 27 27 27 27 26 24 21 18 15 13 11 9 8 6
43 43 44 44 45 45 45 45 45 44 42 39 37 36 33 30 26 24 23 22 22 22 23 23 24 24 25 25 25 25 25 25 25 23 22 19 16 13 10 9 8 7 5
42 42 42 43 43 43 43 44 43 41 39 36 34 32 28 25 22 21 19 19 19 19 20 20 22 22 23 23 24 24 23 23 23 21 20 18 14 10 8 7 6 4 4
40 41 41 42 42 42 42 42 40 38 35 32 29 26 23 21 19 17 16 16 16 16 17 19 20 21 22 22 22 22 22 21 21 20 19 16 12 9 7 5 4 4 3
39 40 40 41 41 41 40 39 36 33 30 27 24 22 20 18 16 15 13 13 13 14 15 17 18 19 20 21 21 21 20 20 20 19 17 15 11 8 5 4 4 3 3

GEFSGL_500_meanwind_054.txt.gz
Wind_Speed
49 51 53 55 57 59 60 61 62 63 64 65 66 67 67 68 68 69 70 71 71 71 71 71 69 68 66 65 65 65 65 65 65 63 64 65 67 69 70 71 71 71 72
49 51 52 54 56 57 59 60 61 62 64 65 66 67 68 68 69 69 70 70 70 70 70 69 67 65 63 64 64 65 65 66 66 64 64 66 68 69 70 70 71 71 72
50 51 52 54 55 56 57 58 60 61 62 63 65 65 66 67 67 67 68 68 68 67 66 64 63 62 62 63 64 64 65 66 66 65 65 67 68 69 70 70 70 70 71
52 53 54 56 56 57 58 59 60 60 61 61 62 63 64 65 65 65 65 65 64 63 62 61 61 61 61 62 63 63 64 65 65 65 66 66 66 67 69 69 69 69 69
56 57 58 58 59 59 59 59 59 60 60 61 62 62 63 63 63 63 62 62 61 61 60 59 60 60 60 62 62 62 64 64 65 65 65 65 65 66 67 68 68 68 67
60 60 61 61 61 61 61 60 60 61 61 61 61 61 61 60 60 60 60 60 60 59 58 58 58 59 59 61 62 63 64 64 63 64 64 63 64 65 66 67 67 67 65
64 64 64 64 64 63 63 62 62 62 62 61 60 60 59 59 60 60 60 59 58 58 58 58 57 58 59 60 61 62 62 61 61 62 62 62 63 63 65 64 64 64 62
66 66 66 66 65 65 64 64 63 62 61 60 60 59 59 59 59 59 60 59 58 57 57 57 57 57 58 58 59 60 60 59 60 61 61 61 61 61 62 62 62 61 59
69 68 67 67 66 65 65 64 63 61 60 59 58 58 57 57 58 59 59 59 57 56 56 56 56 57 57 58 58 58 57 57 59 59 59 58 58 58 59 59 59 59 56
69 68 67 67 66 65 64 63 62 60 59 58 57 57 57 56 57 57 57 56 56 55 55 55 55 55 56 56 56 55 54 55 56 56 56 56 55 55 55 55 56 56 54
69 67 66 66 65 64 62 61 59 58 57 56 55 54 54 53 53 54 54 54 53 54 54 53 53 54 54 54 53 52 52 52 53 53 52 52 51 51 51 50 51 52 51
67 66 64 63 62 61 59 58 57 55 54 52 51 50 50 50 50 51 51 51 51 51 52 52 53 53 52 51 50 50 50 50 50 50 49 49 48 48 47 47 48 47 48
65 63 62 60 59 58 56 54 52 51 49 48 47 47 47 48 48 48 48 49 50 51 51 51 51 50 49 48 47 47 47 48 47 47 47 46 46 45 44 44 44 44 43
62 61 60 58 56 54 52 51 49 48 46 45 45 44 45 45 46 46 47 48 49 50 50 50 48 47 46 45 44 44 45 45 44 44 44 43 43 42 42 42 41 40 38
60 58 56 54 52 49 48 47 46 44 44 43 43 43 43 44 45 45 46 47 48 49 49 47 45 43 42 41 41 41 42 42 41 41 41 41 40 40 39 40 39 37 36
56 54 52 49 47 45 44 43 43 42 42 42 43 43 43 44 44 44 45 46 46 47 45 43 41 40 39 38 38 38 38 38 39 39 39 39 38 37 37 37 37 34 33
52 50 48 46 44 42 41 40 39 39 40 41 42 43 43 43 43 43 44 45 44 43 40 38 36 35 35 34 35 35 35 36 36 36 36 36 35 35 35 34 34 32 31
49 47 45 43 41 40 39 38 38 38 38 39 41 42 43 43 42 43 43 42 40 38 35 33 32 32 32 32 32 33 33 33 34 34 34 33 33 33 32 32 31 30 28
46 44 42 40 39 38 38 38 38 38 38 39 40 42 42 41 41 40 39 38 36 33 32 30 30 30 30 30 29 30 31 31 31 31 31 31 31 31 30 30 29 27 26
42 41 40 38 37 37 37 37 37 38 39 40 40 40 39 37 36 36 36 35 33 31 30 29 29 29 28 27 27 28 28 29 29 29 29 29 29 28 28 28 26 25 24
40 38 38 37 36 36 37 37 38 39 39 39 38 37 36 35 35 34 33 32 30 29 28 28 28 27 26 25 25 26 26 27 27 27 28 27 27 27 27 26 24 23 22
39 38 37 36 36 36 37 38 39 39 38 37 36 34 34 33 32 31 30 29 28 27 27 27 26 24 23 23 24 24 25 25 26 26 26 25 25 25 25 24 22 21 20
38 37 36 35 35 36 36 37 38 37 36 35 32 31 31 31 29 28 27 26 25 25 25 25 23 22 22 22 22 22 23 24 24 24 24 24 24 24 23 21 20 19 18
37 36 35 34 35 35 36 36 35 35 34 32 30 29 28 27 26 25 25 24 24 24 23 22 20 20 20 20 20 21 21 22 22 23 23 22 22 21 21 20 19 17 16
35 34 33 33 34 34 35 34 34 33 31 29 28 27 26 25 25 24 23 22 22 21 20 19 19 18 18 18 19 19 20 21 21 21 20 20 20 20 20 19 17 15 14
34 32 32 32 33 33 33 33 31 30 28 27 26 25 24 23 22 21 20 19 19 18 17 17 17 17 16 17 17 18 19 20 20 19 19 19 20 20 20 17 15 13 12

GEFSGL_500_meanwind_060.txt.gz
Wind_Speed
44 47 49 51 53 55 57 59 60 62 63 64 64 65 65 66 66 67 67 67 68 68 68 69 69 70 71 71 71 71 71 70 67 64 65 65 65 65 64 65 64 63 63
50 52 54 57 59 60 62 63 65 66 66 67 68 68 68 68 69 69 69 69 69 68 69 69 69 70 69 69 69 69 69 68 67 64 64 64 64 64 64 64 63 63 63
56 58 60 62 64 65 67 68 69 69 70 71 71 71 71 71 71 71 71 70 70 69 69 69 68 68 67 67 67 67 67 67 66 65 63 63 62 62 63 63 63 63 64
61 64 66 68 69 70 71 72 73 74 74 74 74 73 73 72 72 72 72 71 70 70 69 68 67 66 66 66 66 65 65 65 64 63 62 61 61 62 63 62 63 64 65
66 69 70 72 74 75 76 77 77 78 77 76 75 74 74 73 73 73 72 71 70 69 68 67 66 65 65 65 64 63 63 63 62 62 62 62 61 62 63 63 63 64 64
72 74 75 77 78 79 79 80 79 78 77 76 75 74 73 72 72 71 70 69 67 66 65 64 63 63 63 63 62 61 61 61 61 61 61 60 60 62 63 64 64 65 64
77 78 80 81 81 82 82 80 79 78 76 75 73 72 70 69 68 67 67 65 64 62 61 60 60 59 60 59 59 60 60 60 60 60 60 59 60 61 62 63 64 64 63
80 82 83 83 83 82 81 79 77 75 73 71 69 68 66 65 64 63 61 60 58 57 57 56 55 55 56 57 57 58 58 59 60 60 59 59 60 61 62 63 64 64 63
83 84 84 83 82 80 78 76 74 72 69 67 66 64 63 61 60 58 57 55 53 52 52 51 52 52 53 54 54 55 55 56 57 58 59 59 59 60 61 62 63 63 61
84 84 83 81 80 77 75 72 69 67 65 63 61 59 58 56 54 53 52 50 49 48 48 48 49 50 51 52 52 52 52 53 55 55 56 56 57 57 59 60 60 60 59
84 82 80 77 75 73 69 66 64 62 60 57 55 54 53 51 49 49 48 47 46 45 45 46 46 47 48 49 50 50 51 52 53 53 53 53 53 54 55 56 57 57 56
81 78 75 72 69 66 63 60 59 57 55 53 51 49 48 47 46 45 44 43 43 42 42 43 44 45 46 47 47 48 49 50 50 50 50 50 50 51 52 53 53 54 54
76 72 68 65 62 60 59 56 54 53 52 49 47 45 43 43 43 42 41 41 42 41 41 42 43 43 44 44 45 45 46 46 45 45 44 45 47 48 49 50 51 51 50
70 66 62 60 57 55 54 53 51 50 48 46 44 42 41 40 40 40 40 41 41 41 41 41 42 42 42 42 43 43 43 42 42 41 42 43 44 45 46 47 47 47 47
63 60 57 56 54 52 50 49 48 46 46 44 42 41 39 38 38 39 39 39 39 40 41 40 41 41 41 41 42 41 40 40 39 40 41 41 42 43 44 44 44 45 45
59 56 54 52 51 49 47 45 44 44 44 43 41 40 39 39 38 39 39 39 39 38 38 38 38 38 38 38 38 38 38 38 39 39 40 40 41 41 41 41 42 43 42
56 53 51 50 48 46 45 43 41 40 40 41 40 40 40 39 39 38 38 37 36 36 35 35 35 35 35 35 35 35 36 37 37 38 38 38 38 38 38 39 40 40 39
52 51 50 48 46 45 43 42 40 39 37 37 38 39 39 38 37 36 35 34 34 34 34 34 34 34 34 33 33 34 35 35 36 36 36 36 36 36 36 37 37 37 37
50 49 48 46 45 43 42 41 40 38 37 36 36 36 36 35 34 33 32 32 32 32 33 33 33 32 32 32 32 32 33 33 33 33 33 33 33 33 34 34 34 35 35
49 48 46 44 43 42 41 39 38 36 36 35 34 33 32 32 31 30 30 30 30 31 30 30 30 30 30 30 30 31 31 31 31 31 31 31 31 31 31 32 32 32 32
47 45 44 43 41 40 39 37 35 35 34 33 33 32 31 30 29 28 28 29 29 29 29 29 28 28 29 29 29 29 29 29 29 29 28 28 28 29 29 29 29 29 28
45 44 43 41 39 38 37 35 34 34 34 32 31 31 30 29 29 28 28 28 28 28 28 28 28 28 28 28 28 28 28 27 26 26 26 26 26 26 26 27 26 26 26
43 42 41 39 37 36 34 33 34 33 33 32 31 30 29 29 28 28 28 27 27 27 27 26 26 26 26 26 25 25 25 24 24 23 23 24 24 24 25 25 25 25 25
42 40 38 36 35 33 32 32 32 32 32 31 30 29 27 27 27 27 26 26 26 25 25 25 25 24 23 23 23 23 22 22 21 22 22 22 23 23 24 24 23 23 23
40 38 36 34 32 31 30 30 30 30 30 29 28 26 26 25 25 25 24 24 24 24 23 23 22 22 22 21 21 20 20 20 20 20 21 22 22 23 23 22 21 21 21
37 35 33 32 30 29 29 28 29 29 28 27 26 25 24 23 23 23 22 22 22 22 21 20 20 20 19 19 18 18 18 19 19 20 21 22 21 21 19 19 19 19 18

GEFSGL_500_meanwind_066.txt.gz
Wind_Speed
45 47 49 52 55 57 60 63 66 68 71 73 75 77 79 80 82 83 84 84 85 85 86 86 86 86 87 86 86 86 85 85 83 78 78 78 79 77 76 76 75 74 73
50 52 55 58 60 63 66 69 72 74 76 79 81 82 84 85 86 87 88 88 88 88 87 88 87 87 87 86 85 84 83 83 82 78 76 76 77 76 75 74 73 73 72
55 58 61 63 66 69 72 74 77 79 81 83 85 87 88 90 90 91 91 91 90 88 87 86 84 84 82 81 81 80 79 78 78 75 72 72 72 72 72 71 71 70 69
60 63 66 69 72 74 77 79 81 83 85 87 89 91 92 92 92 91 91 89 87 85 83 81 79 78 76 76 75 74 73 72 71 70 68 68 68 68 68 67 67 67 66
65 68 71 74 76 79 81 83 85 87 89 91 92 93 92 91 90 88 86 83 80 77 75 73 71 71 70 69 68 67 67 66 65 64 62 62 62 63 63 64 65 65 64
70 72 75 78 80 82 84 86 88 90 92 92 92 91 89 86 83 80 77 74 71 68 65 64 63 62 62 62 61 61 60 59 58 58 57 57 57 58 59 60 61 62 62
74 77 79 81 83 85 87 89 91 92 92 91 88 85 81 76 73 70 67 65 62 60 58 57 57 56 56 55 55 54 54 53 53 53 52 51 52 54 56 56 57 58 58
78 80 82 84 86 88 89 91 91 91 89 86 81 77 72 67 65 62 60 58 56 54 53 52 51 49 49 49 49 48 48 48 48 48 48 47 48 50 52 53 55 55 56
80 82 84 86 88 89 90 90 89 87 83 78 73 68 64 60 58 57 55 52 50 48 47 47 46 44 44 44 43 43 43 43 44 45 45 45 45 47 48 50 51 52 52
82 84 86 88 90 90 89 87 84 80 75 70 65 62 59 56 54 53 51 49 47 45 43 43 42 41 41 40 40 39 39 40 41 42 43 44 44 44 46 47 48 50 50
84 86 87 89 89 88 86 82 77 72 68 63 60 57 55 53 51 49 48 47 45 42 40 39 39 39 39 38 38 38 38 38 39 40 41 42 43 43 44 45 46 47 47
85 87 87 87 86 83 79 74 69 65 61 58 55 53 51 49 48 47 45 44 43 41 39 38 38 38 38 37 37 37 37 37 37 38 39 39 40 41 42 43 44 44 45
86 87 86 85 81 77 72 67 63 60 57 55 53 50 47 45 45 44 43 42 41 40 39 38 37 37 36 36 35 35 36 36 36 36 37 38 39 40 41 42 42 43 45
86 86 84 81 75 70 65 62 59 56 54 52 50 48 45 43 42 40 40 40 39 39 38 37 36 35 34 34 34 34 35 35 36 36 36 37 38 39 40 40 41 42 43
85 83 79 74 69 63 59 56 55 53 52 51 49 47 44 41 39 39 38 38 37 36 35 34 33 32 32 33 33 33 34 34 35 36 36 36 37 38 39 40 41 42 42
83 78 73 68 63 58 55 51 50 50 49 48 47 46 43 41 39 38 38 37 36 35 34 32 31 31 31 31 32 33 33 34 34 35 35 36 36 37 38 39 40 40 41
77 72 67 62 58 55 52 50 47 44 44 45 45 43 41 39 38 38 37 35 34 34 32 31 31 31 31 31 32 32 32 33 34 34 34 35 35 36 36 37 38 38 39
70 65 62 58 55 52 50 48 46 44 41 40 41 40 39 38 38 37 36 34 33 32 32 31 31 30 30 30 31 31 31 32 32 32 32 33 33 34 35 36 36 37 37
64 60 57 54 52 50 48 46 44 43 41 39 37 37 37 37 36 36 35 34 32 31 31 30 30 30 30 30 30 30 30 30 30 31 31 32 32 32 33 34 35 35 36
58 56 53 50 48 47 45 44 42 41 40 38 36 36 35 34 33 33 33 32 31 30 30 30 30 30 29 29 29 28 28 28 29 30 30 30 30 31 31 32 32 32 32
54 50 48 46 45 44 43 42 41 39 37 36 35 34 34 33 32 31 31 30 30 30 29 29 29 29 28 28 27 27 26 27 27 27 27 28 28 29 29 29 29 30 30
49 46 44 43 42 42 41 40 39 37 35 34 33 33 33 32 31 31 30 29 29 29 28 28 28 27 26 26 25 25 24 25 25 25 25 25 26 26 26 27 27 28 29
44 42 41 40 40 40 39 38 36 35 33 32 32 32 31 30 29 29 29 28 28 27 27 26 26 25 25 24 23 23 23 24 24 24 24 24 25 25 26 26 27 28 28
40 39 39 38 38 37 36 35 34 33 31 31 31 30 29 28 28 28 28 27 27 26 25 25 24 23 22 22 21 22 22 22 23 23 23 23 24 25 26 26 26 26 27
37 37 37 37 36 35 34 33 32 30 29 29 29 28 27 27 27 27 26 25 25 24 24 23 22 21 20 20 20 21 21 22 23 23 23 23 24 24 25 25 25 25 26
35 36 36 35 34 33 32 31 29 28 28 27 27 26 26 26 26 25 24 23 23 22 22 21 20 19 18 19 19 20 21 22 22 23 23 23 23 24 24 24 24 25 25

GEFSGL_500_meanwind_072.txt.gz
Wind_Speed
39 41 43 45 48 50 53 56 58 61 64 67 69 72 75 78 80 82 84 86 88 89 91 92 93 93 93 93 92 90 89 88 88 82 80 82 84 84 84 84 83 83 83
41 44 46 49 51 54 57 60 63 66 69 72 74 77 80 82 84 86 88 89 91 92 92 93 92 91 89 86 84 82 80 79 78 75 70 72 73 74 74 75 75 75 76
45 48 50 53 55 58 61 64 67 70 73 76 79 81 83 85 87 89 91 91 92 93 92 91 87 84 80 77 75 73 71 69 69 67 62 62 63 64 65 65 66 67 68
49 51 54 56 59 62 65 68 71 74 77 80 82 84 86 88 90 91 92 93 92 90 87 83 78 74 70 68 66 64 63 63 62 60 57 56 56 57 58 58 59 60 61
52 54 57 60 63 66 69 72 75 78 80 83 85 87 89 90 91 92 92 90 87 82 76 71 67 64 62 61 59 58 58 57 56 55 53 52 51 51 52 53 54 55 55
55 57 60 63 66 69 72 75 78 80 83 85 87 89 91 91 91 90 88 84 78 72 66 62 59 57 56 55 54 54 53 53 52 51 49 48 46 46 47 48 48 50 50
58 61 64 67 70 73 76 78 81 83 85 87 89 90 90 89 88 85 79 74 68 63 59 56 54 53 52 51 50 50 49 49 48 48 46 44 43 42 43 43 44 45 45
61 64 67 70 73 76 78 81 83 85 87 89 90 90 88 85 82 76 70 65 60 56 54 52 50 49 48 48 47 46 45 45 45 45 44 42 41 40 40 40 40 41 41
64 67 70 73 76 78 80 83 85 87 88 89 89 87 84 79 73 67 63 58 54 51 50 49 48 46 46 46 45 44 42 41 42 42 42 41 40 39 38 38 38 38 38
67 70 73 76 78 80 83 85 86 88 88 88 86 83 78 71 65 61 58 54 51 49 47 46 45 44 43 43 43 42 41 40 40 40 39 39 38 37 37 37 37 37 37
69 72 75 77 80 82 84 86 87 88 87 85 82 77 70 64 60 56 54 51 49 47 45 43 42 42 41 41 41 40 40 39 38 37 37 36 36 36 36 36 36 35 36
72 74 76 79 81 83 85 85 86 86 84 80 75 68 62 58 55 52 50 48 47 46 43 41 40 40 40 39 39 39 38 37 36 36 35 35 35 35 35 35 34 34 34
73 76 78 80 82 83 84 85 84 82 79 73 68 62 56 53 50 47 46 45 45 43 41 40 40 39 38 37 37 37 36 35 35 34 34 34 34 33 33 33 33 33 33
75 78 80 81 82 83 83 83 81 77 72 67 62 57 51 48 45 44 43 42 41 40 40 39 39 38 37 36 35 35 35 34 33 33 32 32 32 32 32 33 33 33 34
78 80 81 82 82 82 81 79 76 70 66 62 57 52 48 44 42 42 41 39 39 38 37 36 35 35 34 34 34 33 33 33 32 31 31 31 30 31 31 32 32 33 34
80 81 82 82 82 81 78 74 68 63 58 55 52 49 46 44 41 40 39 38 37 36 35 34 33 33 33 32 32 32 32 31 31 30 30 29 29 30 30 31 32 33 34
81 82 82 81 80 78 74 69 61 54 50 48 47 46 44 42 40 39 37 36 35 34 33 33 32 32 32 32 31 31 31 30 30 29 29 29 29 29 30 30 31 32 33
81 81 80 79 77 72 68 62 55 49 45 42 42 43 42 40 39 37 36 35 33 33 32 32 31 31 31 31 30 30 29 29 28 28 28 28 28 29 29 30 30 31 32
80 79 78 76 71 66 61 55 50 46 43 41 40 39 39 38 37 36 35 34 32 32 31 31 31 31 30 29 29 28 27 27 27 27 27 27 27 27 27 28 28 29 30
78 77 75 71 65 60 54 50 46 43 41 40 39 38 36 35 34 34 34 33 32 31 31 31 31 30 29 28 28 27 26 26 26 26 26 26 26 26 26 27 27 28 29
76 73 69 64 59 54 49 45 42 41 40 39 38 37 36 34 33 32 31 31 30 30 30 30 30 29 28 27 26 25 25 25 25 25 25 25 25 26 27 27 28 28 29
72 68 62 57 52 48 44 41 39 39 39 38 37 35 35 34 32 31 30 29 29 29 29 29 28 27 27 26 25 24 23 23 24 24 25 25 26 26 26 27 27 28 28
66 61 55 51 46 42 39 37 37 38 37 36 35 34 33 32 31 30 28 28 28 28 27 27 26 25 25 24 22 22 22 22 23 23 24 24 25 25 25 26 26 27 27
59 54 49 45 41 37 36 36 36 36 36 35 34 33 31 30 29 28 27 27 27 26 26 25 24 23 22 21 20 21 21 22 22 23 23 24 24 25 25 25 26 26 27
51 47 43 39 36 34 34 34 35 35 34 33 32 30 30 29 28 26 26 25 25 24 24 23 23 21 20 20 20 21 22 22 23 23 24 24 25 25 25 25 25 26 27
45 41 38 35 33 33 33 33 33 33 32 31 30 29 28 27 26 24 24 23 23 22 22 21 20 20 19 19 20 21 22 23 24 24 25 25 25 25 25 26 26 27 27

GEFSGL_500_meanwind_078.txt.gz
Wind_Speed
41 42 42 43 44 45 46 47 49 50 52 55 57 59 62 64 66 68 71 73 75 77 79 82 84 86 88 89 91 92 92 92 93 88 84 81 78 75 72 69 68 67 67
43 44 44 45 46 47 48 50 51 53 55 57 60 62 64 67 69 72 74 76 78 81 83 85 87 89 90 90 90 89 88 85 84 81 74 69 66 64 62 61 59 58 58
45 45 46 47 48 49 50 52 54 56 58 60 62 65 67 70 72 75 77 79 82 84 86 87 89 90 89 88 86 84 80 77 74 71 64 60 58 56 55 54 53 52 52
46 47 47 48 49 51 53 54 56 58 60 62 65 68 71 73 75 78 80 82 84 86 87 88 88 88 86 83 79 75 71 68 65 62 58 54 52 51 51 50 49 49 49
48 49 49 50 51 53 55 57 59 61 63 65 68 71 74 76 78 81 83 84 85 86 87 86 85 82 79 76 71 67 63 60 58 56 53 51 48 47 47 48 47 46 45
49 50 51 52 54 56 58 60 61 63 66 69 72 74 76 78 81 83 85 86 87 87 85 83 80 76 71 67 63 60 57 55 53 52 50 48 46 45 45 45 44 43 42
51 52 53 55 56 58 60 62 64 66 69 72 74 76 78 80 82 84 85 86 86 84 82 78 74 68 64 60 56 53 51 50 50 49 47 45 44 43 43 43 42 41 40
52 53 55 57 58 60 62 64 67 70 72 75 77 78 80 82 83 84 85 85 83 80 77 72 66 60 56 53 50 48 47 46 45 45 44 43 42 42 42 42 41 40 38
53 55 57 58 60 62 65 67 70 73 75 77 79 80 82 82 83 84 83 82 79 74 69 63 59 54 51 49 47 45 43 42 42 42 41 41 40 40 41 41 41 40 38
55 56 58 60 63 66 68 70 73 75 77 79 80 82 83 83 82 82 81 79 74 68 61 55 52 49 47 45 45 43 41 40 40 39 38 38 38 38 39 39 39 39 37
56 58 60 63 66 68 71 73 75 77 79 80 81 82 83 82 80 78 76 72 67 60 54 49 46 45 43 42 42 41 41 39 38 36 36 36 36 36 36 36 37 37 35
58 60 63 66 68 71 73 75 77 79 81 82 83 82 81 79 77 73 69 64 59 54 49 46 44 42 41 40 40 39 38 37 36 35 35 34 35 35 34 34 34 34 33
60 63 65 68 70 73 75 78 79 81 83 83 83 82 79 76 72 67 62 56 52 49 46 43 42 40 39 38 38 37 36 36 36 35 35 34 35 34 33 32 32 32 31
63 66 68 71 73 75 77 80 81 83 83 83 82 80 76 71 66 60 54 49 46 44 42 40 39 38 38 37 36 35 35 35 35 35 34 34 34 33 32 31 30 30 29
66 68 71 73 76 78 79 81 82 83 83 82 80 77 72 66 59 53 49 45 42 41 39 37 37 36 35 35 35 34 34 34 34 34 34 33 32 31 30 30 29 29 29
69 71 74 76 78 80 81 82 81 81 79 78 75 71 66 60 53 47 44 41 40 39 38 37 36 35 34 33 33 33 32 32 32 32 32 32 31 30 30 30 30 29 29
72 74 77 79 81 82 83 83 81 77 75 72 68 63 59 53 47 43 41 39 38 38 37 36 35 34 33 33 32 32 31 31 31 31 30 30 29 29 29 29 29 29 28
75 77 80 82 83 83 83 82 80 77 71 65 60 55 51 45 41 40 39 37 36 36 36 36 34 33 32 32 31 31 30 30 30 29 28 28 28 28 28 27 27 27 27
78 81 82 83 83 83 82 80 76 72 66 59 52 47 43 39 37 37 38 37 36 35 35 34 33 32 31 31 30 29 29 28 28 27 27 27 27 27 26 26 26 26 26
81 82 83 84 83 82 79 75 70 65 59 53 46 41 38 35 34 34 35 36 35 34 33 32 31 30 30 29 29 28 28 27 27 27 26 26 26 26 25 25 25 25 25
83 83 83 83 81 77 73 68 64 58 52 46 40 37 36 34 33 33 33 33 33 32 31 30 29 28 28 28 27 27 27 26 26 26 26 25 25 25 25 26 26 26 26
83 82 81 78 75 70 66 61 57 51 45 40 35 34 34 34 33 33 32 32 31 30 29 28 27 27 26 27 27 26 26 26 26 25 25 25 26 26 26 27 27 27 27
81 79 75 71 67 63 59 54 49 44 39 36 33 32 32 32 32 31 30 30 29 28 27 26 26 25 26 26 26 25 25 25 25 25 25 25 26 26 27 27 27 27 28
76 72 69 64 60 57 52 47 42 38 35 33 31 31 31 31 30 29 28 28 27 26 25 25 24 24 25 25 25 25 25 25 25 26 26 26 26 27 27 27 27 28 28
69 66 62 58 54 51 46 41 37 35 32 30 30 30 30 29 28 27 26 26 25 24 24 24 23 24 24 25 25 25 25 25 26 26 27 27 27 28 28 28 28 28 28
62 59 56 52 49 45 40 37 34 31 30 29 29 28 28 27 26 25 24 24 24 24 23 23 23 24 24 25 25 25 25 26 26 27 27 27 27 28 28 28 29 29 30

GEFSGL_500_meanwind_084.txt.gz
Wind_Speed
43 44 46 47 47 48 48 48 49 49 50 51 52 53 54 55 57 58 60 61 62 64 66 68 70 72 73 75 78 80 82 85 87 85 86 88 89 89 88 87 84 82 79
45 46 47 48 49 49 49 50 51 51 52 53 54 55 56 58 59 60 61 63 64 66 68 70 72 74 75 78 80 82 84 86 89 88 86 86 85 84 82 80 76 73 69
46 47 48 49 50 50 51 52 53 53 54 55 56 57 58 59 60 62 63 65 66 69 71 72 74 76 78 80 82 84 85 87 88 88 85 82 79 76 73 70 67 64 60
48 49 49 50 51 52 53 54 55 55 56 57 58 59 59 61 62 64 66 67 69 71 73 74 76 79 80 82 83 85 86 86 85 83 80 75 70 67 64 61 58 56 53
48 49 50 52 53 54 55 56 56 57 58 59 59 60 61 63 65 67 68 70 72 73 75 77 79 80 82 84 85 85 84 83 80 77 72 66 61 58 56 54 51 49 47
49 50 51 52 54 55 56 57 57 58 58 59 60 62 63 65 68 70 72 73 74 76 78 79 81 82 83 84 84 83 81 78 74 69 64 59 55 52 50 48 46 44 42
50 51 52 53 54 55 56 57 58 58 59 60 62 64 66 68 71 73 74 75 77 78 80 82 83 83 83 82 81 79 75 71 67 62 57 53 50 47 45 43 42 41 39
51 52 53 54 55 56 57 57 58 59 61 62 64 66 69 71 74 75 76 78 79 81 82 83 83 82 82 80 77 73 68 63 59 56 52 48 46 43 42 41 39 38 35
52 52 53 54 55 56 57 58 59 60 62 64 67 69 71 73 76 78 80 81 82 82 83 83 82 81 78 76 72 66 60 55 52 49 47 44 42 41 40 38 37 35 33
51 52 53 54 55 56 57 59 61 63 65 67 69 72 75 77 79 81 83 84 84 83 82 80 79 77 73 68 63 58 52 48 45 43 41 40 39 38 37 36 35 34 33
50 51 53 54 56 57 59 61 63 66 68 70 72 75 78 80 82 84 86 86 85 83 80 77 73 69 64 59 55 50 46 43 41 39 38 36 36 35 35 34 34 34 33
51 52 54 56 57 59 61 64 66 69 71 74 76 78 80 83 85 86 86 85 84 81 76 71 66 60 56 51 47 44 42 40 39 37 35 34 33 32 32 32 32 32 32
52 53 55 57 59 62 64 67 69 72 76 78 81 82 83 84 85 86 84 82 79 75 69 64 58 52 48 44 42 41 39 38 37 36 34 32 32 31 31 30 30 30 30
53 55 57 59 62 64 67 70 74 77 80 82 84 85 85 85 84 82 80 76 72 67 61 55 50 45 42 40 39 38 38 37 36 34 32 31 30 30 29 29 28 28 27
55 57 60 62 65 68 71 74 78 81 84 85 86 87 87 84 81 78 75 70 65 59 53 47 42 39 37 37 37 36 36 35 33 32 31 30 29 28 28 27 27 26 26
58 60 63 66 69 72 75 78 80 83 84 86 86 86 84 81 77 72 68 62 57 51 46 41 38 36 35 34 34 34 34 32 31 30 29 28 27 27 27 26 26 25 25
62 65 67 70 74 77 80 83 83 82 83 83 83 81 78 75 71 66 61 55 49 44 40 37 36 35 34 33 33 32 31 30 29 28 27 27 27 26 26 25 25 25 24
66 69 72 75 78 82 84 85 85 84 82 79 77 75 72 68 64 59 54 48 42 39 37 35 34 34 33 32 31 30 28 27 27 27 26 26 26 25 25 25 25 25 24
69 73 76 79 83 85 85 85 84 83 80 76 72 67 64 61 57 52 48 43 38 35 34 34 33 33 32 30 29 27 26 25 25 25 25 25 25 24 24 24 24 24 24
73 77 81 84 85 85 85 83 81 78 74 70 65 62 58 54 49 45 41 38 36 34 33 32 32 31 30 28 27 26 25 24 24 24 24 24 24 24 23 23 23 23 24
78 82 85 86 86 85 82 79 75 72 68 63 59 56 53 49 44 39 36 34 33 32 31 30 29 28 27 26 25 24 24 23 24 24 24 24 24 24 23 23 23 23 23
83 85 86 85 84 81 77 73 69 65 61 58 54 51 47 43 39 36 33 31 30 30 29 28 27 26 25 25 24 23 23 23 23 24 24 24 24 23 23 23 23 23 23
85 85 84 82 79 75 71 67 63 59 56 53 50 46 41 38 35 33 31 29 29 29 28 27 26 25 25 24 23 23 23 23 24 24 24 24 24 24 24 23 23 24 24
85 83 81 77 73 69 64 60 57 54 52 49 45 41 38 35 33 30 29 28 27 27 26 26 25 24 24 23 24 24 23 23 24 24 24 24 24 24 24 24 24 24 24
82 79 76 71 67 62 58 55 52 50 47 44 40 37 34 32 30 28 27 26 26 25 25 24 24 23 23 23 23 23 23 23 24 24 23 23 24 24 24 24 24 25 25
77 73 68 64 60 56 54 52 49 46 42 39 36 33 31 29 27 26 25 25 24 23 23 23 23 23 23 23 23 23 23 23 23 23 23 23 23 24 24 25 25 26 26

GEFSGL_500_meanwind_090.txt.gz
Wind_Speed
39 41 42 43 45 47 48 49 50 51 52 52 53 53 54 55 55 56 56 57 58 58 59 60 61 63 64 66 67 69 70 72 72 71 73 75 77 79 81 82 83 84 84
40 42 44 45 47 48 49 50 51 51 52 52 53 54 54 55 56 56 57 58 58 59 61 62 63 65 66 67 69 70 72 74 76 76 76 78 80 82 83 84 85 85 84
42 43 45 46 48 49 49 50 50 51 52 53 54 54 55 56 57 57 58 59 60 61 62 63 65 67 68 70 71 73 75 78 80 81 81 82 83 83 84 84 84 83 81
43 44 46 47 48 48 49 50 51 52 53 54 55 55 56 57 58 58 59 60 61 62 64 66 68 70 72 73 75 77 80 82 83 84 84 83 83 82 82 81 79 77 74
44 45 46 47 48 49 50 51 51 52 54 54 55 56 57 58 59 60 60 61 63 65 67 69 71 73 75 78 80 82 84 85 86 86 85 83 80 79 77 76 73 69 65
45 46 47 48 48 49 50 51 52 53 54 55 56 56 57 58 60 61 63 65 67 69 71 73 75 77 80 82 84 85 87 87 86 85 83 80 76 74 71 68 64 59 54
46 46 47 48 49 50 51 52 52 53 54 55 56 57 58 61 63 65 67 69 70 73 75 77 79 81 83 84 85 85 85 84 83 82 79 74 70 66 63 58 54 50 45
46 46 47 48 49 50 51 52 53 54 55 56 57 59 61 64 66 68 70 72 74 76 78 81 82 82 83 85 84 83 81 79 77 75 71 66 61 57 54 50 46 42 38
46 47 48 49 49 50 51 53 53 55 56 57 59 62 64 67 70 72 75 77 78 79 81 82 82 83 83 83 82 80 76 72 69 65 61 57 53 49 46 43 39 37 33
46 47 48 49 50 51 52 53 54 56 58 60 62 65 68 71 74 76 79 81 81 81 81 81 82 82 81 80 78 74 70 65 60 54 50 47 44 41 39 38 36 34 31
46 47 48 49 50 51 53 54 56 58 61 63 66 68 71 74 77 79 81 83 83 82 81 81 79 78 76 73 70 66 62 57 51 46 42 40 37 35 34 34 33 32 30
45 47 48 49 51 52 54 56 59 62 64 67 70 72 74 77 79 81 82 83 83 83 81 78 75 73 69 65 62 58 54 49 44 40 37 35 33 32 31 31 30 30 29
46 47 48 50 52 54 57 59 62 65 68 71 74 75 77 79 80 82 82 82 82 80 77 74 70 66 62 58 55 51 47 43 39 37 34 32 31 30 29 29 29 28 28
46 48 50 52 54 57 59 62 66 69 72 74 76 79 80 80 81 82 81 80 78 75 72 68 63 59 56 52 48 44 41 38 36 33 32 30 29 29 28 27 27 26 25
48 50 52 54 57 60 63 66 69 72 75 77 80 82 82 82 82 82 80 77 73 70 67 62 57 53 49 45 42 38 36 34 33 31 30 28 27 26 26 25 24 24 23
50 52 55 57 60 63 66 69 71 74 77 79 82 83 84 83 81 78 75 71 68 65 61 56 51 48 44 40 36 34 32 32 30 29 28 27 25 24 23 23 22 22 22
53 55 58 61 64 67 70 73 74 76 78 80 82 83 83 80 77 74 70 66 62 59 55 50 46 43 39 36 33 31 30 29 28 28 26 25 24 23 22 22 21 21 21
56 59 62 65 68 71 74 76 78 80 80 80 80 80 79 76 72 68 65 61 57 53 50 46 43 39 36 33 31 29 28 27 27 26 25 23 22 22 21 21 21 21 20
59 62 65 68 71 74 76 78 80 82 82 81 78 76 73 70 66 63 60 57 52 48 45 42 39 36 33 31 30 28 27 26 25 24 23 22 21 21 21 21 21 20 20
62 65 68 71 74 76 79 81 82 83 82 79 76 72 68 64 60 57 53 50 47 44 41 38 35 33 31 30 28 26 26 25 24 23 22 22 21 21 20 20 20 20 20
66 68 72 75 77 79 81 83 83 81 79 75 71 67 63 59 55 51 48 45 42 40 37 35 32 30 29 27 26 25 24 24 23 22 22 21 21 21 20 20 20 20 20
69 72 75 78 80 82 83 82 80 78 74 70 65 60 57 54 51 47 44 41 39 37 35 32 29 28 27 26 25 24 23 23 22 22 21 21 21 20 20 20 20 20 20
73 76 78 80 82 82 81 79 76 72 68 64 60 56 52 49 46 43 40 38 36 34 32 29 27 26 25 24 24 22 22 22 22 21 21 21 21 21 20 20 20 20 20
77 79 81 81 81 80 77 74 70 67 63 59 55 51 48 45 41 39 37 35 33 31 29 27 26 25 24 23 22 22 21 21 22 21 21 21 21 20 20 21 21 21 21
80 81 81 80 78 76 72 68 65 61 57 53 49 46 43 40 38 36 34 33 31 29 27 26 25 24 23 22 22 22 22 22 22 21 21 21 20 21 21 21 21 21 21
81 80 79 76 74 70 67 63 60 55 51 47 45 42 39 37 35 33 32 30 29 27 26 24 23 22 22 21 21 22 22 22 22 22 21 21 21 21 21 21 21 22 22

GEFSGL_500_meanwind_096.txt.gz
Wind_Speed
32 33 34 35 37 39 40 42 44 45 46 47 47 48 49 49 49 50 50 51 52 52 53 54 55 56 57 59 61 63 65 67 68 68 71 73 75 77 78 79 81 82 82
33 34 35 36 38 40 42 43 44 45 46 47 47 48 49 49 50 50 51 52 53 53 55 55 56 58 60 62 65 67 69 71 73 74 74 77 79 81 82 83 84 85 85
34 35 36 37 39 41 42 43 45 46 46 47 48 49 49 50 51 52 52 53 54 55 56 58 59 62 64 66 69 71 73 75 77 78 78 79 81 82 83 83 84 84 83
35 36 37 38 40 41 43 44 45 46 47 48 48 49 50 51 51 52 53 54 55 57 59 61 63 66 68 71 73 75 77 78 80 81 81 81 81 82 82 82 81 79 78
36 37 38 39 41 43 44 45 46 46 47 48 49 50 50 51 52 53 54 56 58 59 62 64 67 69 72 74 76 78 79 80 81 83 83 82 80 79 78 77 75 72 70
36 38 39 41 42 43 44 45 46 47 48 49 49 50 51 52 54 55 57 58 60 63 65 68 70 73 75 77 78 79 81 82 83 83 81 79 77 75 73 71 69 66 62
37 39 40 41 42 43 44 45 46 47 48 48 49 50 52 54 55 57 59 61 64 67 69 71 74 75 77 79 79 79 80 81 81 80 77 74 71 68 67 65 62 59 53
38 39 40 41 42 43 44 45 46 47 48 49 50 52 54 55 57 60 62 65 68 70 72 74 76 77 78 79 79 79 78 77 75 73 71 68 66 64 62 59 54 49 44
38 39 40 41 42 43 44 45 46 47 48 50 51 53 55 58 60 63 66 69 70 72 74 76 77 78 79 80 79 78 75 72 69 67 65 63 61 58 55 51 46 42 37
38 39 40 41 42 43 44 45 47 48 49 51 53 55 58 61 64 67 69 72 73 75 76 77 78 78 78 78 77 74 70 67 65 62 61 58 54 51 47 43 40 37 34
38 39 40 41 42 44 45 46 48 49 51 53 55 58 61 64 66 69 72 74 76 77 77 78 78 77 76 74 72 69 66 64 61 59 55 51 47 43 40 37 35 33 30
39 40 41 42 43 44 45 47 49 51 53 56 58 61 64 66 69 71 73 76 78 79 79 78 76 74 72 70 68 65 63 60 57 53 49 44 40 36 34 32 31 29 27
39 40 41 42 43 44 46 48 51 53 56 59 62 64 66 69 71 73 75 77 78 79 78 76 74 71 69 66 63 60 58 55 51 47 42 37 34 32 30 29 28 26 24
39 40 41 42 44 46 49 51 54 57 59 62 65 67 69 71 73 75 77 78 78 78 76 73 71 68 65 61 57 54 52 49 45 41 36 33 31 30 29 27 25 23 22
40 41 42 44 46 49 51 54 57 59 63 65 68 70 72 74 76 78 79 79 78 77 74 71 67 63 59 55 52 49 46 42 39 35 32 30 29 28 26 24 22 21 20
41 43 45 47 49 52 55 57 60 63 65 68 71 74 75 77 78 79 79 78 76 74 70 66 62 58 53 50 46 43 40 37 34 32 30 28 27 25 23 22 20 19 18
43 45 48 50 53 56 58 61 63 65 68 71 74 76 77 78 79 79 77 75 72 69 66 61 57 52 48 45 42 38 36 34 32 30 28 26 24 23 21 20 19 18 17
46 48 51 54 56 59 62 64 67 69 71 73 75 77 78 79 78 77 74 72 68 64 60 56 51 47 43 40 38 35 33 32 30 28 26 24 22 20 19 18 18 17 16
49 51 54 57 60 62 65 68 70 73 74 75 76 77 77 77 75 72 70 67 62 58 54 50 45 41 39 36 34 33 31 29 27 25 23 22 20 19 18 17 17 16 15
52 54 57 60 63 65 68 71 73 75 76 76 76 76 75 73 70 67 64 60 56 52 47 43 39 37 35 33 31 30 28 26 24 23 21 20 19 18 17 17 16 15 15
55 57 61 63 66 68 71 73 75 76 76 75 74 73 72 70 66 62 57 54 50 45 41 38 35 34 32 30 29 27 26 24 22 21 20 18 17 17 16 16 15 15 14
58 61 63 66 68 70 73 74 75 75 73 72 72 71 68 65 60 56 51 48 44 41 38 36 33 31 30 28 27 25 24 22 20 19 18 17 17 16 16 15 15 15 15
61 63 65 67 71 73 74 74 74 73 72 71 70 66 62 58 54 50 47 44 41 38 35 33 31 29 28 27 25 24 22 20 19 18 18 17 16 16 16 15 15 15 15
63 65 68 71 73 73 74 73 72 71 70 68 64 60 56 53 50 47 44 40 37 34 33 31 28 27 26 24 23 21 20 19 18 17 17 16 16 16 16 15 15 15 15
65 68 71 73 73 73 72 70 70 69 66 62 58 54 51 49 46 43 39 36 33 31 29 27 26 25 23 22 20 19 18 17 17 17 17 17 17 17 16 16 16 15 15
67 70 72 72 72 71 70 69 67 64 60 55 52 50 47 44 41 38 35 32 30 28 26 24 23 22 21 20 19 18 18 18 18 18 18 18 18 18 17 17 17 17 17

GEFSGL_500_meanwind_102.txt.gz
Wind_Speed
32 33 33 33 34 35 36 36 37 38 40 40 42 44 45 46 47 48 48 49 49 49 49 50 50 51 51 52 54 55 57 59 60 61 64 67 69 71 73 75 76 77 78
32 32 33 33 34 35 36 37 38 39 40 41 43 45 46 47 48 48 49 49 49 50 50 51 51 52 53 55 57 59 61 63 65 66 68 71 73 74 76 77 78 79 79
32 33 33 34 35 36 36 37 39 40 41 43 45 46 47 48 48 49 49 49 50 51 51 52 53 55 56 58 60 63 65 67 70 72 72 73 74 76 77 77 77 76 74
32 32 33 34 35 36 37 38 40 41 42 44 45 47 47 48 48 49 50 51 51 52 53 54 56 58 59 62 64 66 69 70 73 74 75 74 75 76 77 76 73 70 68
32 32 33 34 35 36 37 39 41 42 43 44 46 46 47 48 49 50 51 52 52 54 55 57 59 61 63 65 68 69 71 73 75 76 76 75 75 75 74 71 68 66 64
32 33 34 34 35 37 38 40 41 42 44 45 45 46 47 49 50 51 52 53 55 56 58 60 62 64 66 68 69 71 74 76 77 77 76 75 74 71 69 67 66 64 61
32 32 33 34 36 37 38 40 41 43 43 44 45 47 48 50 52 53 54 56 57 59 61 63 65 67 68 70 71 73 75 77 77 77 76 73 70 67 67 65 63 60 57
32 33 34 35 37 38 39 41 42 42 43 45 46 48 49 51 53 54 56 58 60 62 64 66 67 69 70 72 73 74 75 75 75 75 73 69 67 65 64 62 59 56 52
33 34 35 36 37 38 40 41 42 43 44 46 48 49 51 53 55 57 59 61 63 65 67 68 69 71 72 74 75 75 74 73 73 71 69 66 64 62 60 58 54 51 46
33 34 35 36 38 39 40 41 42 44 45 47 49 51 52 55 57 59 62 64 66 67 68 69 71 73 73 74 75 75 74 72 70 67 64 62 59 56 54 51 48 44 40
34 35 36 37 39 40 40 42 43 45 46 48 50 52 54 57 59 62 64 67 68 68 69 70 71 73 73 74 74 74 72 70 66 63 59 57 54 51 48 45 42 39 36
34 35 37 38 39 40 41 43 44 46 48 49 51 54 56 59 61 64 66 67 68 69 70 70 71 72 72 73 72 71 69 66 63 59 56 52 49 45 42 40 37 35 33
35 36 37 38 39 41 42 44 45 47 49 51 54 56 58 60 63 66 67 68 69 70 70 70 71 71 71 70 68 67 65 62 59 55 51 47 44 40 37 35 33 32 30
35 36 37 39 40 42 43 45 46 49 52 54 56 58 60 63 65 67 68 69 70 70 71 71 72 71 70 68 65 63 60 57 53 49 45 41 38 36 34 32 31 29 27
36 37 38 40 41 43 44 46 49 51 54 56 59 61 63 65 67 69 70 70 71 71 72 72 71 69 67 65 62 58 54 50 46 43 39 36 34 33 31 30 28 26 24
37 38 40 41 43 44 46 49 51 54 57 59 61 63 65 68 69 70 71 71 71 72 72 70 68 66 64 61 57 52 48 44 40 37 35 33 31 29 28 26 24 23 21
38 40 41 43 45 47 49 51 54 56 58 60 63 65 68 70 70 71 71 71 70 70 69 67 65 63 60 55 51 46 43 39 36 34 32 30 28 26 24 23 22 20 18
40 41 43 45 47 49 52 54 56 59 60 62 65 67 69 70 71 71 70 69 68 67 65 63 61 58 54 50 46 42 39 36 33 31 29 27 25 23 22 20 19 17 16
41 43 45 47 49 51 54 57 59 61 63 65 66 68 70 71 70 70 69 68 66 63 61 59 56 52 49 46 42 38 35 32 29 28 26 24 22 21 20 19 17 15 14
43 44 46 49 51 54 57 60 62 63 65 67 68 69 70 70 69 68 67 65 62 59 56 53 50 47 44 41 37 34 30 28 26 25 23 21 20 19 18 16 15 14 13
44 46 49 51 54 57 60 62 63 65 67 68 69 70 71 70 67 65 63 61 58 55 51 48 45 43 40 36 33 29 26 25 24 22 21 19 18 17 16 14 14 13 13
46 48 51 54 57 60 62 63 65 66 68 68 69 70 69 67 65 62 59 56 52 49 46 44 42 39 35 32 29 26 24 23 21 20 19 18 17 15 15 14 14 13 12
48 51 53 56 59 61 63 65 66 67 67 68 69 68 66 64 61 57 53 50 47 44 42 40 37 34 31 29 26 24 22 21 20 18 17 16 15 15 14 14 14 13 12
50 53 55 58 61 63 64 65 66 66 67 67 66 65 62 59 55 51 47 45 43 41 39 36 33 30 28 26 24 21 20 19 18 17 16 15 15 14 14 14 14 13 13
52 55 57 60 62 63 65 65 65 65 66 65 64 61 58 54 50 46 44 42 39 37 35 32 30 27 25 23 22 20 19 18 17 16 15 15 15 15 14 14 14 13 13
54 56 58 61 63 64 65 64 64 65 65 63 60 57 53 49 46 43 40 38 36 34 31 29 27 26 24 23 21 20 18 17 16 15 15 15 15 14 14 14 13 13 13

GEFSGL_500_meanwind_108.txt.gz
Wind_Speed
32 32 32 33 33 33 34 34 35 35 36 37 37 38 39 40 41 42 43 45 45 46 47 48 49 50 51 52 52 53 54 55 56 56 59 61 63 65 67 69 70 72 73
31 31 31 32 32 33 33 34 35 35 36 37 37 38 39 40 42 43 44 45 46 47 48 49 50 51 52 53 54 55 57 59 61 61 62 64 66 68 69 70 72 72 72
30 31 31 31 32 32 33 33 34 35 36 37 37 38 39 41 42 43 45 46 47 48 49 51 52 53 54 55 57 58 60 62 64 65 66 67 69 70 71 72 72 72 72
30 30 30 31 31 32 32 33 33 34 35 36 37 38 40 41 43 44 46 47 48 49 51 52 53 55 56 58 59 61 63 65 66 68 69 69 70 71 72 72 71 71 71
29 29 30 30 31 31 31 32 33 34 35 36 38 39 40 42 44 45 46 48 49 50 52 53 55 57 58 60 63 64 66 67 68 70 70 70 70 72 72 72 71 70 70
29 29 30 30 30 31 31 32 33 35 36 37 39 40 41 43 45 46 48 49 50 51 53 55 57 59 61 63 65 67 68 70 71 71 71 72 72 72 71 71 70 69 67
29 29 29 30 30 31 32 33 34 36 37 38 39 40 42 44 45 47 48 49 51 53 54 56 59 61 63 65 67 68 69 71 71 72 72 72 72 71 71 69 68 66 64
29 29 29 29 30 31 33 34 35 36 37 39 40 41 42 44 46 47 49 51 52 54 56 58 60 63 65 67 68 69 70 70 71 72 72 72 71 71 69 66 64 61 58
28 29 29 30 31 32 33 34 36 37 38 39 40 42 43 45 47 49 50 52 53 55 57 60 62 64 67 69 70 70 69 69 71 71 71 70 69 67 65 62 59 56 52
29 29 30 31 32 33 34 35 36 37 38 39 40 42 44 46 48 50 51 52 54 57 59 62 64 66 68 69 70 70 70 70 69 69 67 66 65 63 61 59 55 50 46
29 30 30 31 32 33 34 35 36 37 38 40 41 43 45 47 49 51 53 55 57 59 61 63 66 68 69 70 71 71 70 69 67 66 64 63 61 59 57 53 48 44 41
29 30 31 31 32 33 35 35 36 38 39 41 42 44 47 49 50 52 55 57 59 61 63 66 67 68 70 71 71 70 68 67 65 63 62 60 57 54 50 45 42 40 38
29 30 31 32 33 34 35 36 37 39 40 42 44 46 48 50 52 54 57 59 61 63 65 67 68 69 70 69 68 66 65 64 62 61 58 55 52 48 43 40 38 36 34
30 31 31 33 34 35 36 37 38 40 42 43 46 48 50 52 54 56 58 61 63 65 66 67 68 68 67 66 64 63 62 61 59 57 54 50 46 42 38 36 34 32 30
31 32 32 33 34 35 37 38 40 41 43 45 47 50 51 53 56 58 60 62 64 66 66 67 67 66 65 63 61 60 59 57 54 51 48 44 40 37 34 31 30 28 26
31 32 33 34 35 36 38 40 41 43 44 47 49 52 53 56 58 60 62 63 65 66 67 67 66 64 62 59 57 56 54 51 48 46 43 39 35 32 29 27 25 24 22
32 32 34 35 36 38 39 40 42 44 46 49 51 53 55 58 59 61 62 63 65 66 66 65 63 60 58 55 54 52 49 46 44 41 38 34 30 27 25 23 21 20 19
32 33 34 36 37 38 40 41 43 45 47 50 53 55 57 59 60 61 62 64 65 65 64 62 59 56 54 52 50 47 44 42 39 36 33 29 26 23 21 19 18 17 16
33 34 35 37 38 39 40 42 44 47 49 52 54 57 59 60 61 62 63 64 64 63 61 58 55 53 51 48 45 42 40 38 35 32 28 25 22 20 18 17 16 15 15
34 35 36 37 38 40 42 44 46 48 51 53 56 58 60 61 61 62 63 63 63 61 58 55 52 50 47 44 41 38 36 34 31 28 25 22 19 17 17 16 15 14 13
34 35 36 38 39 41 43 45 48 50 52 55 58 59 60 60 61 62 62 62 61 58 54 52 49 45 42 39 37 34 32 30 27 24 21 19 17 17 16 15 14 13 12
35 36 37 39 40 42 44 47 49 51 54 57 58 59 60 60 61 61 61 60 58 55 51 47 44 41 38 36 34 32 29 27 24 22 20 18 17 16 15 14 13 12 11
36 37 38 40 42 44 46 48 51 53 56 58 58 59 59 60 60 60 60 58 55 51 47 43 40 37 35 33 31 29 27 25 22 20 19 17 16 15 14 13 13 12 11
36 38 39 41 43 45 47 49 52 54 57 58 58 59 59 59 60 59 58 55 51 47 43 40 37 34 32 31 29 27 24 22 20 19 18 17 16 15 14 13 12 12 11
37 39 40 42 44 47 48 51 53 55 57 58 58 58 59 59 59 58 55 51 47 44 40 37 34 32 30 29 27 24 22 20 19 18 17 16 15 14 13 13 12 11 10
38 40 42 44 46 47 49 52 54 56 57 57 58 58 59 58 57 54 50 47 44 40 37 34 31 29 27 26 24 22 20 19 18 17 16 15 14 14 13 12 11 11 10

GEFSGL_500_meanwind_114.txt.gz
Wind_Speed
34 34 34 34 34 34 35 35 35 35 35 35 35 36 36 37 37 38 39 40 42 43 44 45 47 48 49 51 52 54 55 56 56 55 57 59 61 62 64 66 68 68 69
33 33 33 33 33 33 34 34 34 34 35 35 35 35 36 36 37 38 39 41 42 44 45 46 48 49 50 52 53 55 56 57 58 58 59 62 64 66 68 69 69 70 71
32 32 32 32 32 32 32 32 33 33 33 34 34 35 36 37 38 39 40 42 43 44 46 47 49 50 52 53 54 56 57 59 61 61 63 65 67 69 70 70 71 71 72
31 31 31 31 31 31 31 32 32 33 33 33 34 35 36 37 38 40 41 43 44 45 47 49 50 52 53 54 56 57 59 61 63 64 66 68 69 70 71 71 71 71 70
30 30 30 30 30 30 31 31 32 32 33 34 35 36 37 38 39 40 42 43 45 46 48 49 51 52 54 55 57 59 61 63 65 67 68 70 70 71 71 71 70 69 68
29 29 29 30 30 30 31 31 31 32 33 34 35 36 37 38 40 41 43 44 45 47 48 50 51 53 55 57 59 61 63 65 67 69 70 71 70 71 71 71 70 68 67
29 29 29 29 30 30 31 31 32 33 34 35 36 37 38 39 40 42 43 44 46 47 49 50 52 55 56 58 60 62 64 67 69 71 71 71 71 71 71 70 69 68 66
28 28 29 29 30 30 31 32 33 33 34 34 36 37 38 39 41 42 43 45 47 48 49 51 54 56 57 59 61 64 66 68 70 70 70 71 71 71 70 69 67 64 62
28 28 29 29 30 30 31 32 33 33 34 35 36 37 38 40 41 43 44 46 47 49 51 53 55 57 59 61 63 65 66 67 68 69 70 71 70 69 69 66 63 61 58
28 29 29 29 30 31 31 32 32 33 34 35 36 37 39 40 41 43 45 46 48 50 52 54 56 59 61 63 65 66 67 67 68 69 69 69 67 65 63 61 59 57 54
29 29 30 30 31 31 31 32 33 33 34 35 36 38 39 40 42 44 46 47 49 51 53 56 58 61 63 64 65 67 68 68 68 68 67 65 62 60 58 56 55 53 50
29 30 30 30 30 30 31 32 33 34 34 35 36 38 39 41 42 44 46 48 50 53 55 58 60 62 63 64 66 67 67 66 66 65 63 60 57 55 53 52 50 48 44
29 29 30 30 30 31 31 32 33 33 34 35 36 38 39 41 43 45 48 50 52 55 57 59 61 62 63 65 65 65 65 65 64 61 58 55 52 50 48 47 45 41 37
28 28 29 30 30 30 31 32 32 33 34 35 37 38 40 41 44 46 49 51 54 56 58 60 61 62 63 64 64 63 63 62 59 56 53 50 48 46 44 42 39 35 31
28 28 29 29 30 31 31 32 32 33 34 36 37 39 41 43 45 48 50 53 55 57 59 60 61 61 63 63 62 61 59 58 55 52 49 46 44 42 40 37 34 30 28
28 29 29 30 30 31 31 32 33 34 35 37 38 40 42 44 46 49 52 54 56 58 59 60 60 61 61 61 59 58 56 54 52 49 45 43 41 39 36 33 30 27 25
28 29 29 30 30 31 31 32 33 34 36 37 39 41 43 45 48 50 52 55 57 58 59 59 60 61 60 59 57 55 53 51 49 45 42 39 37 35 32 30 27 24 22
28 29 29 29 30 31 31 32 34 35 36 38 39 41 43 46 49 51 53 56 58 58 59 59 60 59 58 57 55 53 51 48 45 41 39 36 34 32 29 27 24 22 20
28 28 29 29 30 31 32 33 34 35 37 38 40 42 45 47 49 52 54 57 58 58 58 59 59 58 56 55 53 51 48 44 41 38 36 33 31 29 26 23 21 20 19
28 29 29 30 31 31 32 33 34 36 37 39 41 43 45 48 51 53 55 57 57 57 58 58 57 56 55 53 51 48 44 41 38 36 33 31 28 26 23 21 20 18 17
28 29 29 30 30 31 32 33 35 36 38 40 42 44 46 49 52 54 56 57 57 57 57 57 56 55 53 51 48 44 40 38 36 33 30 27 25 23 21 19 18 17 16
28 28 29 30 31 32 33 34 35 37 39 41 43 45 47 50 52 54 56 57 57 56 56 56 55 52 50 47 44 40 38 35 33 29 27 25 23 21 19 18 17 16 16
28 29 29 30 31 33 34 35 37 38 40 42 44 46 48 51 53 55 57 56 56 55 55 54 52 50 47 44 40 37 35 32 29 26 24 22 21 20 18 17 16 16 15
28 29 30 31 32 33 35 36 37 39 41 43 45 47 50 52 54 56 57 56 55 54 53 52 50 48 45 41 38 35 32 29 27 24 23 21 20 19 18 17 16 15 15
29 30 31 32 33 34 35 37 39 40 42 44 46 48 51 53 55 56 56 55 54 52 51 50 48 46 42 38 35 32 29 27 25 23 22 21 19 18 17 16 16 15 14
30 31 32 33 34 35 36 38 40 41 43 45 47 49 52 54 55 56 56 54 52 51 50 48 46 43 39 36 33 30 28 26 24 23 21 20 18 18 17 17 15 14 13

GEFSGL_500_meanwind_120.txt.gz
Wind_Speed
36 36 35 34 34 34 34 34 34 34 34 34 33 33 33 34 34 34 35 36 37 38 39 40 42 44 45 46 47 48 50 52 53 53 55 56 58 60 61 63 64 65 66
35 35 34 34 34 34 34 34 33 33 33 33 33 33 33 34 34 34 35 36 37 39 40 41 43 44 46 47 47 49 51 53 54 55 57 59 60 62 64 66 66 67 68
35 34 34 33 33 33 33 33 33 33 32 32 33 33 33 34 34 35 36 37 38 39 41 42 44 45 46 47 48 50 52 54 56 58 59 61 63 65 66 67 68 69 69
34 34 33 33 33 33 32 32 32 32 32 32 32 33 33 33 34 35 36 37 38 40 41 42 44 45 46 48 50 52 54 56 58 60 62 64 65 67 67 68 68 69 69
33 33 32 32 32 32 31 31 31 31 31 32 32 32 33 33 34 35 36 37 38 40 41 42 44 45 47 49 51 53 55 58 60 62 64 66 67 67 68 68 68 69 69
32 32 31 31 31 31 31 30 30 30 30 31 31 32 33 33 34 35 36 38 39 40 41 42 44 46 48 50 52 54 57 60 62 64 66 67 67 68 67 67 67 67 66
32 31 31 30 30 30 30 30 29 30 30 30 31 32 32 33 35 36 37 38 39 40 41 43 45 47 49 51 53 56 59 62 64 66 67 67 67 66 66 66 65 65 64
31 30 30 29 29 29 29 29 29 29 30 30 31 32 33 34 35 36 37 38 39 41 42 43 45 48 50 53 55 58 61 63 65 66 67 66 65 65 64 64 63 62 59
30 29 29 29 28 28 28 28 28 29 30 31 32 33 34 34 35 36 37 38 40 41 42 44 47 49 52 54 57 60 62 63 64 65 65 64 63 63 62 62 60 58 55
29 29 28 28 28 28 28 28 29 30 30 31 32 33 34 34 35 36 38 39 40 41 43 45 48 51 53 56 58 61 62 63 64 64 63 62 61 60 60 59 57 54 52
29 29 28 28 28 28 28 29 29 30 30 31 32 33 34 35 36 37 38 39 40 42 44 46 49 52 54 57 59 61 62 62 63 63 61 60 58 58 57 55 52 50 48
29 29 28 28 28 28 28 29 29 30 31 32 32 33 34 35 36 37 38 39 41 43 45 47 50 52 55 58 60 60 61 62 62 61 59 57 56 55 53 51 48 47 44
29 29 29 29 28 28 29 29 30 30 31 32 33 33 34 35 36 37 38 39 41 43 45 48 50 53 56 58 59 60 61 61 61 59 57 56 55 52 50 47 45 43 41
29 29 28 28 28 28 29 29 30 31 31 32 33 33 34 35 36 37 38 40 41 43 46 48 51 54 57 58 58 60 61 60 59 57 55 54 51 48 46 44 42 40 37
29 29 28 28 28 29 29 29 30 30 31 31 32 33 33 34 35 36 38 40 42 44 47 49 52 55 57 57 58 59 60 59 57 56 53 50 47 45 43 41 39 36 33
29 29 29 28 29 29 29 30 30 30 31 32 32 32 33 34 35 37 39 41 42 45 47 50 53 55 56 57 58 59 58 57 56 53 49 47 44 42 40 38 36 33 30
29 29 28 28 29 29 29 30 30 30 31 31 32 32 33 34 36 37 39 41 43 45 48 51 54 56 56 57 57 57 57 56 53 49 46 44 42 40 38 36 33 31 28
29 29 28 28 29 29 29 29 29 30 30 31 31 32 33 35 36 38 40 42 44 46 49 52 54 55 56 57 56 56 55 53 50 47 45 42 40 38 36 33 31 28 26
28 28 28 28 28 28 28 29 29 29 30 30 31 32 33 35 37 38 40 42 44 47 50 52 54 55 56 56 55 54 53 51 49 46 43 40 38 36 33 31 28 26 24
28 28 27 27 27 27 28 28 28 29 29 30 31 32 34 35 37 38 40 43 45 48 50 52 54 55 55 54 54 53 51 50 47 43 41 38 36 33 31 28 26 24 22
27 27 27 27 27 27 27 27 27 28 29 30 31 32 34 35 37 39 41 44 46 49 51 52 54 54 54 54 53 51 50 48 45 42 39 37 34 30 28 26 24 22 20
27 27 26 26 27 26 26 26 27 28 29 30 31 32 34 36 38 39 42 44 47 49 51 53 54 54 54 53 52 50 49 46 43 40 37 34 31 27 25 23 22 21 19
26 26 26 26 26 26 26 26 27 28 29 30 31 33 34 36 38 40 43 45 48 49 51 53 54 54 54 53 51 48 46 44 40 37 35 31 27 25 23 22 21 19 18
26 26 26 26 25 25 26 26 27 28 29 30 32 33 35 37 39 41 44 46 48 50 52 53 54 54 53 51 48 46 44 41 38 35 31 28 25 23 22 21 20 19 18
26 26 25 25 25 25 26 27 27 28 30 31 33 34 36 38 40 43 45 47 49 50 52 53 54 53 52 49 46 43 41 39 36 32 29 26 24 23 22 21 19 18 17
26 25 25 25 25 26 26 27 28 29 30 32 34 35 37 39 42 44 46 47 49 51 52 53 52 52 50 47 44 42 40 37 33 30 27 25 24 22 21 20 18 17 16

GEFSGL_500_meanwind_126.txt.gz
Wind_Speed
41 40 39 39 38 37 37 36 35 34 34 34 35 34 34 33 34 34 35 36 36 37 39 40 41 42 42 43 44 46 47 49 50 51 53 54 56 59 61 63 64 65 66
42 41 40 39 38 38 36 36 35 34 34 34 34 34 33 33 34 34 34 36 37 38 39 40 41 42 42 43 45 47 48 50 51 53 54 57 59 61 63 64 65 66 66
42 42 40 40 39 37 36 35 34 34 34 34 33 32 32 33 33 34 35 36 37 38 39 40 41 42 43 44 46 47 49 51 53 55 56 58 61 62 64 65 66 66 66
41 40 40 39 38 37 36 34 34 34 34 33 32 32 32 33 33 34 35 36 37 38 39 40 41 42 43 45 47 49 51 52 54 56 58 60 62 63 65 66 66 66 65
41 40 39 38 37 36 34 34 34 33 32 32 32 32 32 32 33 34 35 36 37 38 39 41 42 42 44 46 48 50 51 53 55 57 59 61 62 65 66 66 65 63 62
40 39 37 36 35 35 34 34 33 32 31 31 31 31 32 32 33 34 35 36 37 38 39 40 41 43 44 46 48 50 52 54 56 58 60 62 64 65 66 65 64 62 60
38 37 36 35 35 34 33 32 32 31 30 30 31 31 31 31 33 34 35 36 37 38 39 40 41 43 45 47 49 51 52 55 57 59 61 63 65 65 64 63 62 61 59
36 35 34 34 33 32 31 31 30 30 29 29 30 30 31 31 32 33 35 36 37 38 39 40 41 43 45 47 49 50 52 55 57 59 62 64 64 64 63 62 60 58 56
35 34 33 32 31 31 30 30 29 29 29 29 29 30 31 31 32 33 35 36 37 38 39 40 41 43 45 48 49 51 53 56 58 60 62 63 63 62 61 60 58 55 53
34 33 32 32 31 30 30 29 29 28 28 28 29 29 30 31 32 33 34 35 36 37 39 40 42 44 45 48 49 51 54 56 58 60 61 62 62 61 60 58 55 53 51
34 32 32 31 31 30 29 28 28 27 27 28 29 29 30 31 32 33 34 35 36 37 39 41 42 44 45 48 50 52 55 56 58 60 61 60 60 59 58 56 54 52 49
33 32 31 31 30 29 28 27 27 27 27 28 28 29 30 31 32 33 34 35 36 38 39 41 42 44 46 48 51 53 55 56 58 60 59 59 58 58 56 55 52 49 47
33 32 31 30 29 28 27 27 26 26 27 28 28 29 30 31 32 33 34 35 37 38 39 41 42 44 46 49 51 53 55 57 59 59 58 58 57 57 55 53 50 48 46
32 31 30 29 29 28 27 26 26 27 27 27 28 29 30 31 32 33 35 36 37 38 39 41 42 44 47 49 51 53 55 57 58 58 57 57 57 55 53 51 49 47 45
32 31 30 29 28 27 27 27 27 27 26 27 28 29 30 31 32 34 35 36 37 38 39 40 42 45 47 49 51 54 56 57 57 56 56 56 56 54 52 50 48 46 44
32 30 29 28 28 27 27 27 26 26 27 27 28 29 30 31 33 34 35 36 37 38 39 40 43 45 47 50 51 54 56 57 56 55 55 56 55 54 51 48 46 44 42
32 31 30 29 28 27 27 27 27 27 27 28 29 29 30 31 33 34 35 35 36 37 38 40 43 45 48 50 52 54 56 56 55 54 55 56 55 53 49 47 44 42 40
33 31 30 29 28 28 28 27 27 27 28 28 29 29 30 31 32 33 34 34 35 37 38 40 43 46 48 50 52 54 55 56 55 55 56 55 54 51 48 44 42 40 38
32 31 30 29 28 28 28 27 27 27 28 28 29 29 30 31 32 33 33 34 35 36 38 40 43 46 49 50 52 54 55 55 55 55 55 54 51 49 46 42 40 38 35
32 31 30 29 29 28 28 27 27 28 28 28 29 29 29 30 31 31 32 33 34 36 38 41 44 47 49 51 53 55 56 55 54 54 53 51 49 47 44 40 38 35 32
32 31 30 30 29 29 28 28 28 28 28 28 28 28 29 29 30 30 31 32 35 37 39 41 45 48 50 51 53 55 55 54 53 52 51 49 47 45 41 38 35 32 29
33 31 31 30 29 29 28 28 28 28 28 27 27 27 28 29 29 30 31 33 35 37 40 42 46 49 51 52 54 55 54 53 51 49 48 47 45 43 39 37 33 29 27
32 32 31 30 29 29 28 27 27 27 26 26 26 27 28 28 29 30 32 33 35 38 40 43 47 50 51 52 54 54 53 51 49 47 46 45 43 41 38 34 30 27 25
32 31 30 30 29 28 27 26 25 25 25 25 26 27 27 28 29 30 32 34 36 39 42 45 48 50 51 52 53 53 51 49 47 45 44 43 41 39 36 32 28 26 24
32 31 30 29 27 26 25 24 24 24 25 25 25 26 27 28 29 31 33 35 37 40 43 46 48 50 51 52 52 52 50 48 45 44 43 41 40 37 34 30 27 25 23
31 30 29 27 26 25 24 24 24 24 24 25 25 26 27 28 30 32 34 36 38 41 43 46 49 50 51 51 51 50 49 46 44 43 41 40 38 36 32 29 26 24 22

GEFSGL_500_meanwind_132.txt.gz
Wind_Speed
42 41 39 38 37 37 36 34 33 33 34 34 33 33 33 33 33 34 34 34 35 35 35 35 36 38 39 40 41 43 45 46 46 47 49 50 51 53 55 57 59 61 63
42 41 40 39 38 37 36 35 34 34 34 34 33 33 33 34 34 34 34 34 34 34 35 35 36 38 39 41 42 43 45 46 47 48 49 50 52 54 56 58 60 62 64
43 42 41 40 39 37 36 36 36 35 35 34 34 34 34 34 34 34 33 34 34 35 35 36 37 39 40 41 42 43 44 46 47 48 50 51 53 55 57 59 61 63 65
44 43 42 40 39 38 37 37 36 35 35 35 35 35 35 34 34 33 33 34 35 35 35 36 37 39 40 41 42 43 44 46 48 49 50 52 54 56 57 60 62 64 64
45 44 43 41 40 40 39 38 37 35 35 36 35 35 34 34 33 33 34 34 34 34 35 36 37 39 40 41 42 43 44 46 47 49 51 53 54 56 59 61 63 63 62
46 44 43 42 41 40 39 38 38 37 36 35 35 35 34 34 33 33 33 33 33 34 35 36 37 38 40 40 42 43 45 46 47 49 51 53 55 57 60 62 62 62 60
44 44 44 42 41 40 39 39 39 38 37 36 35 34 34 34 33 32 32 33 33 33 34 36 37 38 39 40 41 43 45 46 48 50 51 54 56 58 60 62 61 60 59
44 43 43 42 41 40 40 40 39 38 37 36 35 34 34 33 32 32 32 32 32 33 34 35 36 38 39 40 41 43 45 47 49 51 53 55 57 59 60 60 59 59 58
44 44 43 42 41 40 39 38 38 38 37 36 35 33 32 31 31 31 31 31 31 32 33 35 36 37 38 40 42 44 45 47 49 51 53 56 58 59 59 59 58 58 57
44 43 43 42 41 39 38 37 36 36 36 34 33 32 31 30 29 30 30 30 31 31 33 34 36 37 38 40 42 44 45 47 49 52 54 56 58 58 58 58 58 57 57
44 43 42 41 40 38 37 37 36 35 33 32 30 30 29 29 29 29 29 30 30 31 33 34 35 37 38 40 42 44 45 47 49 52 55 57 58 57 57 58 58 57 56
44 42 41 40 39 38 37 37 35 33 31 30 29 29 28 28 28 28 29 29 30 32 33 34 35 37 38 40 41 44 45 47 50 52 55 57 56 56 57 58 57 56 56
43 41 40 39 38 37 36 34 32 31 30 29 29 28 27 27 27 28 28 29 30 31 32 34 35 37 38 39 42 44 46 47 50 53 55 56 55 56 57 57 56 56 55
42 41 39 38 37 35 33 32 30 29 29 29 28 27 26 26 27 27 28 29 30 31 32 33 35 36 37 39 42 43 45 48 51 54 55 55 54 55 57 56 54 54 54
42 41 39 37 35 34 32 31 29 29 29 28 27 26 25 25 26 27 28 29 30 31 32 33 34 36 37 39 41 43 45 48 52 54 55 54 54 55 55 54 53 52 51
41 40 38 36 34 33 32 31 30 30 29 28 27 26 25 26 27 27 28 28 30 30 31 32 34 36 37 39 41 43 46 49 52 54 54 53 54 54 54 52 51 50 49
41 39 38 36 35 34 32 31 30 29 29 27 26 26 26 26 26 27 27 28 29 30 31 32 34 35 37 39 41 44 46 49 52 53 53 53 53 52 52 50 49 49 47
41 40 38 36 34 34 33 32 30 29 28 27 27 26 26 26 26 26 27 28 28 29 31 32 33 35 37 39 42 44 47 49 51 52 52 52 52 51 50 49 48 47 46
41 40 38 36 35 34 33 31 30 30 29 27 26 26 26 25 26 26 27 27 28 30 31 32 34 36 38 40 42 45 47 49 51 51 51 51 50 49 48 48 47 46 43
40 39 37 36 35 34 33 32 31 30 28 27 27 26 25 25 26 26 26 27 29 29 30 32 34 36 38 40 43 45 47 49 50 50 50 50 48 47 47 47 46 44 41
40 39 37 35 34 33 32 32 31 29 28 28 27 26 25 25 25 26 27 27 28 29 30 32 34 36 38 40 43 45 47 48 48 49 49 48 47 46 46 46 44 42 40
39 38 36 34 33 32 32 32 31 29 28 28 26 25 25 25 26 26 27 27 28 29 31 32 33 35 38 40 43 45 46 47 47 48 48 47 46 45 45 44 42 40 38
38 37 36 34 33 32 31 31 30 29 29 27 26 25 26 26 26 26 27 27 28 29 30 31 33 35 38 40 43 44 45 46 46 46 47 47 46 45 44 43 40 38 37
38 37 36 34 33 32 31 30 30 29 28 26 25 25 26 26 26 26 26 27 28 28 29 31 33 35 38 40 42 43 44 45 46 46 46 46 45 44 43 41 39 37 36
37 36 36 34 34 33 32 31 29 28 27 26 26 26 26 25 25 25 25 26 27 28 29 31 33 36 38 40 41 43 44 45 45 45 45 45 44 43 41 39 37 35 34
37 36 36 35 33 33 32 31 29 27 27 26 26 25 25 25 25 25 25 26 27 27 29 31 34 37 38 39 41 42 44 45 45 44 44 43 42 41 39 37 35 34 32

GEFSGL_500_meanwind_138.txt.gz
Wind_Speed
51 50 48 47 46 44 43 41 40 39 38 37 37 37 36 36 35 35 36 36 36 36 36 35 36 37 39 40 41 42 43 44 45 46 47 48 50 52 54 55 57 58 59
52 51 49 48 47 45 43 42 41 40 39 38 38 37 37 36 36 36 36 36 36 36 36 36 37 38 39 40 41 42 43 44 45 46 47 49 51 52 54 56 57 59 60
52 51 50 48 47 45 44 43 41 40 40 39 38 38 38 37 37 36 36 36 37 36 36 36 37 39 39 40 41 42 43 43 45 46 47 49 51 53 55 57 58 60 61
52 51 50 48 46 45 44 43 42 41 40 40 39 39 39 38 38 37 37 36 36 36 36 37 38 38 39 39 41 41 42 44 45 46 47 49 51 53 55 57 58 60 61
51 50 49 48 47 45 45 44 43 41 41 40 40 39 39 38 37 37 36 36 36 36 36 37 37 38 38 39 40 41 42 43 45 46 48 50 52 54 56 57 58 59 61
52 51 49 49 48 47 46 45 44 43 42 41 40 40 39 38 37 36 35 35 36 36 36 36 37 37 38 38 39 41 42 43 44 46 48 50 52 54 56 57 58 59 60
51 51 50 49 49 48 48 47 45 44 43 41 41 40 39 38 37 36 36 36 36 35 35 36 36 37 37 38 40 41 42 42 44 46 48 50 52 54 56 57 58 59 59
51 51 49 48 49 48 48 47 46 45 43 42 41 40 39 38 37 36 36 36 36 35 35 36 36 36 37 38 39 40 40 41 44 46 48 50 52 53 55 56 58 58 59
51 50 50 49 49 48 47 46 46 45 44 42 40 40 39 38 37 36 36 36 35 35 35 35 35 35 36 37 38 38 40 42 44 46 48 50 51 53 55 56 57 57 58
50 50 49 50 49 48 47 46 45 44 43 42 40 39 38 37 36 36 35 35 35 34 35 35 34 34 35 36 37 38 39 42 44 46 48 49 51 53 55 56 56 56 57
50 50 51 50 49 48 47 46 44 44 43 41 40 39 37 36 36 35 35 35 34 34 34 33 33 33 34 35 36 38 39 42 44 46 47 49 50 53 55 55 55 56 56
51 50 50 50 49 48 47 46 44 43 41 39 38 37 36 35 35 35 35 33 33 32 32 31 32 33 34 34 36 37 40 42 44 45 47 48 50 53 54 54 55 56 56
50 51 50 49 48 47 46 45 43 42 40 39 37 36 36 35 34 34 33 31 31 31 31 31 31 32 33 34 35 38 40 41 43 45 46 48 50 52 54 54 55 56 57
49 49 49 49 48 46 45 44 43 41 40 38 37 36 35 34 33 32 31 30 30 30 30 30 30 31 32 33 36 37 39 41 43 44 46 48 50 52 53 54 54 55 55
48 48 49 48 48 47 45 44 42 40 39 38 37 36 34 33 32 31 30 29 29 28 28 29 29 30 32 33 35 37 39 41 42 44 46 48 50 51 52 53 53 54 53
46 47 47 47 46 45 44 43 41 39 39 38 37 36 34 33 31 30 29 28 27 27 27 28 29 30 31 33 35 36 39 40 42 44 46 48 50 51 52 53 53 51 51
45 46 45 45 45 45 43 41 40 38 38 37 37 35 34 33 31 29 28 27 25 26 26 27 29 30 31 33 34 36 38 40 42 44 45 47 49 50 51 52 51 50 49
44 45 45 45 45 44 43 41 40 38 36 36 35 34 33 31 29 27 26 25 25 25 26 27 28 29 31 32 34 36 38 40 42 43 44 46 48 49 50 50 49 47 47
43 44 44 44 44 43 41 40 38 37 36 35 34 33 32 30 28 27 25 25 25 25 26 27 28 29 31 32 33 36 38 40 41 42 44 46 47 48 49 49 47 45 45
42 42 42 43 42 41 40 39 37 36 35 34 33 31 30 29 27 26 25 25 25 26 26 26 28 29 30 32 34 36 38 39 40 42 43 45 46 47 48 46 45 44 45
41 41 41 41 40 40 40 39 37 36 35 33 32 30 29 29 28 26 25 24 25 26 26 27 28 29 30 32 34 35 37 38 40 42 43 45 46 47 46 44 43 43 44
40 40 40 40 40 39 38 38 37 35 34 33 31 30 29 28 27 26 25 25 25 25 26 27 28 29 31 32 33 34 36 38 40 41 42 44 45 45 45 44 43 43 43
38 39 38 38 38 38 38 37 36 35 34 32 30 29 28 27 25 24 24 25 25 25 25 26 28 30 31 31 32 34 36 37 39 41 42 44 44 44 44 43 43 42 42
37 37 36 36 36 36 36 35 34 34 33 32 31 29 28 26 25 24 24 25 25 25 26 27 28 29 29 30 32 34 35 36 38 40 42 43 43 44 44 43 41 40 40
37 36 35 36 35 35 35 34 33 33 32 32 30 29 27 26 25 24 24 23 23 24 26 27 28 28 29 30 32 33 34 36 38 40 42 42 43 43 42 41 39 39 39
36 37 36 35 34 34 34 34 33 32 31 30 29 28 26 26 25 24 23 23 23 24 25 27 27 27 28 29 31 32 34 35 38 40 41 41 41 41 41 39 38 37 37

GEFSGL_500_meanwind_144.txt.gz
Wind_Speed
56 56 56 53 52 50 50 49 49 47 46 45 45 44 43 41 40 39 38 38 38 37 37 37 37 37 38 38 39 39 41 41 42 42 44 45 47 48 49 51 52 54 55
56 57 58 54 52 52 50 49 49 48 47 46 45 44 43 42 41 39 39 39 38 38 38 38 38 38 38 38 39 40 41 42 42 42 43 45 46 48 49 51 53 54 55
55 56 57 55 53 52 51 49 48 48 47 46 45 44 42 41 41 40 39 39 38 38 38 38 38 38 38 39 39 40 41 42 42 43 43 45 46 47 49 51 53 54 55
54 54 55 54 54 52 51 50 49 49 48 47 46 45 43 42 41 40 40 39 38 38 38 38 38 38 39 39 40 40 41 41 42 42 43 44 46 47 49 51 52 53 54
54 54 55 54 53 53 52 50 50 49 48 47 47 46 45 43 42 41 40 39 39 39 38 38 38 38 39 39 39 40 41 41 41 41 43 44 46 47 49 51 52 53 54
52 53 54 54 53 52 51 50 50 49 49 48 47 46 46 44 42 42 40 40 39 38 38 38 38 39 38 39 39 39 39 40 40 42 43 44 46 47 49 51 51 52 54
50 52 53 54 54 53 51 50 49 49 49 48 47 47 46 44 43 42 40 39 39 38 38 38 38 38 38 38 38 38 39 40 40 41 42 44 46 47 49 50 51 52 54
50 51 51 52 53 53 52 51 50 49 48 47 47 46 45 43 42 41 40 39 39 38 38 37 37 37 37 37 38 38 39 39 40 41 43 44 46 47 48 49 50 52 53
49 50 50 52 53 52 52 51 50 49 48 47 46 45 44 43 41 41 40 40 38 38 38 37 37 36 36 36 37 38 38 39 40 41 43 44 45 46 47 48 49 51 53
48 49 50 52 52 52 52 52 51 51 49 47 45 44 44 43 42 41 41 40 39 39 38 37 36 35 35 36 37 38 37 38 40 41 42 43 44 45 45 47 49 51 52
47 49 49 50 51 52 51 50 50 50 49 48 46 45 44 43 43 42 41 40 40 39 38 36 35 35 35 36 36 36 37 38 39 40 41 42 43 44 45 46 49 50 51
46 48 49 50 49 49 49 49 48 47 48 48 47 45 43 42 42 42 41 40 39 38 36 34 34 34 34 34 34 35 37 38 38 39 40 41 42 43 44 46 48 49 50
45 46 47 47 48 49 48 47 47 47 47 47 46 45 43 40 40 40 39 38 37 35 34 34 33 33 33 33 34 35 36 36 37 38 39 40 41 41 43 45 47 49 50
45 46 47 47 47 47 47 46 46 45 44 45 45 44 43 41 39 39 38 37 35 33 32 32 32 32 32 32 33 33 34 35 36 37 38 38 39 40 42 44 46 48 49
45 46 46 48 47 47 47 45 44 43 42 43 42 42 42 41 40 38 36 35 34 32 31 31 31 30 30 31 32 32 33 34 35 36 36 37 38 40 42 44 45 47 48
44 44 45 46 47 47 46 45 44 44 43 42 41 40 40 40 39 38 35 35 33 32 31 30 29 28 29 29 30 31 32 33 34 34 34 36 38 40 41 43 45 46 47
43 44 44 44 45 45 45 45 44 44 44 43 41 40 39 38 38 36 35 34 32 30 29 28 27 27 27 28 29 30 31 32 32 33 34 35 37 39 41 42 44 46 46
42 43 44 44 44 44 44 44 43 43 43 42 41 40 39 37 36 34 34 33 31 30 28 27 26 26 27 28 28 29 30 31 31 32 33 35 36 38 40 42 43 45 45
41 42 42 42 42 43 43 42 42 41 41 41 40 39 38 36 35 34 33 31 30 28 27 26 25 25 26 27 28 29 30 30 30 32 33 34 36 38 39 41 42 43 43
39 40 41 41 41 41 41 40 39 39 40 39 38 37 37 36 35 33 32 30 28 27 26 25 25 25 25 26 28 29 29 29 30 31 32 33 35 37 39 40 41 42 41
39 39 39 39 40 39 39 38 38 37 38 38 37 37 37 36 35 33 31 30 28 27 25 24 24 24 24 25 26 27 28 29 30 31 32 33 35 37 38 39 40 39 39
38 38 38 37 37 37 37 37 37 38 38 37 37 37 36 35 34 33 31 29 26 25 23 23 24 24 24 24 26 26 27 28 29 30 31 32 34 36 37 38 37 37 37
36 36 36 37 37 37 37 37 37 36 37 36 36 35 34 33 33 31 30 28 26 24 23 23 23 23 23 24 26 26 26 27 28 29 30 32 33 35 35 35 35 35 36
35 35 36 37 38 38 37 37 36 36 36 36 35 34 34 33 31 30 29 27 25 24 22 22 22 22 23 25 25 25 25 26 28 29 30 31 33 33 33 33 33 34 34
36 36 36 36 38 38 37 36 35 35 35 35 34 33 32 31 30 28 27 25 24 22 22 21 21 21 23 24 24 24 24 26 27 28 30 31 31 32 32 31 32 33 33
36 36 36 36 37 38 37 35 33 33 34 34 34 33 30 29 28 27 25 24 23 22 21 20 20 21 22 22 22 22 23 25 27 28 30 30 30 30 30 30 31 31 31

GEFSGL_500_meanwind_150.txt.gz
Wind_Speed
47 49 50 51 52 51 51 51 51 49 46 46 45 46 45 45 44 43 42 41 40 39 38 37 37 37 37 38 38 38 39 40 40 41 41 42 44 45 46 47 49 50 52
45 48 50 50 52 51 51 51 51 49 47 47 46 45 44 44 44 43 42 41 40 39 37 37 37 37 37 37 37 38 39 39 40 40 41 42 44 45 46 47 49 50 52
43 47 50 50 50 50 51 51 52 50 48 48 47 45 43 43 43 42 41 41 40 39 38 37 37 36 36 36 37 38 38 39 40 40 41 43 43 44 46 48 49 50 52
43 45 48 50 51 51 51 52 52 51 49 48 46 45 44 42 41 41 40 40 39 39 38 37 36 36 36 37 37 37 38 38 39 40 41 42 43 44 46 48 49 50 51
42 43 46 48 50 50 50 51 52 51 49 47 46 46 44 43 41 41 40 40 39 38 37 37 36 36 36 36 36 37 38 38 39 40 41 42 43 44 46 48 49 50 50
42 44 45 47 49 49 49 49 49 50 49 48 47 46 45 43 42 41 40 40 40 39 38 37 36 35 35 35 36 37 38 38 39 40 41 42 43 45 46 47 48 49 50
41 43 45 47 48 49 49 49 48 48 48 49 46 46 45 44 42 41 41 40 39 38 37 37 35 34 35 35 36 37 37 38 39 40 41 41 43 44 46 47 47 48 49
39 41 42 44 46 47 49 50 49 48 48 48 48 47 45 43 43 41 40 39 38 38 37 37 35 34 35 36 36 37 38 39 39 40 40 41 42 44 45 45 46 47 48
38 40 41 41 43 45 46 48 47 47 47 47 48 48 46 45 43 41 40 39 38 37 37 36 34 34 35 36 36 37 37 38 39 40 40 40 42 43 44 45 45 46 47
38 39 39 39 41 42 43 45 46 46 46 46 46 46 46 45 44 42 41 40 38 37 36 35 35 35 35 35 35 35 35 37 38 39 39 40 41 42 43 43 44 45 46
38 38 39 39 40 41 41 43 44 45 45 45 45 44 44 44 43 42 41 40 38 36 35 34 34 34 34 33 33 33 34 36 37 37 38 39 40 40 41 42 43 44 46
38 38 39 40 40 40 41 41 42 43 44 45 45 44 42 42 42 41 41 39 37 36 35 34 34 33 34 34 33 33 35 36 37 37 38 38 38 39 40 41 42 44 45
37 37 39 40 40 41 40 40 40 41 42 42 43 42 41 40 40 40 40 39 38 37 36 34 34 34 34 34 33 34 35 35 35 36 36 36 37 38 39 40 41 42 43
36 37 38 39 40 40 41 41 40 40 41 40 40 40 41 41 40 39 38 38 38 37 36 35 34 33 34 33 33 34 35 35 35 34 34 35 36 37 38 39 40 40 42
37 37 38 39 40 41 41 41 40 40 40 39 39 38 39 39 38 38 36 35 36 36 35 35 35 35 34 33 33 34 34 34 33 32 33 34 34 36 37 38 39 39 39
36 37 37 38 38 39 40 40 40 41 40 40 39 38 38 37 37 37 36 36 35 34 35 36 35 34 33 33 33 33 32 31 30 30 31 32 33 34 36 36 37 37 37
35 35 37 37 37 38 38 39 40 40 41 40 39 37 37 37 36 36 36 35 34 34 34 34 33 32 32 32 31 30 30 29 28 29 30 31 32 33 34 35 35 35 35
34 35 36 37 37 37 38 38 39 39 39 39 38 37 36 36 36 35 34 34 33 33 33 32 31 30 30 29 28 28 28 28 27 28 28 29 31 32 33 33 33 34 35
33 33 34 35 36 36 37 37 37 38 38 38 37 36 36 36 35 34 34 32 31 31 31 30 29 28 27 26 25 26 26 25 26 26 27 28 30 31 31 31 32 33 34
32 33 34 35 35 36 37 37 37 37 37 36 36 35 35 34 34 32 31 30 29 29 29 28 27 25 24 23 24 23 23 24 24 25 26 27 29 29 28 30 31 32 33
30 32 34 34 34 35 35 36 36 36 36 36 36 35 35 33 32 31 30 28 27 28 28 27 26 24 22 22 22 21 21 22 22 23 25 26 27 27 27 29 30 30 31
30 31 32 34 34 34 34 35 35 36 37 36 35 34 34 33 30 29 29 28 27 27 27 26 25 24 22 22 22 21 21 21 22 23 24 25 25 25 26 27 28 29 29
29 30 32 34 35 35 35 35 35 35 36 36 36 35 33 31 30 29 27 27 26 26 25 24 23 22 22 21 20 20 20 21 21 22 23 24 24 24 25 26 27 27 27
30 31 32 34 35 35 34 33 33 33 33 34 34 34 33 32 31 30 28 27 26 24 23 22 21 21 21 20 20 19 19 20 20 21 22 22 22 22 23 25 26 25 25
28 29 31 32 33 34 34 33 32 32 32 33 33 33 33 32 31 30 30 28 26 25 24 22 21 20 20 19 19 18 18 18 20 20 21 21 21 21 22 23 24 23 23
26 27 29 30 31 32 33 32 31 31 31 32 32 32 31 30 30 30 28 28 26 24 23 21 20 19 18 17 17 17 17 18 18 19 20 19 20 20 21 22 22 22 23

GEFSGL_500_meanwind_156.txt.gz
Wind_Speed
34 35 35 38 42 44 46 48 47 46 46 46 49 49 48 47 46 44 43 42 43 42 42 42 41 39 37 37 37 36 36 37 37 36 36 37 39 41 41 42 43 45 46
32 34 35 37 40 43 46 47 48 46 45 46 46 47 47 46 45 44 43 43 41 40 40 40 39 37 36 36 36 35 36 36 36 36 36 37 39 40 41 42 43 45 46
32 33 35 36 38 41 45 47 47 45 44 46 46 46 47 46 45 44 44 43 42 41 39 39 38 36 36 36 35 35 35 36 36 36 36 37 39 40 40 41 43 44 46
31 32 34 36 37 39 43 45 44 43 43 45 46 46 46 46 45 43 43 42 41 40 38 38 37 36 36 36 35 35 35 36 36 36 36 37 38 39 40 41 42 44 45
31 32 33 35 37 39 43 45 45 42 42 43 44 44 46 46 45 42 41 41 41 39 38 37 36 36 36 36 36 35 35 35 35 36 37 37 37 38 39 40 42 43 45
31 32 33 34 36 37 40 44 45 44 43 44 42 43 45 44 43 41 40 40 40 39 38 37 36 35 36 36 36 36 35 35 36 36 36 36 37 38 39 41 43 43 43
31 33 33 34 35 35 38 41 42 42 43 44 44 43 44 44 43 41 39 40 40 39 38 37 36 36 36 36 36 35 35 35 35 34 34 35 36 37 39 40 41 41 41
31 32 33 34 35 35 36 40 39 39 40 42 44 44 43 43 41 40 40 40 40 40 38 36 36 36 35 35 34 34 34 34 33 33 33 34 36 37 38 39 39 39 39
30 31 33 34 35 35 36 36 39 39 37 39 41 42 43 43 42 42 41 41 40 40 39 37 37 36 36 35 35 34 33 32 32 33 34 35 36 37 37 37 37 37 39
30 31 32 33 34 35 35 36 37 37 36 36 38 41 42 42 42 42 42 41 40 39 39 37 36 35 35 34 34 34 33 33 33 34 34 35 36 36 35 36 36 36 37
29 30 31 31 32 34 34 35 36 37 37 36 37 40 41 41 42 42 43 41 39 39 38 36 35 35 34 33 33 33 33 34 34 33 34 35 35 35 34 35 34 35 35
29 29 30 31 32 33 33 34 35 36 38 38 38 38 39 40 41 41 40 39 39 38 37 36 35 34 33 33 33 33 33 33 33 34 34 34 34 33 32 32 33 33 34
27 28 29 30 31 32 32 32 34 36 37 38 37 37 37 38 39 39 38 38 37 37 36 34 34 34 33 32 31 31 31 31 32 32 32 32 33 32 31 31 32 34 35
26 27 28 28 30 31 31 31 32 35 37 38 37 36 35 36 36 36 36 36 35 36 36 35 35 34 33 32 31 31 31 31 31 30 30 30 30 29 30 31 32 33 34
27 28 28 28 29 30 31 32 31 33 35 37 37 36 36 35 36 36 36 36 35 35 35 34 34 34 32 32 32 33 32 31 30 30 30 29 28 28 29 30 31 31 32
27 28 29 29 29 30 32 32 32 33 35 36 37 36 36 36 36 36 36 35 35 34 35 34 33 34 33 32 32 32 31 29 29 30 29 27 27 27 29 30 30 30 31
28 28 29 30 30 31 32 32 32 33 34 35 36 36 36 36 36 36 35 35 34 33 33 33 32 32 32 31 30 30 29 29 29 28 27 26 26 27 28 29 29 29 30
27 28 29 29 29 30 31 32 33 34 35 35 35 35 35 35 35 35 35 35 34 34 32 32 31 31 30 30 29 29 28 28 27 26 25 25 25 26 27 27 27 27 28
27 27 28 29 30 30 30 30 32 33 34 35 35 36 35 34 33 33 33 33 33 32 31 30 30 29 28 28 28 28 27 26 25 24 23 23 24 25 25 25 26 27 27
26 27 28 28 29 30 30 30 31 32 33 34 34 35 35 34 33 32 32 32 32 32 31 30 29 28 27 27 26 26 25 25 24 23 23 22 23 23 24 24 24 25 25
27 27 27 27 28 29 30 30 30 32 33 34 34 34 33 33 32 32 32 32 32 31 30 30 28 26 26 25 24 24 23 23 23 21 20 20 21 22 22 22 22 22 22
27 27 27 26 27 28 29 30 30 31 32 33 33 33 33 32 31 31 31 31 31 30 30 30 28 27 25 24 23 22 21 21 21 20 20 20 20 20 20 20 20 20 19
26 26 26 26 26 27 27 29 30 31 32 32 32 32 32 32 31 30 30 30 30 30 28 27 27 26 24 23 21 20 19 19 19 19 19 19 19 18 18 18 18 18 19
25 25 26 25 25 26 26 28 29 30 31 31 31 31 31 31 31 30 29 29 30 29 28 26 25 24 23 21 20 19 19 18 18 19 18 18 17 16 17 17 17 17 18
25 25 25 25 24 25 26 28 29 29 29 29 29 30 29 29 29 30 29 29 29 28 27 27 25 24 22 21 19 19 18 17 17 17 17 15 14 14 14 15 15 16 17
24 24 24 24 24 25 26 27 28 29 29 29 29 30 30 29 28 28 29 28 28 27 26 26 24 23 22 20 19 18 17 16 15 15 14 14 14 13 13 14 15 16 16

GEFSGL_500_meanwind_162.txt.gz
Wind_Speed
31 30 31 32 34 36 38 39 40 42 43 45 46 45 45 47 49 48 47 46 46 47 47 45 43 42 43 42 42 40 39 39 39 38 38 39 39 39 40 40 40 41 42
31 30 29 31 34 34 35 37 39 41 42 43 44 43 43 46 48 48 46 45 45 46 46 46 44 42 42 41 40 39 38 39 39 38 38 39 39 39 38 39 40 40 42
30 31 31 31 32 33 34 36 38 39 40 41 41 42 42 45 47 47 45 44 45 46 45 45 44 42 41 40 39 38 38 39 39 39 38 38 39 38 37 38 39 40 42
28 30 31 30 31 33 34 34 35 36 36 38 40 41 41 43 46 45 43 43 42 43 44 44 43 42 40 39 38 38 38 39 39 38 37 38 38 37 37 37 39 39 40
26 27 28 29 30 32 33 32 33 34 35 36 38 39 41 42 43 43 42 42 42 42 42 42 42 42 40 39 39 38 38 37 37 37 37 37 36 35 36 37 38 38 39
25 26 26 27 29 30 31 31 32 33 34 35 36 38 40 41 43 43 42 41 42 42 42 42 41 40 40 41 40 38 38 38 37 37 38 37 35 36 36 37 37 37 37
26 26 26 27 28 29 30 29 30 31 32 35 39 37 38 40 41 41 41 39 41 41 43 42 41 39 40 40 38 37 36 36 36 37 36 35 35 35 36 36 35 36 36
25 24 25 26 27 28 28 29 30 30 31 34 37 36 37 38 38 40 40 39 40 40 41 42 40 39 39 39 38 37 36 37 36 36 36 35 35 34 34 34 34 35 36
25 24 24 25 26 26 26 27 28 29 30 32 35 36 37 36 37 38 38 38 38 39 40 40 39 38 38 38 37 36 36 35 34 35 36 36 34 34 34 34 34 34 35
25 24 24 24 24 24 25 25 26 27 28 30 33 35 35 35 35 36 37 36 36 36 39 40 40 38 37 37 37 36 35 34 34 35 34 34 34 34 33 33 33 33 34
25 24 23 23 23 24 24 24 25 26 27 28 30 33 34 33 34 35 36 36 36 36 37 39 39 38 37 36 35 35 34 33 33 32 32 32 33 33 32 31 32 32 33
24 23 23 23 23 24 24 24 25 25 26 28 29 31 33 33 33 34 35 36 36 35 35 37 38 37 35 34 34 34 33 32 32 31 30 30 30 30 30 30 30 30 31
24 22 22 23 23 23 24 24 24 25 25 27 29 31 32 32 33 34 33 33 35 36 35 35 35 34 34 34 33 32 32 32 31 30 29 29 29 29 29 29 30 30 31
25 24 24 23 23 23 24 25 25 25 25 26 27 29 31 30 32 34 34 33 33 33 33 33 34 35 35 34 33 32 32 31 30 29 29 28 28 28 28 29 29 29 30
26 25 25 24 24 24 25 26 26 27 27 26 27 28 30 30 31 32 32 32 32 32 32 33 34 34 35 34 33 33 32 30 29 28 28 27 27 27 28 29 29 29 30
26 25 25 25 25 25 25 26 26 27 27 27 27 27 28 28 28 29 30 30 31 32 31 31 31 32 32 32 32 32 31 31 30 29 28 26 26 27 28 29 28 28 30
26 25 25 26 26 26 26 26 26 25 26 26 27 27 27 27 27 28 28 29 30 30 30 30 30 29 30 30 31 31 30 30 29 29 28 28 28 28 28 28 27 27 29
26 26 26 26 26 26 26 26 26 25 25 25 26 27 27 26 27 28 28 28 29 30 29 29 28 28 29 29 29 29 28 28 27 27 27 27 27 27 27 27 26 26 27
27 27 26 26 26 25 25 25 25 24 24 24 26 27 27 26 26 27 28 28 28 29 29 29 29 28 28 28 28 27 27 26 25 25 25 25 25 24 23 23 23 23 23
27 27 27 27 26 26 26 25 25 24 24 24 25 27 28 27 27 27 27 28 29 29 29 28 28 28 27 27 26 26 26 25 24 23 23 23 22 21 21 21 21 20 20
27 27 28 27 27 26 26 26 25 25 24 24 25 26 27 27 27 26 27 28 28 28 28 28 27 27 27 26 25 25 25 24 23 22 22 22 21 20 20 20 19 18 19
27 27 27 27 27 27 26 26 26 25 25 25 25 25 26 27 27 27 27 27 28 28 28 28 28 27 25 25 24 24 23 22 21 21 21 20 19 18 18 18 17 17 17
27 27 26 27 27 27 26 26 26 25 24 24 25 25 24 25 26 26 27 27 28 28 28 28 27 27 25 24 24 23 23 22 20 19 20 19 17 17 17 16 16 16 16
27 26 26 27 27 27 27 26 26 25 24 23 24 24 24 24 24 24 25 27 27 28 28 27 26 25 24 23 23 22 21 21 20 19 19 18 17 16 16 15 15 15 15
26 26 25 25 26 26 26 25 25 25 24 23 23 23 23 23 23 23 24 25 26 27 27 26 26 24 23 23 22 21 20 20 19 18 17 16 16 15 14 14 13 13 14
25 25 24 24 24 25 25 24 24 24 24 23 22 22 23 23 23 23 23 23 24 25 25 25 25 24 23 22 22 20 19 18 17 18 17 15 13 13 13 12 12 12 12

GEFSGL_500_meanwind_168.txt.gz
Wind_Speed
29 30 31 32 33 34 35 37 38 40 41 43 43 44 44 44 44 45 45 45 46 46 45 45 46 47 48 47 45 44 43 43 43 42 42 42 40 39 39 39 40 40 40
27 28 29 30 30 31 32 34 36 37 39 40 41 41 42 43 43 43 43 44 45 45 44 45 45 45 46 45 44 42 42 43 42 41 41 40 40 39 39 39 39 39 40
26 26 27 28 30 31 32 33 34 35 36 37 38 39 40 42 42 42 42 44 44 44 44 44 44 44 44 44 44 42 41 42 42 41 41 40 39 39 39 38 38 39 40
25 25 25 27 28 29 30 31 32 34 34 34 36 37 38 40 41 41 40 43 43 43 43 43 43 44 44 44 45 43 42 42 41 41 41 40 39 39 38 38 38 39 39
25 24 25 26 26 27 28 28 29 31 31 32 33 34 36 38 39 39 39 40 42 42 42 42 43 43 44 44 44 43 42 42 41 41 40 39 39 39 39 38 38 39 39
26 25 25 25 24 25 26 27 28 28 29 30 32 34 34 35 36 37 38 38 40 40 40 41 42 43 42 42 42 42 41 41 40 40 38 38 37 37 38 37 38 38 37
26 25 24 23 23 24 26 27 28 28 29 30 31 32 32 33 34 34 34 35 38 38 38 39 41 42 41 41 40 41 40 40 40 39 39 39 38 37 37 37 36 36 35
26 25 24 24 23 24 25 26 27 28 28 29 29 30 29 30 31 31 31 32 34 35 36 37 39 39 39 40 40 39 38 38 39 39 39 39 38 37 36 36 36 35 35
26 25 25 24 24 24 25 25 24 25 25 25 25 27 27 28 28 29 30 31 32 32 33 35 37 37 36 38 38 38 38 37 37 38 37 37 37 36 35 36 35 34 33
27 26 26 25 24 23 24 24 24 24 24 24 24 25 26 27 27 27 27 30 31 32 33 33 34 35 36 36 37 37 37 37 37 37 37 36 35 35 34 34 33 33 32
27 27 26 26 24 23 23 23 22 22 22 22 23 24 25 26 26 26 28 28 30 31 33 32 32 33 35 36 36 35 35 36 36 36 35 34 34 34 34 33 32 32 32
27 27 25 24 23 23 22 21 21 22 22 22 22 23 24 25 25 26 27 26 27 29 31 32 33 34 34 34 35 35 34 34 35 35 34 33 33 33 32 31 30 30 30
27 26 25 24 23 23 22 21 21 22 22 22 23 23 23 24 24 25 25 26 26 28 30 31 33 33 32 32 32 33 33 33 33 33 33 32 32 31 31 30 29 29 29
27 26 25 24 23 23 22 21 21 21 21 22 21 22 23 23 23 24 25 25 25 25 27 29 29 30 30 30 31 32 32 32 32 32 31 31 30 30 29 29 28 27 27
27 26 25 24 24 23 23 22 22 22 22 22 22 22 23 23 23 23 25 24 24 25 26 26 27 28 29 28 29 31 32 32 31 31 30 30 30 29 28 28 27 27 26
26 25 24 24 24 23 22 22 21 22 22 21 21 21 22 23 23 23 23 23 23 24 25 26 26 27 28 28 28 29 29 30 30 29 29 29 29 28 27 26 27 26 25
25 24 23 23 23 23 23 23 22 21 21 21 21 22 22 23 23 24 23 23 23 24 24 25 26 27 27 27 27 27 27 28 28 28 28 28 27 26 26 26 25 25 24
24 23 22 22 23 23 23 24 23 23 23 22 23 23 24 23 23 23 23 23 23 23 23 24 26 26 26 26 26 25 25 25 26 27 27 27 26 25 24 24 23 22 21
24 23 23 24 24 24 25 25 25 25 24 24 24 24 24 23 23 23 23 23 22 22 22 23 24 25 24 24 23 23 23 23 24 25 25 24 24 23 22 21 20 19 18
25 25 25 25 25 25 26 26 25 25 25 24 24 24 24 23 23 23 22 22 22 22 21 21 22 23 23 22 22 23 23 23 23 22 22 23 22 21 20 19 18 17 16
27 27 27 26 25 25 25 26 26 25 25 24 23 23 23 22 22 21 21 21 21 21 21 22 22 22 22 21 21 22 22 21 21 21 21 22 21 20 19 18 18 17 16
27 26 26 25 25 25 25 26 26 26 25 24 23 23 23 22 21 21 21 22 22 22 22 21 22 22 21 21 21 21 21 21 20 20 20 20 20 18 17 16 16 16 15
27 26 25 25 25 26 26 25 25 25 24 23 22 21 21 21 21 21 22 22 22 21 20 20 20 21 21 20 21 21 21 20 20 20 19 18 17 16 15 15 15 14 14
26 26 26 25 25 25 25 25 24 24 24 23 22 21 21 22 22 22 22 22 21 20 20 20 21 20 20 20 20 20 20 20 20 19 18 17 15 14 14 13 13 12 12
26 26 26 25 24 24 24 24 24 23 23 23 23 22 22 22 22 22 22 22 21 20 19 19 19 19 20 20 20 20 20 20 19 19 18 17 15 14 13 13 12 11 11
25 25 24 23 23 23 23 22 22 22 23 22 22 21 20 20 20 21 21 21 21 20 20 20 19 19 19 20 19 19 19 19 19 19 18 17 15 14 14 13 11 10 10

GEFSGL_500_meanwind_174.txt.gz
Wind_Speed
28 29 30 32 33 32 31 32 33 34 36 37 37 37 36 37 40 41 41 42 42 42 42 42 41 42 42 40 40 41 42 43 43 42 42 42 41 41 41 41 42 41 40
29 30 30 32 31 30 30 31 32 32 33 34 34 34 34 36 38 39 39 40 40 40 40 39 39 40 41 40 40 40 40 41 41 40 40 41 41 40 40 40 41 40 40
29 30 30 30 29 28 28 28 29 30 31 31 32 33 34 36 36 37 38 37 37 38 38 38 38 38 39 40 41 41 41 41 41 40 39 40 39 38 39 40 41 41 40
30 32 31 30 29 28 27 27 26 26 27 29 31 32 33 34 35 35 35 34 34 35 36 37 36 37 38 40 40 40 40 40 40 40 39 38 37 36 38 40 41 41 39
31 32 31 30 29 28 27 26 25 25 26 28 29 31 32 32 33 32 32 32 32 33 34 35 36 36 37 38 38 38 38 38 39 39 38 37 36 37 38 39 40 39 38
31 31 30 29 28 27 26 25 25 26 27 28 29 29 30 30 30 31 31 30 30 32 33 33 34 34 35 36 37 37 36 37 36 36 37 38 38 38 38 39 38 38 37
31 30 29 28 28 27 26 25 25 26 26 26 27 27 27 27 28 28 29 30 30 30 31 31 32 33 34 36 36 35 36 36 36 36 36 37 37 37 37 37 38 38 36
30 29 29 28 27 26 25 25 25 26 26 25 26 26 26 26 26 27 29 29 29 30 30 30 31 32 33 34 34 35 35 35 34 34 35 36 36 35 35 36 36 37 35
31 30 30 29 27 24 24 24 25 25 26 26 25 25 25 25 26 27 28 28 28 28 29 29 30 30 32 33 32 33 32 32 34 34 35 36 35 35 34 34 34 33 32
31 31 29 28 26 24 24 24 25 25 25 25 25 25 25 25 25 25 26 26 26 26 27 28 28 29 30 30 30 30 31 31 31 31 32 33 33 33 33 32 31 31 30
31 30 29 27 26 25 25 25 26 26 25 25 25 25 25 24 24 25 25 25 26 26 26 27 27 28 28 27 28 29 29 30 30 29 29 31 32 32 31 31 29 29 28
31 30 29 28 27 26 26 26 26 26 25 24 24 23 23 24 24 24 24 24 25 25 25 25 26 27 27 27 28 28 27 27 28 28 29 30 30 29 29 30 29 27 27
30 30 29 28 27 27 27 27 27 26 25 23 23 23 23 24 23 23 23 23 24 25 24 24 25 25 25 26 26 27 27 26 26 27 28 29 28 28 27 28 28 27 26
31 30 29 28 27 28 29 28 28 27 25 24 24 23 23 24 23 23 23 24 24 23 22 23 24 24 25 25 25 25 25 25 26 26 26 26 26 26 26 26 26 26 26
31 31 30 29 29 29 29 28 27 26 25 24 23 24 24 23 23 23 23 23 23 22 23 23 23 23 23 24 24 24 25 24 24 24 24 24 24 25 26 26 25 24 24
33 32 31 30 30 30 29 28 27 26 25 24 23 23 22 22 22 22 22 22 23 23 23 23 22 22 22 23 23 24 24 23 23 22 22 23 24 24 24 23 23 23 23
34 33 32 31 30 30 29 28 27 26 25 23 23 22 22 22 22 22 22 24 24 23 23 22 22 22 22 21 22 22 22 22 21 21 21 21 22 22 21 21 21 21 21
34 33 32 31 31 30 30 28 27 25 24 24 23 23 22 21 21 21 22 23 23 22 22 22 21 21 21 21 21 21 21 21 21 20 20 20 19 19 19 20 20 20 19
34 33 32 32 31 31 30 28 27 26 25 24 24 24 23 22 22 22 23 23 23 22 22 22 21 21 21 21 20 20 20 19 19 18 18 18 18 17 17 18 18 18 17
34 33 32 32 31 31 30 29 27 27 26 26 25 25 24 24 23 22 22 22 22 21 21 21 20 20 20 20 19 18 18 18 17 16 16 16 16 16 16 16 16 16 15
34 33 32 31 30 30 29 28 28 27 27 27 25 24 23 23 22 21 21 21 21 20 20 19 19 19 18 18 18 18 17 17 15 15 15 15 15 15 15 15 15 14 13
32 31 30 29 28 28 27 27 26 26 26 26 24 23 22 22 21 20 20 19 19 19 18 18 17 17 16 16 16 16 16 16 15 14 14 15 14 14 13 13 13 13 12
30 29 28 27 27 26 26 26 25 24 24 23 22 21 20 20 20 19 18 16 16 17 17 17 16 15 15 15 15 15 14 14 14 14 14 14 13 12 11 11 11 12 11
29 28 27 26 26 25 25 25 24 23 21 20 20 20 19 18 18 17 17 16 15 15 15 15 15 15 14 14 14 14 13 13 13 13 12 11 11 11 11 11 11 12 11
27 27 26 25 25 25 24 23 22 21 20 19 19 18 17 17 16 16 16 15 15 15 15 14 15 15 14 14 14 13 13 13 12 12 11 10 10 11 12 11 12 11 11
26 26 25 25 25 24 22 21 20 19 18 18 17 17 16 16 16 16 16 16 16 15 15 15 15 15 14 14 14 13 13 13 12 11 11 10 10 11 12 12 12 12 11

GEFSGL_500_meanwind_180.txt.gz
Wind_Speed
27 27 26 26 26 27 27 28 30 32 32 32 31 31 31 32 33 35 36 36 37 38 38 39 39 41 40 41 43 43 42 43 42 41 42 42 42 42 44 44 45 46 45
27 26 25 25 25 25 25 26 27 29 30 30 30 29 30 30 31 32 34 35 35 36 36 37 37 37 38 39 39 39 39 40 41 41 41 42 42 43 43 43 43 44 44
25 25 24 24 24 24 25 26 26 27 28 27 27 28 28 29 30 30 32 33 33 34 35 34 35 35 35 36 36 36 37 38 39 39 39 40 40 41 41 41 41 42 43
24 24 24 24 24 25 25 26 26 26 26 25 25 26 26 27 28 30 30 31 31 32 33 32 32 33 33 35 35 35 36 36 37 36 36 37 38 39 39 39 40 41 41
22 22 23 23 24 25 25 25 26 25 24 24 24 24 24 26 27 29 29 30 29 30 30 31 32 32 32 33 33 34 34 35 35 35 34 35 36 36 36 38 38 38 38
22 23 22 24 24 25 25 25 24 24 23 22 22 23 24 24 25 27 28 29 29 28 29 31 32 32 31 31 32 33 33 34 35 35 34 33 34 34 35 36 36 35 35
23 24 23 24 25 25 25 25 24 22 22 21 21 22 23 24 26 27 28 28 28 28 29 30 31 30 31 31 32 32 33 33 34 33 33 32 32 32 33 34 34 33 33
23 24 24 25 25 25 24 24 23 22 21 21 21 22 23 25 26 26 26 25 27 28 28 28 28 29 30 32 33 32 32 32 31 31 32 31 31 32 32 32 32 31 31
23 23 23 24 24 25 25 25 24 22 22 22 22 22 23 24 25 26 26 26 26 27 27 28 29 30 31 32 31 30 30 30 31 31 30 31 31 32 32 32 31 30 29
23 23 23 24 24 25 26 25 24 24 24 23 23 24 25 25 25 26 26 27 27 27 28 29 29 30 30 30 29 29 28 28 29 29 30 31 31 31 31 31 30 29 28
24 24 24 25 25 26 26 25 26 26 25 25 25 26 26 26 27 27 27 28 28 28 28 29 29 28 28 27 28 27 27 27 27 27 29 30 30 30 29 28 28 27 26
25 25 26 26 27 28 27 27 27 27 27 27 27 27 27 27 28 28 29 29 28 28 28 28 28 27 26 26 26 26 26 26 26 26 27 27 27 27 27 26 25 25 24
27 27 27 28 29 30 29 29 29 28 27 28 28 28 28 28 29 29 29 28 28 27 27 27 26 25 25 25 25 25 25 25 25 24 24 24 24 24 25 24 23 23 23
27 28 29 30 31 31 30 30 30 30 30 30 30 30 29 28 28 28 27 26 26 25 25 25 25 25 24 25 25 25 25 24 24 23 23 23 23 23 23 23 22 22 22
29 30 31 31 32 31 31 31 32 32 32 32 32 31 30 29 28 27 27 25 24 24 24 23 22 22 22 22 23 23 23 23 23 23 23 23 23 21 21 21 21 21 21
31 32 32 33 32 32 32 33 33 34 35 34 33 32 31 29 28 27 26 25 24 23 22 21 21 20 20 20 21 21 22 22 23 23 23 22 21 20 20 20 20 20 20
32 33 33 33 33 33 34 35 35 36 36 34 33 32 30 29 28 26 25 24 23 21 21 20 20 20 20 20 20 21 21 22 22 22 22 21 19 19 19 20 19 19 18
33 34 34 34 34 35 35 35 36 36 34 33 32 31 29 29 27 25 24 23 23 22 21 21 21 20 20 20 20 20 20 20 20 20 20 20 19 18 17 18 18 17 17
34 34 34 35 35 35 35 35 35 34 33 32 30 29 28 27 25 24 23 22 22 21 21 21 21 21 20 20 19 19 19 19 18 18 17 17 17 17 16 16 15 15 15
35 35 36 36 35 35 35 34 34 32 31 29 28 26 25 24 23 23 22 22 21 20 20 20 21 20 20 19 19 19 18 17 16 16 16 16 15 15 15 15 14 13 13
36 37 37 37 35 34 33 33 33 31 29 28 26 25 23 22 22 22 21 20 19 19 19 19 19 19 18 18 18 18 17 16 15 14 14 15 15 14 13 13 13 12 12
36 36 36 35 34 33 33 32 30 29 27 25 24 23 22 21 20 19 20 19 18 18 18 18 18 18 17 17 17 16 16 16 15 14 14 14 14 14 13 12 11 10 10
35 35 35 34 33 32 31 30 28 26 24 22 21 21 20 19 18 18 18 18 18 17 16 17 17 17 16 16 15 15 15 14 15 15 14 14 14 13 12 12 11 10 10
33 33 32 31 30 29 28 27 25 23 22 20 20 19 18 18 17 17 17 16 16 16 15 16 16 15 15 15 14 14 14 14 14 14 14 14 13 12 11 11 10 10 10
32 31 30 29 28 27 26 24 23 21 20 19 18 17 17 16 16 16 16 16 15 15 15 15 15 15 14 14 14 13 13 12 12 12 12 12 12 12 11 10 10 11 11
30 29 28 27 27 26 24 23 21 19 18 17 17 17 16 15 15 15 15 15 15 15 15 14 14 13 13 13 12 11 11 11 10 10 11 11 12 12 11 10 10 11 11

GEFSGL_500_meanwind_186.txt.gz
Wind_Speed
30 30 30 30 29 29 29 29 30 30 29 30 30 31 31 31 31 31 32 34 34 34 35 36 37 36 36 37 39 40 41 41 40 39 41 41 41 42 43 44 44 43 44
28 28 28 27 27 27 28 28 28 28 28 28 29 29 30 30 30 30 31 32 33 33 35 35 34 34 34 35 36 37 37 37 38 38 38 38 39 40 40 41 42 42 43
27 26 26 25 26 26 27 27 27 26 27 27 27 27 28 28 28 29 30 30 31 32 32 31 31 31 30 31 33 35 35 35 36 37 36 36 38 39 38 39 41 41 42
26 24 24 24 25 25 25 25 25 25 26 26 26 26 27 27 27 28 29 29 28 28 28 29 29 28 28 29 30 32 33 34 35 36 36 36 36 36 38 38 38 40 39
25 24 23 23 24 24 24 24 24 24 24 25 26 27 27 26 27 28 28 28 27 26 27 28 28 27 27 28 29 30 31 33 34 34 34 34 34 34 36 37 38 38 38
24 23 22 23 23 23 24 24 24 24 23 24 26 26 26 26 26 27 26 26 25 25 26 27 27 27 28 28 29 30 31 32 32 33 32 31 31 31 32 35 36 36 36
24 23 22 23 24 24 24 24 24 24 24 25 26 25 26 27 26 24 24 23 24 25 25 26 27 27 27 28 29 30 31 31 32 31 32 31 30 30 31 32 34 34 34
22 22 23 23 24 25 25 25 24 24 25 26 25 25 27 27 26 25 24 24 24 24 25 26 27 27 27 28 29 29 30 31 31 31 31 30 30 30 31 32 33 33 31
23 23 23 24 25 25 25 25 24 25 25 25 25 26 26 26 25 24 24 25 24 25 25 26 28 28 28 29 30 30 30 31 31 31 30 29 29 30 31 32 31 30 29
23 24 24 25 26 25 25 25 25 26 26 26 27 27 26 25 24 24 25 25 24 24 25 27 28 28 28 29 30 30 30 30 30 29 29 29 28 29 30 30 29 28 27
25 25 25 26 26 26 25 25 26 27 27 28 28 27 26 25 24 25 25 25 25 25 26 26 26 27 29 29 29 29 29 29 28 27 27 28 28 29 28 28 27 27 26
25 26 26 26 26 26 27 27 28 28 28 27 28 27 26 25 25 26 26 26 26 26 26 26 27 28 28 28 28 28 27 27 26 26 26 27 27 27 27 27 26 25 25
26 26 26 26 26 27 28 28 28 28 29 29 28 27 26 26 27 28 28 28 27 27 27 27 28 28 28 27 27 27 26 25 25 25 25 26 26 26 26 25 25 24 23
28 28 27 27 27 28 29 29 30 30 30 29 28 28 28 28 28 29 29 28 28 27 28 29 29 29 27 26 26 25 24 24 24 23 23 23 24 24 25 24 23 23 22
28 27 27 28 28 29 30 31 31 31 30 29 28 28 28 28 28 28 28 28 28 28 28 28 27 26 25 25 24 24 23 22 22 22 22 21 22 22 23 22 21 20 20
28 28 28 29 30 31 31 31 31 31 30 29 29 28 27 27 27 27 27 27 27 27 27 26 25 24 23 23 22 21 21 20 21 21 21 21 21 21 20 20 19 19 19
28 29 29 29 30 31 31 30 30 29 30 30 29 29 29 28 28 28 28 27 26 26 25 25 24 23 23 22 21 20 20 20 21 22 22 21 21 20 20 19 18 18 18
29 29 29 30 30 30 30 30 29 29 29 29 30 30 30 29 28 28 28 26 25 25 24 23 23 22 22 20 19 19 19 20 21 22 22 22 21 21 20 19 18 17 17
30 30 31 31 31 30 30 30 30 30 30 30 30 30 30 29 30 29 27 26 25 23 23 23 22 21 20 19 19 19 20 20 21 21 21 20 20 19 18 17 16 15 15
30 31 31 31 31 31 30 30 31 31 31 31 31 30 30 31 30 28 26 25 24 23 23 21 20 19 18 18 19 19 19 20 20 20 19 18 18 17 16 16 15 14 13
30 31 31 31 31 32 31 32 32 32 32 32 32 31 30 30 28 26 25 25 24 23 21 20 19 18 18 18 18 19 19 20 20 19 18 17 16 15 14 14 12 12 11
30 31 31 31 31 32 32 32 33 32 32 31 31 30 29 28 26 25 25 24 23 22 21 20 19 18 18 18 17 17 17 17 17 16 16 16 15 14 12 11 10 10 10
31 31 32 32 32 32 32 32 32 31 31 30 29 28 27 26 26 25 24 23 22 21 20 19 18 18 17 17 16 16 15 15 14 14 14 13 12 11 10 9 8 8 8
32 33 33 33 33 33 32 31 30 29 29 28 27 26 25 25 24 23 22 21 20 19 18 17 17 17 16 15 15 14 13 13 12 11 11 10 9 8 8 8 7 7 7
33 33 33 34 33 32 31 30 29 28 27 26 25 24 24 23 22 20 20 20 19 18 17 16 16 15 15 14 14 13 12 11 10 9 8 7 7 6 6 6 6 6 7
33 33 33 33 32 31 30 28 27 26 25 24 23 22 21 20 19 18 18 18 17 16 16 15 15 15 14 13 13 12 11 10 8 7 7 6 6 5 5 6 6 7 7

GEFSGL_500_meanwind_192.txt.gz
Wind_Speed
33 33 34 35 35 35 36 35 35 35 35 35 34 33 32 31 32 32 33 33 33 32 32 33 34 35 35 36 36 35 36 37 37 38 38 40 41 41 41 42 44 44 43
33 33 34 35 35 35 35 35 34 34 33 32 32 32 31 31 32 32 32 31 31 31 31 30 32 34 34 34 34 34 34 35 35 36 36 38 38 39 39 40 40 40 40
32 33 34 34 34 34 34 33 32 31 31 30 30 30 30 31 31 31 30 29 29 29 30 30 31 31 32 31 31 32 33 33 33 34 34 34 35 36 37 37 37 37 38
32 33 33 34 34 33 32 31 30 29 29 28 28 28 29 30 30 30 29 29 29 28 29 29 30 29 29 30 30 31 30 31 31 32 32 32 32 32 34 34 34 34 35
30 31 31 32 31 30 29 28 28 28 27 27 27 27 28 28 28 27 27 28 27 27 28 28 28 27 27 28 27 27 27 28 29 29 29 29 29 29 30 31 33 33 35
29 30 30 30 28 27 27 27 27 26 26 26 26 26 26 25 25 26 26 26 26 27 28 27 26 26 26 25 26 26 26 27 27 27 26 27 27 28 29 31 32 32 32
28 28 28 27 26 26 26 26 26 26 26 26 26 25 25 25 25 25 25 24 24 26 26 25 24 24 23 24 25 25 26 26 26 26 26 26 27 28 29 30 30 30 29
27 27 26 25 25 25 25 26 25 25 26 26 25 25 25 25 25 25 24 24 24 24 24 24 23 23 23 23 24 24 24 25 25 26 26 26 26 26 27 28 28 28 29
26 25 24 24 24 25 25 25 25 25 25 25 25 25 25 25 24 24 24 24 24 23 23 22 22 22 22 23 23 24 25 25 26 26 26 27 27 27 27 27 27 27 27
24 24 24 24 23 24 24 24 24 24 24 24 24 24 25 24 23 23 24 24 23 22 22 22 21 22 22 23 24 25 26 26 26 26 26 27 27 27 27 27 27 27 26
24 24 24 24 23 23 23 23 23 23 24 23 24 24 24 24 24 24 24 23 22 21 21 21 21 22 22 23 25 25 26 26 26 26 26 25 25 25 25 25 25 26 25
24 23 23 22 22 21 21 22 22 22 22 23 24 23 23 23 22 22 22 22 22 22 22 21 21 22 22 23 24 25 26 25 25 25 24 24 23 23 23 24 23 23 24
21 21 21 21 20 20 21 21 22 22 22 22 22 22 22 22 21 22 21 22 22 23 22 22 22 23 23 23 24 25 24 24 24 23 23 22 22 22 22 22 22 21 21
21 21 21 21 21 20 21 21 20 21 21 22 22 22 22 22 22 23 23 23 23 23 23 23 23 23 23 24 24 24 23 23 22 22 21 21 21 21 20 20 20 20 20
21 20 20 20 20 20 21 21 20 21 21 22 23 23 23 23 24 24 24 24 24 24 24 23 24 23 24 24 23 23 22 22 22 21 21 21 20 20 19 19 19 20 20
20 19 19 20 20 20 21 21 21 22 21 22 23 23 24 24 25 25 25 24 24 24 24 24 24 24 24 24 23 22 22 22 21 20 20 20 20 19 19 19 19 19 20
19 20 20 21 21 20 21 21 21 22 22 23 23 23 23 24 25 25 25 25 24 24 24 24 24 24 24 23 22 22 22 21 21 20 20 19 20 20 19 19 19 19 19
20 21 21 21 21 21 21 21 22 22 22 23 23 24 24 24 24 24 24 24 23 23 23 23 24 24 23 22 21 21 21 20 20 19 20 20 20 20 19 19 18 18 18
22 22 22 22 23 23 23 23 23 23 23 24 24 24 25 25 24 24 24 24 23 23 23 24 24 23 22 21 20 20 20 20 19 19 20 20 19 19 19 18 18 18 17
23 23 24 24 24 24 24 24 24 25 25 25 25 25 25 25 25 25 25 25 24 24 24 24 24 23 21 21 20 20 19 19 19 20 20 20 19 19 18 17 17 16 15
24 24 24 23 23 24 25 25 25 26 26 26 26 26 26 26 26 25 25 25 26 25 25 24 23 22 21 20 20 20 19 19 19 20 20 19 19 18 16 15 15 14 12
25 25 24 24 24 24 24 25 25 26 26 26 26 26 26 26 26 26 26 26 26 25 24 23 22 21 20 20 20 19 19 19 19 18 18 18 18 16 14 14 13 12 11
25 24 24 24 25 25 25 25 25 26 26 26 26 26 26 25 25 26 26 25 24 23 22 21 20 19 19 19 19 19 18 18 18 17 17 16 15 14 13 12 11 10 10
25 25 24 25 25 25 25 26 25 25 25 25 26 26 25 25 25 25 24 24 23 22 21 20 19 18 17 18 18 18 17 17 16 15 15 14 13 12 11 10 9 8 8
25 25 26 26 26 26 26 25 25 25 25 25 25 25 25 24 24 24 24 24 22 21 20 19 18 18 18 18 17 16 16 15 14 14 13 12 11 10 9 9 8 7 7
26 26 26 26 26 26 26 25 25 25 26 26 25 25 24 24 24 23 23 21 20 20 19 18 18 18 18 17 16 15 14 14 13 12 11 10 9 8 8 7 7 7 7

GEFSGL_500_meanwind_198.txt.gz
Wind_Speed
34 35 35 35 35 35 35 36 36 37 37 36 36 36 36 35 35 34 34 34 33 33 33 33 33 33 34 34 34 34 34 33 34 33 34 35 35 35 35 36 37 38 40
34 34 34 34 34 35 35 36 36 36 36 35 35 35 34 34 33 33 33 32 32 31 32 32 31 31 32 32 31 32 32 32 32 32 33 34 33 33 33 34 35 37 38
33 33 33 33 33 34 34 35 35 35 35 35 34 33 33 33 32 32 31 31 30 30 30 31 31 30 30 29 29 30 31 31 32 32 32 32 32 32 32 32 33 34 36
32 32 32 31 32 32 33 33 34 34 34 33 33 33 33 32 32 31 30 29 29 29 29 29 29 29 30 29 29 30 30 30 30 30 31 30 30 30 30 31 32 32 33
30 30 29 30 30 31 31 32 32 32 32 31 31 32 32 32 31 31 30 29 28 28 28 28 28 29 29 29 29 29 28 28 28 28 28 28 28 28 29 29 30 30 31
29 29 29 29 29 29 30 30 30 30 30 30 31 31 31 31 30 29 28 28 27 27 27 27 28 28 29 28 28 27 27 26 26 26 26 26 26 27 27 27 29 29 29
29 29 29 28 28 29 29 29 29 29 28 28 29 29 29 28 28 27 27 27 27 26 27 28 28 28 28 28 26 25 24 24 25 25 24 24 24 25 26 27 27 28 27
28 28 28 28 28 28 28 28 28 27 27 28 28 28 28 27 26 26 26 26 26 26 27 28 28 28 27 26 25 24 24 24 23 23 23 23 24 25 25 26 25 26 25
28 27 27 27 27 28 28 27 27 27 27 28 28 27 26 26 25 25 25 25 25 25 26 27 26 25 25 25 24 23 23 22 22 22 22 22 23 24 25 24 24 24 24
28 27 27 26 26 26 26 26 26 26 27 27 27 26 25 24 24 24 24 24 25 25 25 25 25 25 24 23 23 23 21 21 22 22 22 22 23 24 24 24 23 24 25
27 26 26 26 25 25 25 25 25 25 25 24 24 23 23 23 23 23 24 24 24 24 24 24 24 23 22 21 21 21 21 21 22 22 22 23 24 24 24 24 24 25 25
26 25 25 25 24 24 24 24 24 24 24 23 22 22 22 22 22 22 23 23 23 23 23 22 22 22 22 21 21 21 21 22 22 23 24 24 24 24 24 24 25 25 24
25 25 25 25 24 24 23 23 23 24 24 23 22 21 21 22 22 22 23 23 22 22 22 22 22 21 20 20 21 21 21 23 24 24 24 25 25 24 24 25 25 24 23
25 24 24 24 24 24 24 24 23 23 22 21 20 20 20 21 21 22 22 22 22 22 22 22 21 20 20 20 20 21 22 23 24 24 25 25 25 25 25 25 24 23 21
24 24 24 24 24 24 23 23 22 21 20 20 20 20 20 20 21 21 21 21 22 22 21 21 20 19 19 20 20 21 23 24 24 25 25 25 25 25 24 23 21 20 20
24 23 23 23 22 22 21 21 20 20 19 19 19 20 20 20 20 21 21 22 22 22 21 21 20 19 19 20 21 22 23 24 25 25 25 25 24 23 22 21 20 19 19
24 23 22 22 22 22 21 20 19 19 19 19 19 20 20 20 21 21 22 21 21 21 20 19 19 20 20 21 22 23 24 25 26 26 25 24 23 22 20 19 18 17 18
22 22 22 21 21 21 21 20 21 20 20 20 20 20 21 21 21 21 21 21 21 20 20 20 20 21 21 22 23 24 25 25 26 25 24 22 21 20 19 17 16 16 16
22 22 22 21 21 21 20 20 21 21 20 20 20 21 21 21 21 21 21 21 21 21 21 21 21 22 22 24 24 25 26 25 25 24 22 21 19 18 17 16 16 16 15
22 22 21 21 21 21 20 19 20 20 20 20 20 20 21 21 22 22 22 22 22 21 22 22 23 23 24 25 25 26 26 25 24 22 20 20 19 18 17 17 16 16 15
23 23 22 21 21 20 20 20 20 21 21 21 21 22 22 22 22 22 22 22 22 22 23 23 24 25 25 26 26 26 25 23 21 21 20 19 18 17 17 16 16 15 15
22 22 22 22 22 21 21 20 20 21 21 22 22 22 23 23 23 23 23 23 23 23 24 25 25 25 26 26 26 25 23 21 21 20 19 18 17 17 16 16 15 14 14
22 22 22 22 22 22 22 21 21 21 21 21 22 22 22 23 23 23 23 24 24 25 25 26 26 25 25 25 24 22 21 21 20 19 18 17 16 16 15 14 14 13 12
22 22 22 22 22 22 22 22 22 22 21 21 21 21 22 22 23 23 24 25 26 26 27 26 25 25 25 24 22 21 20 19 18 17 17 16 16 15 15 14 13 12 11
23 23 23 23 23 23 23 22 22 22 22 22 22 23 23 23 24 24 25 26 26 26 25 25 25 24 23 22 20 19 18 17 17 17 16 16 16 15 14 13 12 11 11
23 23 23 23 24 24 24 23 23 23 23 23 23 23 23 24 24 25 26 26 26 25 25 25 24 23 22 20 19 18 18 17 17 16 16 15 15 15 14 13 12 11 10

GEFSGL_500_meanwind_204.txt.gz
Wind_Speed
33 33 33 33 33 33 33 33 33 33 33 34 34 34 34 34 34 34 34 34 33 33 33 33 34 34 34 34 34 33 32 32 31 31 32 33 32 30 30 31 31 33 34
33 33 33 33 33 33 33 33 33 33 33 33 33 33 33 33 33 33 33 32 32 32 32 33 33 33 33 33 32 31 30 31 31 31 31 31 30 29 29 30 31 31 32
33 33 32 33 33 33 33 33 33 33 33 32 32 32 32 32 32 32 32 31 31 31 31 31 31 31 31 31 30 30 30 30 29 29 29 28 28 27 28 29 30 31 31
32 32 32 32 33 32 33 33 32 31 30 30 31 31 32 32 31 31 31 31 30 30 30 29 30 29 29 29 29 29 29 29 28 28 28 27 27 26 27 28 28 29 30
32 31 31 31 31 31 31 31 30 29 29 29 30 30 31 31 31 31 30 30 29 29 29 29 29 29 28 29 28 28 28 28 28 28 27 26 25 24 26 27 28 27 28
31 31 31 31 30 30 30 30 29 29 29 29 29 30 30 31 30 30 30 29 29 28 28 28 29 29 28 28 28 27 28 28 27 27 25 24 23 24 26 26 26 26 26
30 30 30 30 29 29 28 28 27 28 28 27 27 28 28 28 28 28 29 28 28 28 28 28 28 28 28 28 28 28 28 27 25 24 23 22 22 24 24 24 24 23 24
29 29 28 28 28 27 27 27 27 26 27 27 27 27 26 26 27 27 27 27 28 27 27 27 28 27 27 28 28 27 25 24 24 23 22 22 22 22 23 23 23 23 23
29 28 27 27 26 26 26 26 26 26 26 26 26 26 25 25 26 26 26 27 27 27 27 27 28 27 27 27 26 24 23 22 22 21 20 21 21 22 23 23 22 22 23
28 28 27 26 25 25 25 25 25 25 25 25 25 25 25 25 25 25 25 26 26 26 26 27 26 26 25 24 23 22 21 21 20 20 20 21 21 21 22 22 22 23 24
28 28 27 26 26 25 25 25 25 25 25 26 25 25 25 24 24 24 25 25 25 25 25 24 24 23 22 22 22 20 20 20 19 19 20 20 20 21 22 22 23 24 25
28 27 26 26 26 25 25 25 25 25 25 25 25 24 23 23 23 24 24 24 23 23 23 22 22 21 21 21 20 19 19 19 18 19 19 19 19 20 22 23 24 25 25
28 27 26 26 25 25 24 25 25 25 24 24 23 23 23 23 23 23 23 23 23 23 23 22 21 20 19 20 20 19 19 18 19 19 19 19 20 21 22 23 24 25 25
28 27 26 25 25 24 24 24 25 24 23 23 22 22 22 22 22 22 22 22 22 23 22 20 20 19 19 20 19 18 18 18 19 19 19 20 21 22 24 25 25 25 25
28 27 26 25 25 24 24 24 24 24 23 22 22 21 21 21 22 22 22 22 22 21 20 20 20 19 19 19 18 18 18 18 18 19 20 21 22 23 25 26 26 26 24
28 27 26 25 25 24 24 23 23 22 22 22 22 22 22 22 22 22 22 21 20 20 19 19 20 20 19 18 18 17 17 18 18 19 21 22 23 24 25 26 25 25 23
27 27 27 27 25 24 24 23 22 22 21 21 21 21 21 21 21 21 21 21 21 20 20 19 19 19 18 17 17 17 17 18 19 20 21 22 23 25 25 25 25 23 22
26 26 27 27 27 26 25 24 22 22 21 20 20 21 21 22 21 21 20 21 21 20 19 19 18 17 17 17 18 18 18 19 19 20 21 23 24 25 25 25 23 22 21
25 25 25 26 26 26 26 25 23 22 21 21 21 21 22 22 23 22 21 20 19 18 18 18 17 17 18 18 19 19 19 19 20 21 22 24 25 26 26 25 23 22 21
24 24 24 25 25 25 24 24 24 22 22 22 22 22 23 23 23 21 20 19 18 18 18 18 19 19 19 19 19 20 20 20 21 22 23 25 26 26 26 25 23 21 20
23 24 24 24 24 24 24 24 23 23 23 23 23 23 22 22 21 20 19 18 18 18 19 19 20 20 20 20 20 21 21 21 22 23 24 25 26 26 25 24 22 20 19
23 23 23 24 23 23 23 23 23 23 23 24 23 22 21 21 20 21 20 19 19 20 20 20 20 20 21 21 22 22 23 23 24 24 25 25 26 25 24 22 20 19 18
22 23 23 23 22 22 23 23 23 23 23 23 22 22 21 21 21 21 21 21 21 22 22 22 22 22 22 23 23 23 23 24 24 25 26 26 25 23 21 19 18 17 16
22 22 22 22 22 22 22 22 22 22 22 22 22 21 21 21 22 22 22 23 23 23 23 23 23 23 24 24 24 24 24 24 25 25 25 24 22 20 19 18 17 16 15
23 23 22 22 22 22 22 22 21 21 21 21 22 21 21 22 22 22 23 23 23 24 24 23 23 23 24 24 24 24 25 25 25 24 23 21 19 19 18 17 17 16 15
23 23 23 23 23 22 22 22 22 21 22 22 22 22 22 22 22 23 23 23 23 23 23 23 23 23 23 24 24 25 25 24 24 23 21 20 19 19 19 18 17 16 14

GEFSGL_500_meanwind_210.txt.gz
Wind_Speed
35 35 34 34 34 33 33 33 33 33 33 33 33 33 33 33 34 34 33 33 34 34 34 34 34 34 34 34 35 35 35 35 35 33 33 33 33 33 33 32 32 31 31
35 35 35 34 34 34 34 33 33 33 33 33 33 33 33 33 34 34 33 33 33 33 34 34 34 34 34 33 34 34 34 34 35 34 33 32 33 32 30 30 30 29 29
35 35 35 34 34 34 34 34 33 33 33 33 33 33 33 34 34 34 34 33 33 33 33 33 33 33 33 33 33 33 33 33 34 34 32 31 31 30 29 28 28 28 28
36 35 35 35 35 34 34 34 33 34 34 33 33 32 32 33 33 34 33 32 32 32 32 32 32 32 33 33 33 33 33 33 33 32 31 30 28 27 26 25 26 27 27
35 35 35 35 35 34 34 34 34 34 34 34 33 32 32 32 32 33 32 32 32 31 31 31 31 32 32 32 32 32 32 32 30 29 28 28 27 26 25 25 25 25 25
35 35 35 35 34 34 34 34 34 34 34 34 33 32 32 32 31 31 31 31 31 31 30 30 30 31 31 31 32 32 31 30 29 28 26 25 24 24 24 24 24 24 23
34 34 34 35 34 33 34 34 34 34 34 34 33 32 31 31 30 30 31 31 31 30 30 30 30 30 30 31 31 30 29 29 27 26 24 22 22 23 23 24 23 22 23
34 34 34 34 34 33 33 33 33 33 32 32 32 31 31 30 30 30 30 30 30 30 30 30 30 30 30 30 29 28 27 26 25 23 22 21 22 22 23 23 22 22 24
34 33 33 33 33 32 32 32 31 31 30 30 30 30 30 30 30 29 29 29 29 29 29 29 29 29 29 28 26 25 24 24 23 22 22 21 21 21 22 22 22 22 24
34 33 32 32 32 32 31 30 30 29 29 28 28 28 28 28 28 28 29 29 29 29 29 28 27 27 26 25 24 23 23 22 22 22 22 22 22 22 21 20 21 22 24
33 33 33 32 31 30 30 29 29 28 28 28 27 27 27 27 27 27 27 27 27 27 27 26 25 24 23 23 22 22 22 22 22 22 22 22 21 20 20 20 21 23 24
33 33 32 32 31 30 30 29 28 28 27 27 27 27 26 26 26 26 26 25 24 24 24 24 24 23 23 23 23 21 21 22 21 21 20 20 19 19 20 21 22 24 25
34 33 32 32 31 30 30 29 28 27 27 27 26 26 25 25 24 24 24 24 23 23 23 23 23 23 23 23 22 21 20 20 20 19 19 19 19 20 21 22 24 25 26
33 33 32 32 31 30 30 29 28 27 26 26 25 25 25 24 23 23 23 23 24 24 24 24 24 23 23 22 21 19 19 19 19 19 19 19 20 21 22 23 24 25 26
32 32 32 31 30 29 29 28 28 27 26 26 25 25 25 25 24 24 23 23 24 25 25 24 23 23 22 20 19 19 19 19 19 20 20 21 21 22 23 24 24 25 26
30 30 30 30 30 29 28 27 27 26 26 26 25 24 24 24 24 24 24 24 24 24 23 22 21 20 19 19 19 20 20 20 20 20 20 20 21 22 22 24 25 26 26
29 29 29 29 29 29 28 27 27 26 26 26 25 25 24 24 24 24 24 24 24 23 21 20 19 19 19 19 19 19 19 19 19 19 20 20 21 22 23 24 25 26 27
28 28 28 28 29 29 28 27 27 27 26 26 25 25 24 23 24 24 24 23 22 21 20 20 20 19 19 19 19 19 18 19 19 19 20 21 22 23 24 25 26 27 27
28 28 27 26 27 27 27 27 27 27 27 27 26 25 25 24 24 23 22 22 21 21 21 20 20 19 19 19 19 19 19 19 19 20 21 21 22 23 25 26 27 28 28
27 27 27 26 25 25 26 26 26 27 27 27 26 26 25 24 23 23 22 22 22 21 21 20 19 19 19 19 19 20 20 20 20 21 21 22 23 24 25 26 27 27 27
27 27 26 26 25 25 25 25 26 26 26 26 26 25 25 24 24 23 23 22 21 21 20 19 19 19 19 19 20 20 20 20 21 21 22 23 24 25 26 26 27 27 27
27 27 27 26 25 25 25 25 25 25 25 25 25 25 24 24 23 23 22 21 21 21 20 19 19 19 20 20 21 21 21 21 22 22 23 24 25 25 26 26 27 27 28
26 26 26 26 26 26 26 25 25 25 25 25 25 25 25 25 24 24 23 22 21 21 20 20 20 20 21 21 21 21 22 22 23 23 24 24 25 26 26 27 28 28 28
25 25 26 26 26 25 25 25 25 25 25 26 26 26 27 26 26 25 24 23 22 22 21 21 21 22 22 22 22 22 22 23 23 23 24 24 25 26 27 28 28 28 27
24 24 25 25 25 24 24 24 24 24 25 25 26 27 27 27 27 26 25 25 24 23 22 22 22 23 23 23 23 23 23 23 23 24 25 26 27 28 28 28 27 27 25
22 23 23 24 23 23 23 24 24 24 24 25 26 26 27 27 27 26 26 26 25 24 24 24 23 24 24 24 23 23 23 23 23 24 26 27 28 27 27 26 25 24 23

GEFSGL_500_meanwind_216.txt.gz
Wind_Speed
37 36 36 35 35 35 34 34 33 33 32 32 32 32 33 33 33 33 33 33 33 33 33 33 33 33 33 33 34 34 34 33 32 31 32 30 29 28 29 29 30 31 30
37 37 36 36 35 35 35 34 34 33 32 32 32 32 33 33 33 34 34 34 33 33 33 33 33 34 34 34 34 34 33 32 31 30 29 29 28 29 29 30 30 31 30
37 37 37 36 36 36 36 35 34 34 33 32 32 32 33 33 33 34 34 34 33 33 33 33 33 33 33 33 33 32 32 31 31 29 29 29 29 29 29 30 30 29 29
37 37 37 37 36 36 36 36 35 34 34 33 32 32 32 33 33 33 34 33 33 33 33 33 33 32 32 31 31 30 30 31 30 29 29 29 29 30 29 28 27 26 26
37 37 37 37 36 36 36 36 35 35 34 33 32 32 32 32 32 33 33 32 32 33 32 32 31 31 31 30 30 29 30 30 29 29 29 29 29 29 28 27 26 25 25
37 36 36 36 36 36 35 35 35 34 34 33 33 33 32 32 32 32 31 32 31 31 31 31 30 30 30 30 30 30 30 29 28 28 28 28 27 27 26 25 25 25 25
36 36 36 35 36 36 35 35 34 34 34 34 34 34 33 32 32 32 32 31 30 30 30 30 30 29 29 29 29 29 29 28 27 26 26 26 26 25 25 24 23 24 24
34 35 35 35 35 35 35 35 35 34 35 34 34 34 33 32 31 31 31 31 30 30 29 29 29 28 28 28 27 27 27 26 25 25 25 25 24 23 23 22 22 23 23
33 34 34 34 35 35 35 35 35 35 35 34 34 33 33 33 32 31 31 31 30 30 29 29 27 27 27 26 26 26 25 24 24 23 23 23 22 21 21 21 21 22 22
33 33 33 34 34 34 34 34 35 34 34 34 33 33 32 32 32 31 31 31 30 30 29 28 26 25 26 26 25 25 23 23 22 22 22 22 21 20 21 21 21 22 23
32 32 32 33 33 33 33 33 33 33 33 32 32 32 31 31 31 30 30 30 30 29 27 26 25 25 25 25 25 24 23 23 22 22 22 21 20 20 20 21 22 23 23
31 32 33 33 33 32 32 32 32 32 31 31 31 31 31 30 30 30 29 29 28 27 26 25 25 25 24 23 24 24 23 22 22 22 21 20 20 20 21 21 22 23 23
32 32 33 33 33 32 32 32 32 31 31 31 30 30 30 30 29 29 29 28 27 26 25 24 24 24 23 23 24 23 23 22 22 21 20 20 20 20 21 21 22 23 23
31 32 33 33 33 33 32 31 31 30 30 29 28 28 28 28 28 28 28 27 27 25 24 24 24 23 23 23 23 22 22 21 21 21 20 20 20 20 21 21 22 23 24
31 31 32 32 33 33 32 31 30 30 29 28 28 28 27 27 27 27 27 27 26 25 25 24 24 24 24 24 23 23 22 21 21 20 20 20 20 21 21 22 23 23 24
32 31 31 32 32 32 31 31 30 29 28 28 27 27 27 26 26 26 26 26 25 25 25 24 24 24 24 24 23 23 22 22 22 21 20 20 21 21 21 22 22 23 24
31 31 31 31 31 31 31 31 30 29 28 27 26 26 26 25 25 25 25 24 24 25 25 24 24 24 23 23 22 22 22 22 22 21 21 21 21 21 21 22 23 24 24
30 30 30 30 30 30 30 30 29 29 28 27 26 26 25 25 25 24 24 24 24 24 24 24 23 23 23 22 22 22 22 22 22 22 22 21 21 21 21 22 23 24 25
28 29 29 29 29 29 29 29 28 28 28 28 27 26 26 25 25 25 24 23 23 24 24 23 23 23 22 21 22 22 22 22 22 22 21 21 21 21 22 22 24 24 25
27 27 28 28 29 29 28 28 27 27 27 27 27 27 27 26 26 26 25 24 23 22 22 22 22 22 21 21 21 21 21 21 21 21 21 20 21 21 22 23 24 24 24
26 26 26 26 26 27 27 26 26 26 26 26 26 27 27 27 26 26 25 24 23 22 22 21 22 21 21 20 20 20 20 20 20 20 20 20 21 22 22 23 24 24 24
25 25 25 25 26 26 26 25 25 25 25 25 26 26 27 26 26 25 24 23 23 23 22 22 22 21 21 21 21 20 20 20 19 19 20 20 21 21 21 22 23 24 23
24 25 25 26 26 26 26 26 25 25 25 26 26 26 27 27 26 25 25 24 24 23 23 23 22 22 21 21 21 20 20 19 19 19 19 20 20 21 21 22 23 23 22
23 24 24 25 26 26 26 26 26 26 26 26 26 26 27 27 27 27 26 26 25 25 24 23 23 22 22 21 21 20 20 19 19 18 19 19 20 20 20 22 22 22 22
23 23 23 24 24 25 26 26 26 26 26 25 25 25 26 27 27 27 26 26 26 25 25 24 23 23 22 22 21 20 19 19 19 19 19 18 18 19 20 21 21 21 21
22 22 22 22 22 23 24 25 25 25 25 24 24 24 24 25 25 25 26 26 26 25 25 24 24 24 23 22 22 21 20 19 19 19 18 18 18 19 20 20 20 21 21

GEFSGL_500_meanwind_222.txt.gz
Wind_Speed
40 40 39 40 39 39 39 38 37 37 37 36 35 34 34 34 33 33 33 32 33 33 33 33 32 32 32 32 33 32 32 32 31 30 30 30 31 31 31 31 31 31 30
39 39 39 39 40 39 39 38 38 38 37 36 36 35 34 34 33 33 33 32 32 33 33 32 32 32 32 32 32 31 31 31 31 30 30 30 31 31 30 30 30 30 29
39 39 39 39 39 39 39 38 38 37 37 36 36 35 34 33 33 32 32 32 32 32 32 31 31 31 31 31 30 30 30 30 30 30 30 30 30 29 29 29 28 28 28
39 40 40 39 38 38 38 38 38 37 36 36 35 35 34 33 33 32 32 31 31 31 31 31 31 30 30 30 30 29 29 30 30 30 29 29 28 28 27 27 27 27 27
38 39 39 39 38 38 38 38 38 37 37 36 35 34 34 34 33 32 32 31 31 31 31 31 30 31 31 30 29 29 29 29 29 29 28 28 27 27 26 26 26 26 26
37 37 38 38 38 37 37 37 37 36 36 36 35 34 34 34 33 32 32 32 31 31 30 30 30 30 30 30 29 29 29 29 29 28 27 27 27 27 26 25 26 26 26
36 36 36 37 37 38 37 37 36 36 36 36 35 34 34 34 34 33 32 32 31 30 30 30 29 29 29 29 30 30 30 29 29 28 27 27 27 26 25 25 25 26 27
34 35 36 36 36 37 37 36 36 35 35 35 35 35 34 34 34 34 33 32 31 30 30 30 29 29 29 30 30 30 29 28 28 28 27 27 27 26 25 25 25 26 26
34 34 35 35 36 36 36 36 36 35 35 36 36 36 35 34 34 34 33 32 31 31 30 30 29 29 29 29 29 29 29 29 28 28 27 26 26 25 25 24 24 25 25
34 34 34 34 35 36 36 36 36 36 36 36 36 36 36 35 34 34 33 32 31 31 31 30 30 29 29 29 29 29 29 29 28 27 27 27 26 25 25 24 24 24 24
33 33 34 34 34 35 36 36 36 36 35 35 35 35 35 34 34 33 33 32 31 31 30 30 29 29 29 28 28 27 27 26 26 26 26 26 25 25 24 24 23 24 24
32 33 33 33 33 34 34 35 35 34 34 34 34 34 34 34 34 33 33 32 31 30 29 28 28 28 28 28 27 26 25 24 24 24 23 23 24 24 23 23 23 23 23
33 33 32 32 32 33 34 34 35 34 34 33 33 33 33 33 33 32 32 32 31 30 29 28 27 27 27 26 26 25 24 23 23 23 22 23 23 23 22 22 22 22 22
33 33 33 32 31 31 33 33 34 34 34 33 33 33 33 32 32 32 31 31 30 29 28 27 26 25 25 25 24 24 24 24 23 23 23 23 22 22 21 21 21 21 22
32 32 32 32 32 32 32 33 34 34 34 33 33 32 32 32 31 31 31 30 29 29 29 28 27 25 24 24 24 23 23 23 23 23 23 22 22 22 22 21 21 21 22
31 31 32 32 32 32 31 31 32 32 33 33 32 31 30 30 30 29 29 29 29 29 28 27 27 26 25 25 24 23 24 24 24 23 23 22 22 22 21 21 21 21 21
30 31 31 31 31 31 30 30 30 30 31 32 31 31 29 29 29 29 28 28 28 28 27 26 26 26 26 25 24 23 23 24 24 23 23 22 21 21 20 20 20 20 20
29 30 31 31 31 31 31 30 30 30 30 30 30 30 30 29 29 28 28 28 28 28 28 27 26 26 25 25 25 24 24 24 24 23 22 21 20 20 19 19 19 19 20
29 29 29 29 30 30 30 30 30 30 30 29 29 29 29 29 28 28 27 27 27 27 27 27 26 25 25 25 24 24 23 22 22 21 20 20 19 19 19 19 19 19 19
28 28 28 28 28 28 29 29 29 29 29 30 29 28 28 28 28 28 27 26 26 25 25 25 25 24 24 24 23 23 22 21 21 21 20 20 20 20 19 19 19 20 19
27 27 26 26 26 27 27 27 28 28 28 29 28 28 27 28 28 27 26 25 24 24 24 24 24 24 24 23 22 22 22 22 21 21 20 20 20 20 20 20 20 19 19
26 25 25 25 25 25 26 26 26 27 27 28 28 28 27 27 27 27 26 26 25 24 24 24 24 23 23 23 22 22 21 21 21 21 21 21 21 20 20 20 20 20 20
25 25 25 24 24 24 25 25 25 25 26 26 27 28 27 27 27 27 27 27 27 26 25 25 24 24 23 22 22 22 22 21 21 20 20 21 20 20 20 20 20 20 20
26 25 25 25 24 24 24 24 24 24 25 26 27 27 27 27 27 27 27 28 28 27 26 26 25 25 24 23 22 22 22 21 20 20 20 20 20 20 20 19 19 19 18
26 26 25 25 25 24 24 24 24 24 25 26 26 27 27 27 27 27 27 27 28 28 27 27 27 26 26 25 24 23 22 21 21 21 20 20 19 19 19 19 18 17 17
26 26 25 25 25 24 24 24 24 24 25 25 26 26 27 27 26 26 27 27 28 28 28 28 27 27 27 25 24 24 22 21 21 21 21 20 19 18 18 17 17 16 16

GEFSGL_500_meanwind_228.txt.gz
Wind_Speed
39 39 40 41 41 41 41 41 40 40 40 40 40 39 39 38 37 36 35 35 34 33 32 32 32 32 31 31 31 31 32 32 31 31 31 32 32 32 32 32 31 31 31
38 39 39 39 40 41 40 41 41 40 40 40 40 40 39 38 37 36 35 34 34 33 33 32 32 31 31 31 31 31 31 32 31 31 31 32 32 32 31 31 30 30 30
38 38 39 39 39 40 40 41 41 41 40 40 40 40 39 39 38 37 35 34 33 33 33 32 32 31 31 31 31 31 31 31 31 31 31 31 31 30 30 29 29 28 28
37 38 39 40 39 39 39 40 40 40 40 40 39 39 38 38 38 37 36 34 33 33 32 32 32 31 31 31 32 32 32 32 31 30 30 30 30 30 29 29 28 28 27
36 37 39 39 40 40 39 39 39 39 39 40 39 38 37 37 37 37 36 34 33 32 32 31 31 31 31 32 32 32 31 31 30 29 29 29 29 29 29 29 28 27 27
36 37 38 39 39 39 40 39 39 39 39 39 39 39 38 37 37 37 36 35 34 33 32 31 30 30 31 31 32 31 30 30 29 29 29 28 28 28 29 28 27 27 26
36 37 37 38 38 38 39 39 39 39 39 39 39 38 37 37 37 37 36 35 35 34 33 32 31 30 30 30 30 30 30 29 29 29 28 27 28 28 28 28 27 26 26
36 36 37 37 38 38 38 38 39 39 39 39 38 38 38 38 37 36 36 35 35 34 33 33 32 31 30 30 30 30 29 29 29 28 28 28 28 27 27 27 27 26 26
36 36 36 36 37 37 38 38 38 38 39 39 38 38 38 38 37 36 36 35 34 34 33 32 32 31 31 30 30 30 29 29 29 28 28 28 28 27 27 27 27 26 26
35 35 35 36 37 37 37 37 37 38 38 38 38 38 37 37 37 36 35 34 34 33 32 31 31 31 30 31 30 29 29 29 29 29 28 28 27 26 27 27 27 26 26
34 35 34 35 35 36 36 37 37 37 38 38 38 37 36 36 36 35 34 34 33 32 31 31 31 31 31 30 29 28 28 28 28 28 28 27 27 27 27 26 26 26 25
33 34 34 33 33 34 35 35 36 36 36 37 37 37 36 35 35 35 34 34 33 32 32 31 31 31 30 29 29 28 28 27 27 27 27 26 26 26 25 24 24 24 23
31 32 32 32 32 33 33 33 34 35 35 35 36 36 36 35 35 35 35 34 34 33 33 32 31 30 30 29 28 28 27 27 27 26 25 24 24 23 22 22 22 21 21
30 30 31 31 32 32 32 32 33 33 33 34 35 35 36 35 35 35 35 34 34 33 33 32 30 29 29 29 28 27 27 26 25 24 23 22 22 21 20 20 20 20 20
30 31 31 31 32 32 33 33 33 33 33 33 33 34 34 35 35 35 34 34 33 32 32 31 30 29 29 29 29 28 27 25 24 23 23 22 21 21 20 20 20 20 20
30 30 31 32 32 33 33 33 33 33 33 33 33 33 33 34 34 34 33 33 32 32 31 30 29 29 29 28 28 27 26 25 24 23 23 22 22 21 20 21 21 20 20
30 30 31 31 31 31 32 32 33 33 33 33 33 32 32 33 34 33 33 32 31 31 30 30 29 29 29 28 28 27 27 26 25 23 22 22 21 21 21 21 20 20 20
30 30 30 30 30 31 31 31 31 32 32 32 32 32 32 32 32 33 32 32 32 31 30 30 29 29 29 28 28 27 26 26 25 24 23 22 22 21 21 21 21 20 19
30 30 30 30 30 30 30 30 30 30 30 31 31 31 31 31 32 33 33 32 31 31 30 30 29 29 29 29 28 27 26 25 25 25 24 23 23 22 22 21 20 19 18
30 30 29 29 29 29 29 29 29 29 29 29 30 30 31 31 31 32 32 31 30 29 29 30 30 29 28 28 28 27 26 25 25 24 25 24 24 22 21 21 20 19 18
31 30 30 29 29 29 28 28 28 28 29 29 29 30 30 30 30 30 30 30 30 30 30 30 30 29 28 28 28 27 26 25 25 24 24 24 23 22 21 20 19 19 18
31 31 30 30 30 29 28 28 27 27 27 27 28 28 28 28 29 30 30 30 30 30 29 29 28 28 28 28 27 27 26 25 24 24 23 23 22 22 21 20 19 18 17
30 30 30 29 29 29 28 28 27 27 26 26 26 26 26 27 28 29 29 29 28 28 28 27 27 27 27 27 26 26 25 24 24 23 22 22 21 20 20 19 18 17 16
28 28 28 28 28 27 27 27 26 26 26 25 25 25 25 25 27 27 28 28 28 27 27 27 27 26 26 25 25 25 24 24 23 22 21 21 20 20 19 18 17 17 17
27 27 27 27 27 27 27 26 26 26 25 25 25 25 25 24 25 26 26 27 27 27 26 26 26 25 25 24 24 24 24 23 22 22 21 21 21 20 19 18 17 16 16
26 26 26 26 26 27 27 26 26 25 25 25 25 25 25 24 24 25 26 26 26 26 25 25 25 25 24 23 23 23 23 23 22 22 21 21 20 19 18 17 16 16 15

GEFSGL_500_meanwind_234.txt.gz
Wind_Speed
39 40 40 40 41 42 42 42 42 41 41 40 40 40 39 38 37 36 35 35 35 34 34 34 34 34 34 34 34 34 34 33 32 32 33 32 33 33 33 33 33 33 32
39 39 40 40 41 41 41 42 42 41 41 41 41 41 41 40 39 37 36 35 35 35 35 34 33 33 33 33 33 33 33 32 32 31 31 32 33 33 33 33 33 33 32
39 39 40 40 40 41 41 42 43 42 41 41 41 41 41 40 39 38 37 37 37 36 36 35 34 34 33 33 33 33 32 32 31 31 31 32 32 33 32 32 32 32 32
38 39 39 40 40 40 41 42 42 42 42 41 41 40 40 40 39 38 39 39 38 38 37 36 35 34 34 34 33 32 31 31 31 31 32 32 32 32 32 31 31 31 31
37 38 39 40 40 40 40 41 41 41 41 42 41 41 41 41 40 40 39 39 38 38 36 35 34 34 33 33 32 32 32 31 31 31 31 32 32 32 31 31 31 31 31
37 38 38 39 39 40 39 40 40 40 41 41 41 41 41 41 40 40 40 39 38 37 36 35 36 34 32 33 33 33 32 32 31 31 31 32 32 31 31 31 30 30 30
38 38 38 38 39 39 40 40 40 40 41 41 41 41 41 40 40 40 39 38 38 37 37 36 35 35 33 33 33 33 32 32 31 31 31 31 31 31 31 31 31 30 29
38 38 38 39 39 39 39 40 40 40 41 41 41 41 40 40 40 40 39 38 38 37 36 36 35 34 33 32 32 32 32 32 32 32 31 31 31 31 31 31 31 30 29
37 37 38 39 39 40 39 39 40 40 40 40 40 40 39 40 40 40 39 38 38 37 37 35 34 33 33 33 33 33 32 32 32 32 31 31 31 31 31 30 29 28 27
36 36 37 38 39 39 39 39 39 39 39 39 39 40 40 40 41 41 40 39 38 37 37 36 35 35 34 34 34 33 32 32 32 32 31 31 31 30 29 28 27 27 26
35 34 34 36 37 37 38 38 37 38 38 38 38 39 39 40 40 40 40 40 39 38 37 37 36 35 34 34 33 33 32 32 31 31 30 30 30 29 28 27 26 26 25
35 36 35 34 35 36 36 35 36 37 38 38 38 39 39 39 39 39 39 39 39 38 37 37 36 35 34 34 33 33 32 31 31 30 29 28 28 27 26 26 25 25 24
34 35 36 35 34 35 35 35 35 36 37 38 38 39 39 39 39 39 39 38 38 37 37 36 35 35 34 33 32 31 31 31 30 29 28 26 25 25 24 24 24 23 23
33 34 34 35 35 35 35 35 35 36 36 36 37 37 38 38 39 39 39 38 37 36 35 34 34 34 33 32 31 30 30 30 30 29 27 26 25 24 24 23 23 23 23
32 33 33 33 34 34 34 34 34 34 35 36 36 37 37 37 37 37 36 36 35 34 34 33 33 32 32 32 31 30 30 29 28 27 27 26 25 24 24 23 23 23 23
31 31 32 32 33 33 33 33 34 34 35 35 35 35 35 35 35 35 34 34 34 34 33 32 32 32 31 31 31 30 30 28 27 27 26 26 25 25 24 23 23 23 22
31 31 31 32 32 32 33 33 33 34 34 34 34 34 33 33 33 33 33 33 33 33 33 32 32 31 31 31 30 29 29 28 27 26 25 25 24 24 23 23 22 22 21
30 30 30 30 30 30 31 31 32 32 31 32 32 32 31 31 31 31 32 32 32 32 33 32 32 32 31 31 30 29 28 28 27 25 24 24 23 23 22 22 21 21 21
30 29 29 29 29 30 30 30 30 31 30 30 31 31 31 31 31 30 30 30 30 31 31 32 32 32 31 30 29 28 28 27 25 24 24 23 23 23 22 21 21 21 21
30 30 30 30 30 31 30 30 30 30 30 29 30 29 29 29 30 30 30 30 30 30 30 30 30 30 30 29 28 27 27 26 25 25 24 23 22 22 21 21 21 21 20
31 31 31 31 31 30 30 30 30 30 30 29 29 28 28 28 29 29 29 28 28 29 29 29 29 28 28 27 26 25 25 25 25 25 24 24 23 22 21 21 21 21 20
30 30 31 31 30 30 30 30 30 30 29 29 29 28 28 27 27 27 28 27 27 27 27 28 28 28 27 27 26 25 24 24 24 24 23 23 23 22 22 22 21 21 19
30 30 30 31 31 31 31 30 30 30 30 29 29 28 28 28 27 27 27 27 27 26 27 27 27 27 26 26 26 25 25 25 24 23 22 22 22 22 21 21 20 19 18
29 29 29 29 30 30 30 30 30 29 29 29 29 28 28 27 27 27 27 27 27 27 27 26 27 27 26 26 26 26 25 24 24 23 22 21 20 20 20 20 19 18 17
27 27 27 28 28 29 29 29 29 29 29 28 28 27 27 26 26 26 27 27 27 27 26 26 27 27 26 26 25 25 25 24 23 22 21 20 20 19 19 18 17 16 16
25 25 26 26 26 27 27 28 28 28 28 27 27 26 26 25 25 26 26 26 25 25 25 26 26 26 26 25 25 25 24 24 23 21 20 19 18 18 18 17 16 15 14